[[{"header":{"parameterUnit":"m.s-1","parameterCategory":1,"la1":31.0,"la2":29.5877,"lo1":-88.7671,"lo2":-86.6584,"dy":0.0162,"dx":0.0185,"nx":115,"ny":88,"refTime":"2024-07-17T18:00:00:Z","depth":0,"parameterNumber":2,"parameterNumberName":"U-component_of_WINDS"},"data":[0.0,0.0,0.0,0.0,0.0,0.0,0.0,0.0,0.0,0.0,0.0,0.0,0.0,0.0,0.0,0.0,0.0,0.0,0.0,0.0,0.0,0.0,0.0,0.0,0.0,0.0,0.0,0.0,0.0,0.0,0.0,0.0,0.0,0.0,0.0,0.0,0.0,0.0,0.0,0.0,0.0,0.0,0.0,0.0,0.0,0.0,0.0,0.0,0.0,0.0,0.0,0.0,0.0,0.0,0.0,0.0,0.0,0.0,0.0,0.0,0.0,0.0,0.0,0.0,0.0,0.0,0.0,0.0,0.0,0.0,0.0,0.0,0.0,0.0,0.0,0.0,0.0,0.0,0.0,0.0,0.0,0.0,0.0,0.0,0.0,0.0,0.0,0.0,0.0,0.0,0.0,0.0,0.0,0.0,0.0,0.0,0.0,0.0,0.0,0.0,0.0,0.0,0.0,0.0,0.0,0.0,0.0,0.0,0.0,0.0,0.0,0.0,0.0,0.0,0.0,0.0,0.0,0.0,0.0,0.0,0.0,0.0,0.0,0.0,0.0,0.0,0.0,0.0,0.0,0.0,0.0,0.0,0.0,0.0,0.0,0.0,0.0,0.0,0.0,0.0,0.0,0.0,0.0,0.0,0.0,0.0,0.0,0.0,0.0,0.0,0.0,0.0,0.0,0.0,0.0,0.0,0.0,0.0,0.0,0.0,0.0,0.0,0.0,0.0,0.0,0.0,0.0,0.0,0.0,0.0,0.0,0.0,0.0,0.0,0.0,0.0,0.0,0.0,0.0,0.0,0.0,0.0,0.0,0.0,0.0,0.0,0.0,0.0,0.0,0.0,0.0,0.0,0.0,0.0,0.0,0.0,0.0,0.0,0.0,0.0,0.0,0.0,0.0,0.0,0.0,0.0,0.0,0.0,0.0,0.0,0.0,0.0,0.0,0.0,0.0,0.0,0.0,0.0,0.0,0.0,0.0,0.0,0.0,0.0,0.0,0.0,0.0,0.0,0.0,0.0,0.0,0.0,0.0,0.0,0.0,0.0,0.0,0.0,0.0,0.0,0.0,0.0,0.0,0.0,0.0,0.0,0.0,0.0,0.0,0.0,0.0,0.0,0.0,0.0,0.0,0.0,0.0,0.0,0.0,0.0,0.0,0.0,0.0,0.0,0.0,0.0,0.0,0.0,0.0,0.0,0.0,0.0,0.0,0.0,0.0,0.0,0.0,0.0,0.0,0.0,0.0,0.0,0.0,0.0,0.0,0.0,0.0,0.0,0.0,0.0,0.0,0.0,0.0,0.0,0.0,0.0,0.0,0.0,0.0,0.0,0.0,0.0,0.0,0.0,0.0,0.0,0.0,0.0,0.0,0.0,0.0,0.0,0.0,0.0,0.0,0.0,0.0,0.0,0.0,0.0,0.0,0.0,0.0,0.0,0.0,0.0,0.0,0.0,0.0,0.0,0.0,0.0,0.0,0.0,0.0,0.0,0.0,0.0,0.0,0.0,0.0,0.0,0.0,0.0,0.0,0.0,0.0,0.0,0.0,0.0,0.0,0.0,0.0,0.0,0.0,0.0,0.0,0.0,0.0,0.0,0.0,0.0,0.0,0.0,0.0,0.0,0.0,0.0,0.0,0.0,0.0,0.0,0.0,0.0,0.0,0.0,0.0,0.0,0.0,0.0,0.0,0.0,0.0,0.0,0.0,0.0,0.0,0.0,0.0,0.0,0.0,0.0,0.0,0.0,0.0,0.0,0.0,0.0,0.0,0.0,0.0,0.0,0.0,0.0,0.0,0.0,0.0,0.0,0.0,0.0,0.0,0.0,0.0,0.0,0.0,0.0,0.0,0.0,0.0,0.0,0.0,0.0,0.0,0.0,0.0,0.0,0.0,0.0,0.0,0.0,0.0,0.0,0.0,0.0,0.0,0.0,0.0,0.0,0.0,0.0,0.0,0.0,0.0,0.0,0.0,0.0,0.0,0.0,0.0,0.0,0.0,0.0,0.0,0.0,0.0,0.0,0.0,0.0,0.0,0.0,0.0,0.0,0.0,0.0,0.0,0.0,0.0,0.0,0.0,0.0,0.0,0.0,0.0,0.0,0.0,0.0,0.0,0.0,0.0,0.0,0.0,0.0,0.0,0.0,0.0,0.0,0.0,0.0,0.0,0.0,0.0,0.0,0.0,0.0,0.0,0.0,0.0,0.0,0.0,0.0,0.0,0.0,0.0,0.0,0.0,0.0,0.0,0.0,0.0,0.0,0.0,0.0,0.0,0.0,0.0,0.0,0.0,0.0,0.0,0.0,0.0,0.0,0.0,0.0,0.0,0.0,0.0,0.0,0.0,0.0,0.0,0.0,0.0,0.0,0.0,0.0,0.0,0.0,0.0,0.0,0.0,0.0,0.0,0.0,0.0,0.0,0.0,0.0,0.0,0.0,0.0,0.0,0.0,0.0,0.0,0.0,0.0,0.0,0.0,0.0,0.0,0.0,0.0,0.0,0.0,0.0,0.0,0.0,0.0,0.0,0.0,0.0,0.0,0.0,0.0,0.0,0.0,0.0,0.0,0.0,0.0,0.0,0.0,0.0,0.0,0.0,0.0,0.0,0.0,0.0,0.0,0.0,0.0,0.0,0.0,0.0,0.0,0.0,0.0,0.0,0.0,0.0,0.0,0.0,0.0,0.0,0.0,0.0,0.0,0.0,0.0,0.0,0.0,0.0,0.0,0.0,0.0,0.0,0.0,0.0,0.0,0.0,0.0,0.0,0.0,0.0,0.0,0.0,0.0,0.0,0.0,0.0,0.0,0.0,0.0,0.0,0.0,0.0,0.0,0.0,0.0,0.0,0.0,0.0,0.0,0.0,0.0,0.0,0.0,0.0,0.0,0.0,0.0,0.0,0.0,0.0,0.0,0.0,0.0,0.0,0.0,0.0,0.0,0.0,0.0,0.0,0.0,0.0,0.0,0.0,0.0,0.0,0.0,0.0,0.0,0.0,0.0,0.0,0.0,0.0,0.0,0.0,0.0,0.0,0.0,0.0,0.0,0.0,0.0,0.0,0.0,0.0,0.0,0.0,0.0,0.0,0.0,0.0,0.0,0.0,0.0,0.0,0.0,0.0,0.0,0.0,0.0,0.0,0.0,0.0,0.0,0.0,0.0,0.0,0.0,0.0,0.0,0.0,0.0,0.0,0.0,0.0,0.0,0.0,0.0,0.0,0.0,0.0,0.0,0.0,0.0,0.0,0.0,0.0,0.0,0.0,0.0,0.0,0.0,0.0,0.0,0.0,0.0,0.0,0.0,0.0,0.0,0.0,0.0,0.0,0.0,0.0,0.0,0.0,0.0,0.0,0.0,0.0,0.0,0.0,0.0,0.0,0.0,0.0,0.0,0.0,0.0,0.0,0.0,0.0,0.0,0.0,0.0,0.0,0.0,0.0,0.0,0.0,0.0,0.0,0.0,0.0,0.0,0.0,0.0,0.0,0.0,0.0,0.0,0.0,0.0,0.0,0.0,0.0,0.0,0.0,0.0,0.0,0.0,0.0,0.0,0.0,0.0,0.0,0.0,0.0,0.0,0.0,0.0,0.0,0.0,0.0,0.0,0.0,0.0,0.0,0.0,0.0,0.0,0.0,0.0,0.0,0.0,0.0,0.0,0.0,0.0,0.0,0.0,0.0,0.0,0.0,0.0,0.0,0.0,0.0,0.0,0.0,0.0,0.0,0.0,0.0,0.0,0.0,0.0,0.0,0.0,0.0,0.0,0.0,0.0,0.0,0.0,0.0,0.0,0.0,0.0,0.0,0.0,0.0,0.0,0.0,0.0,0.0,0.0,0.0,0.0,0.0,0.0,0.0,0.0,0.0,0.0,0.0,0.0,0.0,0.0,0.0,0.0,0.0,0.0,0.0,0.0,0.0,0.0,0.0,0.0,0.0,0.0,0.0,0.0,0.0,0.0,0.0,0.0,0.0,0.0,0.0,0.0,0.0,0.0,0.0,0.0,0.0,0.0,0.0,0.0,0.0,0.0,0.0,0.0,0.0,0.0,0.0,0.0,0.0,0.0,0.0,0.0,0.0,0.0,0.0,0.0,0.0,0.0,0.0,0.0,0.0,0.0,0.0,0.0,0.0,0.0,0.0,0.0,0.0,0.0,0.0,0.0,0.0,0.0,0.0,0.0,0.0,0.0,0.0,0.0,0.0,0.0,0.0,0.0,0.0,0.0,0.0,0.0,0.0,0.0,0.0,0.0,0.0,0.0,0.0,0.0,0.0,0.0,0.0,-0.046,0.0,0.0,0.0,0.0,0.0,0.0,0.0,0.0,0.0,0.0,0.0,0.0,0.0,0.0,0.0,0.0,0.0,0.0,0.0,0.0,0.0,0.0,0.0,0.0,0.0,0.0,0.0,0.0,0.0,0.0,0.0,0.0,0.0,0.0,0.0,0.0,0.0,0.0,0.0,0.0,0.0,0.0,0.0,0.0,0.0,0.0,0.0,0.0,0.0,0.0,0.0,0.0,0.0,0.0,0.0,0.0,0.0,0.0,0.0,0.0,0.0,0.0,0.0,0.0,0.0,0.0,0.0,0.0,0.0,0.0,0.0,0.0,0.0,0.0,0.0,0.0,0.0,0.0,0.0,0.0,0.0,0.0,0.0,0.0,0.0,0.0,0.0,0.0,0.0,0.0,0.0,0.0,0.0,0.0,0.0,0.0,0.0,0.0,0.0,0.0,0.0,0.0,0.0,0.0,0.0,0.0,0.0,0.0,0.0,0.0,-0.1834,-0.2195,-0.1657,-0.113,-0.0651,0.0,0.0,0.0,0.0,0.0,0.0,0.0,0.0,0.0,0.0,0.0,0.0,0.0,0.0,0.0,0.0,0.0,0.0,0.0,0.0,0.0,0.0,0.0,0.0,0.0,0.0,0.0,0.0,0.0,0.0,0.0,0.0,0.0,0.0,0.0,0.0,0.0,0.0,0.0,0.0,0.0,0.0,0.0,0.0,0.0,0.0,0.0,0.0,0.0,0.0,0.0,0.0,0.0,0.0,0.0,0.0,0.0,0.0,0.0,0.0,0.0,0.0,0.0,0.0,0.0,0.0,0.0,0.0,0.0,0.0,0.0,0.0,0.0,0.0,0.0,0.0,0.0,0.0,0.0,0.0,0.0,0.0,0.0,0.0,0.0,0.0,0.0,0.0,0.0,0.0,0.0,0.0,0.0,0.0,0.0,0.0,0.0,0.0,0.0,0.0,0.0,0.0,0.0,0.0,0.0,0.0,0.0,0.0,0.0,0.0,0.0,0.0,-0.1866,-0.1575,-0.0843,0.0,0.0,0.0,0.0,0.0,0.0,0.0,0.0,0.0,0.0,0.0,0.0,0.0,0.0,0.0,0.0,0.0,0.0,0.0,0.0,0.0,0.0,0.0,0.0,0.0,0.0,0.0,0.0,0.0,0.0,0.0,0.0,0.0,0.0,0.0,0.0,0.0,0.0,0.0,0.0,0.0,0.0,0.0,0.0,0.0,0.0,0.0,0.0,0.0,0.0,0.0,0.0,0.0,0.0,0.0,0.0,0.0,0.0,0.0,0.0,0.0,0.0,0.0,0.0,0.0,0.0,0.0,0.0,0.0,0.0,0.0,0.0,0.0,0.0,0.0,0.0,0.0,0.0,0.0,0.0,0.0,0.0,0.0,0.0,0.0,0.0,0.0,0.0,0.0,0.0,0.0,0.0,0.0,0.0,0.0,0.0,0.0,0.0,0.0,0.0,0.0,0.0,0.0,0.0,0.0,0.0,0.0,0.0,0.0,0.0,-0.0912,-0.123,-0.142,0.0,-0.1055,0.0,0.0,0.0,0.0,0.0,0.0,0.0,0.0,0.0,0.0,0.0,0.0,0.0,0.0,0.0,0.0,0.0,0.0,0.0,0.0,0.0,0.0,0.0,0.0,0.0,0.0,0.0,0.0,0.0,0.0,0.0,0.0,0.0,0.0,0.0,0.0,0.0,0.0,0.0,0.0,0.0,0.0,0.0,0.0,0.0,0.0,0.0,0.0,0.0,0.0,0.0,0.0,0.0,0.0,0.0,0.0,0.0,0.0,0.0,0.0,0.0,0.0,0.0,0.0,0.0,0.0,0.0,0.0,0.0,0.0,0.0,0.0,0.0,0.0,0.0,0.0,0.0,0.0,0.0,0.0,0.0,0.0,0.0,0.0,0.0,0.0,0.0,0.0,0.0,0.0,0.0,0.0,0.0,0.0,0.0,0.0,0.0,0.0,0.0,0.0,0.0,0.0,0.0,0.0,0.0,0.0,0.0,0.0,0.0,0.0,-0.0515,-0.1142,-0.1183,-0.1004,0.0,0.0,0.0,0.0,0.0,0.0,0.0,0.0,0.0,0.0,0.0,0.0,0.0,0.0,0.0,0.0,0.0,0.0,0.0,0.0,0.0,0.0,0.0,0.0,0.0,0.0,0.0,0.0,0.0,0.0,0.0,0.0,0.0,0.0,0.0,0.0,0.0,0.0,0.0,0.0,0.0,0.0,0.0,0.0,0.0,0.0,0.0,0.0,0.0,0.0,0.0,0.0,0.0,0.0,0.0,0.0,0.0,0.0,0.0,0.0,0.0,0.0,0.0,0.0,0.0,0.0,0.0,0.0,0.0,0.0,0.0,0.0,0.0,0.0,0.0,0.0,0.0,0.0,0.0,0.0,0.0,0.0,0.0,0.0,0.0,0.0,0.0,0.0,0.0,0.0,0.0,0.0,0.0,0.0,0.0,0.0,0.0,0.0,0.0,0.0,0.0,0.0,0.0,0.0,0.0,0.0,0.0,0.0,0.0,0.0,-0.0047,-0.043,-0.0915,-0.0916,-0.0743,-0.0379,0.0,0.0,0.0,0.0,0.0,0.0,0.0,0.0,0.0,0.0,0.0,0.0,0.0,0.0,0.0,0.0,0.0,0.0,0.0,0.0,0.0,0.0,0.0,0.0,0.0,0.0,0.0,0.0,0.0,0.0,0.0,0.0,0.0,0.0,0.0,0.0,0.0,0.0,0.0,0.0,0.0,0.0,0.0,0.0,0.0,0.0,0.0,0.0,0.0,0.0,0.0,0.0,0.0,0.0,0.0,0.0,0.0,0.0,0.0,0.0,0.0,0.0,0.0,0.0,0.0,0.0,0.0,0.0,0.0,0.0,0.0,0.0,0.0,0.0,0.0,0.0,0.0,0.0,0.0,0.0,0.0,0.0,0.0,0.0,0.0,0.0,0.0,0.0,0.0,0.0,0.0,0.0,0.0,0.0,0.0,0.0,0.0,0.0,0.0,0.0,0.0,0.0,0.0,0.0,0.0,0.0,0.0,0.0,-0.0748,-0.0823,-0.0726,-0.055,-0.065,-0.0618,0.0,0.0,0.0,0.0,0.0,0.0,0.0,0.0,0.0,0.0,0.0,0.0,0.0,0.0,0.0,0.0,0.0,0.0,0.0,0.0,0.0,0.0,0.0,0.0,0.0,0.0,0.0,0.0,0.0,0.0,0.0,0.0,0.0,0.0,0.0,0.0,0.0,0.0,0.0,0.0,0.0,0.0,0.0,0.0,0.0,0.0,0.0,0.0,0.0,0.0,0.0,0.0,0.0,0.0,0.0,0.0,0.0,0.0,0.0,0.0,0.0,0.0,0.0,0.0,0.0,0.0,0.0,0.0,0.0,0.0,0.0,0.0,0.0,0.0,0.0,0.0,0.0,0.0,0.0,0.0,0.0,0.0,0.0,0.0,0.0,0.0,0.0,0.0,0.0,0.0,0.0,0.0,0.0,0.0,0.0,0.0,0.0,0.0,0.0,0.0,0.0,0.0,0.0,0.0,0.0,0.0,0.0,0.0,0.0,-0.1403,-0.1465,-0.1372,-0.1297,-0.1094,-0.0892,0.0,0.0,0.0,0.0,0.0,0.0,0.0,0.0,0.0,0.0,0.0,0.0,0.0,0.0,0.0,0.0,0.0,0.0,0.0,0.0,0.0,0.0,0.0,0.0,0.0,0.0,0.0,0.0,0.0,0.0,0.0,0.0,0.0,0.0,0.0,0.0,0.0,0.0,0.0,0.0,0.0,0.0,0.0,0.0,0.0,0.0,0.0,0.0,0.0,0.0,0.0,0.0,0.0,0.0,0.0,0.0,0.0,0.0,0.0,0.0,0.0,0.0,0.0,0.0,0.0,0.0,0.0,0.0,0.0,0.0,0.0,0.0,0.0,0.0,0.0,0.0,0.0,0.0,0.0,0.0,0.0,0.0,0.0,0.0,0.0,0.0,0.0,0.0,0.0,0.0,0.0,0.0,0.0,0.0,0.0,0.0,0.0,0.0,0.0,0.0,0.0,0.0,0.0,0.0,0.0,0.0,0.0,0.0,0.0,-0.2327,0.0,-0.2262,-0.2338,-0.1987,-0.1498,0.0,0.0,0.0,0.0,0.0,0.0,0.0,0.0,0.0,0.0,0.0,0.0,0.0,0.0,0.0,0.0,0.0,0.0,0.0,0.0,0.0,0.0,0.0,0.0,0.0,0.0,0.0,0.0,0.0,0.0,0.0,0.0,0.0,0.0,0.0,0.0,0.0,0.0,0.0,0.0,0.0,0.0,0.0,0.0,0.0,0.0,0.0,0.0,0.0,0.0,0.0,0.0,0.0,0.0,0.0,0.0,0.0,0.0,0.0,0.0,0.0,0.0,0.0,0.0,0.0,0.0,0.0,0.0,0.0,0.0,0.0,0.0,0.0,0.0,0.0,0.0,0.0,0.0,0.0,0.0,0.0,0.0,0.0,0.0,0.0,0.0,0.0,0.0,0.0,0.0,0.0,0.0,0.0,0.0,0.0,0.0,0.0,0.0,0.0,0.0,0.0,0.0,0.0,0.0,0.0,0.0,0.0,0.0,-0.1713,-0.3545,-0.337,-0.3326,-0.3621,-0.3347,-0.247,0.0,0.0,0.0,0.0,0.0,0.0,0.0,0.0,0.0,0.0,0.0,0.0,0.0,0.0,0.0,0.0,0.0,0.0,0.0,0.0,0.0,0.0,0.0,0.0,0.0,0.0,0.0,0.0,0.0,0.0,0.0,0.0,0.0,0.0,0.0,0.0,0.0,0.0,0.0,0.0,0.0,0.0,0.0,0.0,0.0,0.0,0.0,0.0,0.0,0.0,0.0,0.0,0.0,0.0,0.0,0.0,0.0,0.0,0.0,0.0,0.0,0.0,0.0,0.0,0.0,0.0,0.0,0.0,0.0,0.0,0.0,0.0,0.0,0.0,0.0,0.0,0.0,0.0,0.0,0.0,0.0,0.0,0.0,0.0,0.0,0.0,0.0,0.0,0.0,0.0,0.0,0.0,0.0,0.0,0.0,0.0,0.0,0.0,0.0,0.0,0.0,0.0,0.0,0.0,0.0,0.0,0.0,0.0,0.0,-0.3148,-0.3613,-0.3613,-0.317,-0.291,-0.2259,0.0,0.0,0.0,0.0,0.0,0.0,0.0,0.0,0.0,0.0,0.0,0.0,0.0,0.0,0.0,0.0,0.0,0.0,0.0,0.0,0.0,0.0,0.0,0.0,0.0,0.0,0.0,0.0,0.0,0.0,0.0,0.0,0.0,0.0,0.0,0.0,0.0,0.0,0.0,0.0,0.0,0.0,0.0,0.0,0.0,0.0,0.0,0.0,0.0,0.0,0.0,0.0,0.0,0.0,0.0,0.0,0.0,0.0,0.0,0.0,0.0,0.0,0.0,0.0,0.0,0.0,0.0,0.0,0.0,0.0,0.0,0.0,0.0,0.0,0.0,0.0,0.0,0.0,0.0,0.0,0.0,0.0,0.0,0.0,0.0,0.0,0.0,0.0,0.0,0.0,0.0,0.0,0.0,0.0,0.0,0.0,0.0,0.0,0.0,0.0,0.0,0.0,0.0,0.0,0.0,0.0,0.0,0.0,0.0,-0.3216,-0.3678,-0.3774,-0.3375,-0.3075,-0.249,-0.1515,0.0,0.0,0.0,0.0,0.0,0.0,0.0,0.0,0.0,0.0,0.0,0.0,0.0,0.0,0.0,0.0,0.0,0.0,0.0,0.0,0.0,0.0,0.0,0.0,0.0,0.0,0.0,0.0,0.0,0.0,0.0,0.0,0.0,0.0,0.0,0.0,0.0,0.0,0.0,0.0,0.0,0.0,0.0,0.0,0.0,0.0,0.0,0.0,0.0,0.0,0.0,0.0,0.0,0.0,0.0,0.0,0.0,0.0,0.0,0.0,0.0,0.0,0.0,0.0,0.0,0.0,0.0,0.0,0.0,0.0,0.0,0.0,0.0,0.0,0.0,0.0,0.0,0.0,0.0,0.0,0.0,0.0,0.0,0.0,0.0,0.0,0.0,0.0,0.0,0.0,0.0,0.0,0.0,0.0,0.0,0.0,0.0,0.0,0.0,0.0,0.0,0.0,0.0,0.0,0.0,0.0,0.0,0.0,-0.3613,-0.3628,-0.3729,-0.3961,-0.3728,-0.2982,0.0,0.0,0.0,0.0,0.0,0.0,0.0,0.0,0.0,0.0,0.0,0.0,0.0,0.0,0.0,0.0,0.0,0.0,0.0,0.0,0.0,0.0,0.0,0.0,0.0,0.0,0.0,0.0,0.0,0.0,0.0,0.0,0.0,0.0,0.0,0.0,0.0,0.0,0.0,0.0,0.0,0.0,0.0,0.0,0.0,0.0,0.0,0.0,0.0,0.0,0.0,0.0,0.0,0.0,0.0,0.0,0.0,0.0,0.0,0.0,0.0,0.0,0.0,0.0,0.0,0.0,0.0,0.0,0.0,0.0,0.0,0.0,0.0,0.0,0.0,0.0,0.0,0.0,0.0,0.0,0.0,0.0,0.0,0.0,0.0,0.0,0.0,0.0,0.0,0.0,0.0,0.0,0.0,0.0,0.0,0.0,0.0,0.0,0.0,0.0,0.0,0.0,0.0,0.0,0.0,0.0,0.0,0.0,0.0,-0.3577,-0.2922,-0.2679,-0.2895,-0.3007,-0.2515,0.0,0.0,0.0,0.0,0.0,0.0,0.0,0.0,0.0,0.0,0.0,0.0,0.0,0.0,0.0,0.0,0.0,0.0,0.0,0.0,0.0,0.0,0.0,0.0,0.0,0.0,0.0,0.0,0.0,0.0,0.0,0.0,0.0,0.0,0.0,0.0,0.0,0.0,0.0,0.0,0.0,0.0,0.0,0.0,0.0,0.0,0.0,0.0,0.0,0.0,0.0,0.0,0.0,0.0,0.0,0.0,0.0,0.0,0.0,0.0,0.0,0.0,0.0,0.0,0.0,0.0,0.0,0.0,0.0,0.0,0.0,0.0,0.0,0.0,0.0,0.0,0.0,0.0,0.0,0.0,0.0,0.0,0.0,0.0,0.0,0.0,0.0,0.0,0.0,0.0,0.0,0.0,0.0,0.0,0.0,0.0,0.0,0.0,0.0,0.0,0.0,0.0,0.0,0.0,0.0,0.0,0.0,0.0,-0.3888,-0.3519,-0.2616,-0.2177,-0.2321,-0.2177,-0.1941,0.0,0.0,0.0,0.0,0.0,0.0,0.0,0.0,0.0,0.0,0.0,0.0,0.0,0.0,0.0,0.0,0.0,0.0,0.0,0.0,0.0,0.0,0.0,0.0,0.0,0.0,0.0,0.0,0.0,0.0,0.0,0.0,0.0,0.0,0.0,0.0,0.0,0.0,0.0,0.0,0.0,0.0,0.0,0.0,0.0,0.0,0.0,0.0,0.0,0.0,0.0,0.0,0.0,0.0,0.0,0.0,0.0,0.0,0.0,0.0,0.0,0.0,0.0,0.0,0.0,0.0,0.0,0.0,0.0,0.0,0.0,0.0,0.0,0.0,0.0,0.0,0.0,0.0,0.0,0.0,0.0,0.0,0.0,0.0,0.0,0.0,0.0,0.0,0.0,0.0,0.0,0.0,0.0,0.0,0.0,0.0,0.0,0.0,0.0,0.0,0.0,0.0,0.0,0.0,0.0,0.0,0.0,0.0,-0.3861,-0.3422,-0.2463,-0.1968,-0.2064,-0.1524,-0.1322,0.0,0.0,0.0,0.0,0.0,0.0,0.0,0.0,0.0,0.0,0.0,0.0,0.0,0.0,0.0,0.0,0.0,0.0,0.0,0.0,0.0,0.0,0.0,0.0,0.0,0.0,0.0,0.0,0.0,0.0,0.0,0.0,0.0,0.0,0.0,0.0,0.0,0.0,0.0,0.0,0.0,0.0,0.0,0.0,0.0,0.0,0.0,0.0,0.0,0.0,0.0,0.0,0.0,0.0,0.0,0.0,0.0,0.0,0.0,0.0,0.0,0.0,0.0,0.0,0.0,0.0,0.0,0.0,0.0,0.0,0.0,0.0,0.0,0.0,0.0,0.0,0.0,0.0,0.0,0.0,0.0,0.0,0.0,0.0,0.0,0.0,0.0,0.0,0.0,0.0,0.0,0.0,0.0,0.0,0.0,0.0,0.0,0.0,0.0,0.0,0.0,0.0,0.0,0.0,0.0,0.0,0.0,0.0,-0.4109,-0.3567,-0.2233,-0.1609,-0.1884,-0.1434,-0.1035,0.0,0.0,0.0,0.0,0.0,0.0,0.0,0.0,0.0,0.0,0.0,0.0,0.0,0.0,0.0,0.0,0.0,0.0,0.0,0.0,0.0,0.0,0.0,0.0,0.0,0.0,0.0,0.0,0.0,0.0,0.0,0.0,0.0,0.0,0.0,0.0,0.0,0.0,0.0,0.0,0.0,0.0,0.0,0.0,0.0,0.0,0.0,0.0,-0.2351,0.0,0.0,0.0,0.0,0.0,0.0,0.0,0.0,0.0,0.0,0.0,0.0,0.0,0.0,0.0,0.0,0.0,0.0,0.0,0.0,0.0,0.0,0.0,0.0,0.0,0.0,0.0,0.0,0.0,0.0,0.0,0.0,0.0,0.0,0.0,0.0,0.0,0.0,0.0,0.0,0.0,0.0,0.0,0.0,0.0,0.0,0.0,0.0,0.0,0.0,0.0,0.0,0.0,0.0,0.0,0.0,0.0,0.0,0.0,-0.4057,-0.3194,-0.2303,-0.1697,-0.1479,-0.094,-0.0583,0.0,0.0,0.0,0.0,0.0,0.0,0.0,0.0,0.0,0.0,0.0,0.0,0.0,0.0,0.0,0.0,0.0,0.0,0.0,0.0,0.0,0.0,0.0,0.0,0.0,0.0,0.0,0.0,0.0,0.0,0.0,0.0,0.0,0.0,0.0,0.0,0.0,0.0,0.0,0.0,0.0,0.0,0.0,0.0,0.0,0.0,0.0,0.0,0.0,0.0,0.0,0.0,0.0,0.0,0.0,0.0,0.0,0.0,0.0,0.0,0.0,0.0,0.0,0.0,0.0,0.0,0.0,0.0,0.0,0.0,0.0,0.0,0.0,0.0,0.0,0.0,0.0,0.0,0.0,0.0,0.0,0.0,0.0,0.0,0.0,0.0,0.0,0.0,0.0,0.0,0.0,0.0,0.0,0.0,0.0,0.0,0.0,0.0,0.0,0.0,0.0,0.0,0.0,0.0,0.0,0.0,0.0,-0.3808,-0.3802,-0.2741,-0.2457,-0.2011,-0.1432,-0.0581,-0.0358,-0.0718,0.0,0.0,0.0,0.0,0.0,0.0,0.0,0.0,0.0,0.0,0.0,0.0,0.0,0.0,0.0,0.0,0.0,0.0,0.0,0.0,0.0,0.0,0.0,0.0,0.0,0.0,0.0,0.0,0.0,0.0,0.0,0.0,0.0,0.0,0.0,0.0,0.0,0.0,-0.3947,-0.4407,0.0,0.0,0.0,0.0,0.0,0.0,0.0,0.0,-0.3066,0.0,0.0,0.0,0.0,0.0,0.0,0.0,0.0,0.0,0.0,0.0,0.0,0.0,0.0,0.0,0.0,0.0,0.0,0.0,0.0,0.0,0.0,0.0,0.0,0.0,0.0,0.0,0.0,0.0,0.0,0.0,0.0,0.0,0.0,0.0,0.0,0.0,0.0,0.0,0.0,0.0,0.0,0.0,0.0,0.0,0.0,0.0,0.0,0.0,0.0,0.0,0.0,0.0,0.0,0.0,0.0,-0.32,-0.3478,-0.333,-0.2733,-0.2457,-0.2506,-0.2869,-0.1567,-0.1163,-0.1744,0.0,0.0,0.0,0.0,0.0,0.0,0.0,0.0,0.0,0.0,0.0,0.0,0.0,0.0,0.0,0.0,0.0,0.0,0.0,0.0,0.0,0.0,0.0,0.0,0.0,0.0,0.0,0.0,0.0,0.0,0.0,0.0,0.0,0.0,0.0,0.0,0.0,0.0,0.0,-0.4582,-0.5157,0.0,0.0,0.0,0.0,0.0,0.0,0.0,0.0,-0.2847,0.0,0.0,0.0,0.0,0.0,0.0,0.0,0.0,0.0,0.0,0.0,0.0,0.0,0.0,0.0,0.0,0.0,0.0,0.0,0.0,0.0,0.0,0.0,0.0,0.0,0.0,0.0,0.0,0.0,0.0,0.0,0.0,0.0,0.0,0.0,0.0,0.0,0.0,0.0,0.0,0.0,0.0,0.0,0.0,0.0,0.0,0.0,0.0,0.0,0.0,0.0,0.0,0.0,0.0,0.0,-0.2479,-0.3147,-0.3216,-0.2495,-0.2843,-0.3129,-0.3276,-0.269,-0.2284,0.0,0.0,0.0,0.0,0.0,0.0,0.0,0.0,0.0,0.0,0.0,0.0,0.0,0.0,0.0,0.0,0.0,0.0,0.0,0.0,0.0,0.0,0.0,0.0,0.0,0.0,0.0,0.0,0.0,0.0,0.0,0.0,0.0,0.0,0.0,0.0,0.0,0.0,0.0,0.0,-0.3949,-0.4137,-0.534,0.0,0.0,0.0,0.0,0.0,0.0,-0.3649,-0.3128,0.0,0.0,0.0,0.0,0.0,0.0,0.0,0.0,0.0,0.0,0.0,0.0,0.0,0.0,0.0,0.0,0.0,0.0,0.0,0.0,0.0,0.0,0.0,0.0,0.0,0.0,0.0,0.0,0.0,0.0,0.0,0.0,0.0,0.0,0.0,0.0,0.0,0.0,0.0,0.0,0.0,0.0,0.0,0.0,0.0,0.0,0.0,0.0,0.0,0.0,0.0,0.0,0.0,0.0,0.0,-0.1699,-0.2728,-0.2923,-0.2207,-0.3083,-0.3527,-0.3404,-0.3457,-0.3138,0.0,0.0,0.0,0.0,0.0,0.0,0.0,0.0,0.0,0.0,0.0,0.0,0.0,0.0,0.0,0.0,0.0,0.0,0.0,0.0,0.0,0.0,0.0,0.0,0.0,0.0,0.0,0.0,0.0,0.0,0.0,0.0,0.0,0.0,0.0,0.0,0.0,0.0,0.0,0.0,0.0,-0.3533,-0.4965,-0.4999,0.0,0.0,0.0,0.0,-0.4193,-0.3852,0.0,0.0,0.0,0.0,0.0,0.0,0.0,0.0,0.0,0.0,0.0,0.0,0.0,0.0,0.0,0.0,0.0,0.0,0.0,0.0,0.0,0.0,0.0,0.0,0.0,0.0,0.0,0.0,0.0,0.0,0.0,0.0,0.0,0.0,0.0,0.0,0.0,0.0,0.0,0.0,0.0,0.0,0.0,0.0,0.0,0.0,0.0,0.0,0.0,0.0,0.0,0.0,0.0,0.0,0.0,0.0,-0.1767,-0.2015,-0.2064,-0.2074,-0.2819,-0.3391,-0.3656,-0.3303,-0.3083,0.0,0.0,0.0,0.0,0.0,0.0,0.0,0.0,0.0,0.0,0.0,0.0,0.0,0.0,0.0,0.0,0.0,0.0,0.0,0.0,0.0,0.0,0.0,0.0,0.0,0.0,0.0,0.0,0.0,0.0,0.0,0.0,0.0,0.0,0.0,0.0,0.0,0.0,0.0,0.0,0.0,-0.4969,-0.2234,-0.296,-0.4032,0.0,0.0,-0.3852,-0.4136,-0.3852,0.0,0.0,0.0,0.0,0.0,0.0,0.0,0.0,0.0,0.0,0.0,0.0,0.0,0.0,0.0,0.0,0.0,0.0,0.0,0.0,0.0,0.0,0.0,0.0,0.0,0.0,0.0,0.0,0.0,0.0,0.0,0.0,0.0,0.0,0.0,0.0,0.0,0.0,0.0,0.0,0.0,0.0,0.0,0.0,0.0,0.0,0.0,0.0,0.0,0.0,0.0,0.0,0.0,0.0,0.0,-0.0811,-0.1152,-0.1412,-0.1752,-0.2153,-0.279,-0.3168,-0.33,-0.3493,-0.3314,0.0,0.0,0.0,0.0,0.0,0.0,0.0,0.0,0.0,0.0,0.0,0.0,0.0,0.0,0.0,0.0,0.0,0.0,0.0,0.0,0.0,0.0,0.0,0.0,0.0,0.0,0.0,0.0,0.0,0.0,0.0,0.0,0.0,0.0,0.0,0.0,0.0,0.0,0.0,0.0,0.0,0.0,-0.0745,-0.0918,0.0,0.0,0.0,-0.3712,-0.4295,0.0,0.0,0.0,0.0,0.0,0.0,0.0,0.0,0.0,0.0,0.0,0.0,0.0,0.0,0.0,0.0,0.0,0.0,0.0,0.0,0.0,0.0,0.0,0.0,0.0,0.0,0.0,0.0,0.0,0.0,0.0,0.0,0.0,0.0,0.0,0.0,0.0,0.0,0.0,0.0,0.0,0.0,0.0,0.0,0.0,0.0,0.0,0.0,0.0,0.0,0.0,0.0,0.0,0.0,0.0,0.0,0.0,-0.044,-0.0839,-0.1382,-0.2053,-0.2584,-0.2886,-0.2854,-0.3415,0.0,0.0,0.0,0.0,0.0,0.0,0.0,0.0,0.0,0.0,0.0,0.0,0.0,0.0,0.0,0.0,0.0,0.0,0.0,0.0,0.0,0.0,0.0,0.0,0.0,0.0,0.0,-0.0456,0.0,0.0,0.0,0.0,0.0,0.0,0.0,0.0,0.0,0.0,0.0,0.0,0.0,0.0,-0.3182,-0.0353,-0.0175,-0.0987,0.0,0.0,-0.3386,-0.3981,-0.3465,-0.2911,0.0,0.0,0.0,0.0,0.0,0.0,0.0,0.0,0.0,0.0,0.0,0.0,0.0,0.0,0.0,0.0,0.0,0.0,0.0,0.0,0.0,0.0,0.0,0.0,0.0,0.0,0.0,0.0,0.0,0.0,0.0,0.0,0.0,0.0,0.0,0.0,0.0,0.0,0.0,0.0,0.0,0.0,0.0,0.0,0.0,0.0,0.0,0.0,0.0,0.0,0.0,0.0,0.0,0.0,0.054,0.0136,-0.0187,-0.0751,-0.1448,-0.2155,-0.2501,-0.2444,-0.2859,-0.2986,0.0,0.0,0.0,0.0,0.0,0.0,0.0,0.0,0.0,0.0,0.0,0.0,0.0,0.0,0.0,0.0,0.0,0.0,0.0,0.0,0.0,0.0,0.0,0.0,0.0,0.0,0.0,0.0,0.0,0.0,0.0,0.0,0.0,0.0,0.0,0.0,0.0,0.0,0.0,0.0,0.0,-0.4743,-0.1378,-0.1504,-0.2157,0.0,-0.2629,-0.2577,-0.2972,-0.3144,-0.303,-0.2353,0.0,0.0,0.0,0.0,0.0,0.0,0.0,0.0,0.0,0.0,0.0,0.0,0.0,0.0,0.0,0.0,0.0,0.0,0.0,0.0,0.0,0.0,0.0,0.0,0.0,0.0,0.0,0.0,0.0,0.0,0.0,0.0,0.0,0.0,0.0,0.0,0.0,0.0,0.0,0.0,0.0,0.0,0.0,0.0,0.0,0.0,0.0,0.0,0.0,0.0,0.0,0.0,0.0,0.0708,0.0279,-0.0095,-0.0756,-0.1813,-0.1859,-0.206,-0.256,-0.2327,-0.2202,0.0,0.0,0.0,0.0,0.0,0.0,0.0,0.0,0.0,0.0,0.0,0.0,0.0,0.0,0.0,0.0,0.0,0.0,0.0,0.0,0.0,0.0,0.0,0.0,0.0,0.0,0.0,0.0,-0.2109,-0.2317,-0.2949,0.0,0.0,0.0,0.0,0.0,0.0,0.0,0.0,0.0,0.0,-0.6927,-0.3602,-0.2909,0.0,0.0,-0.2206,-0.2208,-0.2722,-0.2865,-0.2872,-0.253,-0.2566,0.0,0.0,0.0,0.0,0.0,0.0,0.0,0.0,0.0,0.0,0.0,0.0,0.0,0.0,0.0,0.0,0.0,0.0,0.0,0.0,0.0,0.0,0.0,0.0,0.0,0.0,0.0,0.0,0.0,0.0,0.0,0.0,0.0,0.0,0.0,0.0,0.0,0.0,0.0,0.0,0.0,0.0,0.0,0.0,0.0,0.0,0.0,0.0,0.0,0.0,0.0,0.0,0.1016,0.042,0.0095,-0.0616,-0.1729,-0.1592,-0.1745,-0.2144,-0.1992,-0.1856,0.0,0.0,0.0,0.0,0.0,0.0,0.0,0.0,0.0,0.0,0.0,0.0,0.0,0.0,0.0,0.0,0.0,0.0,0.0,0.0,0.0,0.0,0.0,0.0,0.0,0.0,0.0,0.0,-0.3093,-0.3142,-0.3431,0.0,0.0,0.0,0.0,0.0,0.0,0.0,0.0,0.0,0.0,-0.8236,-0.5637,-0.4072,-0.2797,-0.1856,-0.1232,-0.114,-0.1716,-0.1631,-0.1657,-0.2085,0.0,0.0,0.0,0.0,0.0,0.0,0.0,0.0,0.0,0.0,0.0,0.0,0.0,0.0,0.0,0.0,0.0,0.0,0.0,0.0,0.0,0.0,0.0,0.0,0.0,0.0,0.0,-0.2042,0.0,0.0,-0.058,0.0,0.0,0.0,0.0,0.0,0.0,0.0,0.0,0.0,0.0,0.0,0.0,0.0,0.0,0.0,0.0,0.0,0.0,0.0,0.0,0.0,0.0,0.1522,0.0672,0.0326,-0.014,-0.0767,-0.1437,-0.1553,-0.1148,-0.1919,-0.218,-0.1718,0.0,0.0,0.0,0.0,0.0,0.0,0.0,0.0,0.0,0.0,0.0,0.0,0.0,0.0,0.0,0.0,0.0,0.0,0.0,0.0,0.0,0.0,0.0,0.0,0.0,0.0,-0.4223,-0.3679,-0.3383,0.0,0.0,0.0,0.0,0.0,0.0,0.0,0.0,0.0,-1.0853,-0.9952,-0.8526,-0.7179,-0.4864,-0.2672,-0.0833,0.0314,0.0799,0.0246,0.0677,0.0738,0.0,0.0,0.0,0.0,0.0,0.0,0.0,0.0,0.0,0.0,0.0,0.0,0.0,0.0,0.0,0.0,0.0,0.0,0.0,0.0,0.0,0.0,0.0,0.0,0.0,0.0,0.0,-0.39,-0.362,0.0,0.0,0.0,0.0,0.0,0.0,0.0,0.0,0.0,0.0,0.0,-0.0275,-0.0192,0.0,0.0,0.0,0.0,0.0,0.0,0.0,0.0,0.0,0.0,0.0,0.0,0.1527,0.0715,-0.0045,-0.0773,-0.1521,-0.1477,-0.1482,-0.1642,-0.1989,-0.1921,-0.1452,0.0,0.0,0.0,0.0,0.0,0.0,0.0,0.0,0.0,0.0,0.0,0.0,0.0,0.0,0.0,0.0,0.0,0.0,0.0,0.0,0.0,0.0,0.0,0.0,0.0,-0.5142,0.0,0.0,0.0,0.0,0.0,0.0,0.0,0.0,0.0,0.0,0.0,-1.0321,-1.0566,-0.9956,-0.8937,-0.7193,-0.5345,-0.3186,0.0,0.0,0.0,0.0,0.0,0.0,0.0,0.0,0.0,0.0,0.0,0.0,0.0,0.0,-1.5339,-1.9,-1.5994,-1.3998,-1.7558,0.0,0.0,0.0,0.0,0.0,0.0,0.0,0.0,0.0,0.0,0.0,0.0,0.0,0.0,-0.5532,-0.5082,-0.386,0.0,0.0,0.0,0.0,0.0,0.0,0.0,0.0,-0.1276,-0.0865,-0.0621,-0.0585,-0.0686,0.0,-0.1116,-0.0645,0.0,0.0,0.0,0.0,0.0,0.0,0.0,0.0,0.1403,0.0137,-0.0687,-0.1229,-0.1523,-0.1567,-0.171,-0.2013,-0.1819,-0.157,-0.1245,-0.1451,-0.1708,0.0,0.0,0.0,0.0,0.0,0.0,0.0,0.0,0.0,0.0,0.0,0.0,0.0,0.0,0.0,0.0,0.0,0.0,0.0,0.0,0.0,0.0,0.0,-0.5717,0.0,0.0,0.0,0.0,0.0,0.0,0.0,0.0,0.0,-1.0415,-1.0966,-1.1099,-1.0891,-1.0029,-0.9052,-0.7927,0.0,0.0,0.0,0.0,0.0,0.0,0.0,-0.3173,-0.5564,-0.5816,-0.6061,-0.6887,-0.8247,-0.934,-0.9662,0.0,0.0,-2.3048,-2.1612,-2.0084,-2.1423,-2.3115,-2.36,-2.1162,-2.0035,-1.8827,0.0,0.0,0.0,0.0,0.0,0.0,0.0,0.0,-0.7753,-0.7425,0.0,-0.5298,0.0,0.0,0.0,0.0,0.0,-0.4956,0.0,0.0,-0.2651,-0.1831,-0.1054,-0.0968,-0.1207,-0.1562,-0.1561,-0.1387,-0.0958,0.0098,0.0,0.0,0.0,0.0,0.0,0.0,0.1034,-0.0945,-0.1516,-0.1495,-0.081,-0.1746,-0.2236,-0.2102,-0.1506,-0.1165,-0.1095,-0.1352,-0.1687,-0.2091,-0.1968,0.0,0.0,0.0,0.0,0.0,0.0,0.0,0.0,0.0,0.0,0.0,0.0,0.0,0.0,0.0,0.0,0.0,0.0,0.0,0.0,-0.5961,0.0,0.0,0.0,0.0,0.0,0.0,0.0,0.0,0.0,0.0,-1.1063,-1.1041,-1.1169,-1.1659,0.0,0.0,0.0,0.0,-0.5063,-0.3469,-0.2667,-0.1997,-0.1333,-0.1593,-0.3507,-0.8262,0.0,0.0,-0.8796,-0.9545,-1.023,-1.0859,-1.3478,-1.7502,-2.3357,-2.4926,-2.5411,-2.5005,-2.6417,-2.7157,-2.4642,-2.2159,-2.0468,-0.4182,0.0,0.0,0.0,0.0,-0.8567,-0.8988,-0.9468,-0.8851,-0.8285,-0.7782,-0.6525,0.0,0.0,0.0,0.0,0.0,0.0,-0.549,-0.4441,-0.2774,-0.163,-0.0934,0.0094,0.0141,-0.0726,-0.0732,-0.0849,-0.1135,-0.1608,-0.1411,-0.0756,0.0,0.0,0.0,0.0,-0.1374,-0.1222,-0.1862,-0.2038,-0.17,-0.2101,-0.2237,-0.2104,-0.119,-0.0682,-0.0669,-0.1158,-0.1584,-0.1938,-0.1937,0.0,0.0,0.0,0.0,0.0,0.0,0.0,0.0,0.0,0.0,0.0,0.0,0.0,0.0,0.0,0.0,0.0,0.0,0.0,-0.649,-0.6547,-0.6505,0.0,0.0,0.0,0.0,0.0,0.0,0.0,0.0,0.0,-1.0246,-1.0388,-1.0167,0.0,0.0,-0.8164,-0.7688,-0.6872,-0.5913,-0.4641,-0.4768,0.0,-0.4327,-0.4443,-0.5758,-0.9435,-0.9548,-0.882,-0.769,-0.9283,-1.0549,-1.01,-1.2248,-1.5093,-1.7845,-2.0974,-2.3327,-2.4645,-2.451,-2.4209,-2.4424,-2.1335,-1.6883,-0.2909,-0.493,-0.5602,-0.6889,-0.8426,-0.8655,-0.9233,-0.9977,-0.9326,-0.8875,-0.8489,-0.7477,-0.702,-0.697,-0.7519,0.0,0.0,0.0,-0.666,-0.522,-0.2785,-0.1206,-0.0347,0.0954,0.1183,0.0388,0.0391,0.01,-0.052,-0.1556,-0.1939,-0.1683,0.0,0.0,-0.2958,-0.3168,-0.295,-0.2377,-0.2496,-0.2552,-0.242,-0.2239,-0.208,-0.19,-0.1146,-0.0665,-0.0567,-0.1018,-0.132,-0.1429,-0.1682,-0.1598,0.0,0.0,0.0,0.0,0.0,0.0,0.0,0.0,0.0,0.0,0.0,0.0119,-0.1118,0.0,0.0,0.0,-0.518,-0.5992,-0.6272,-0.655,0.0,0.0,0.0,0.0,0.0,0.0,0.0,-0.9429,-0.9519,-0.9512,-0.9548,-0.9424,-0.9169,-0.856,-0.8296,-0.7977,-0.7608,0.0,-0.6874,-0.6322,-0.6568,-0.6746,-0.6691,-0.6615,-0.7494,-1.0168,-1.0744,-1.0273,-0.8891,-0.9923,-1.0895,-1.0945,-1.2126,-1.3241,-1.2927,-1.6407,-2.0296,-2.2951,-2.1131,-1.949,-2.0271,-1.5946,-1.111,-0.0946,-0.2597,-0.3744,-0.5364,-0.7234,-0.8057,-0.8668,-0.9157,-0.9252,-0.8987,-0.8492,-0.7996,-0.7843,-0.8024,-0.9407,0.0,-1.0479,-0.9275,-0.766,-0.5765,-0.2742,-0.0631,0.0635,0.1788,0.2108,0.1699,0.17,0.1354,0.0756,-0.0352,-0.1382,-0.2447,-0.3899,-0.4789,-0.498,-0.4271,-0.3923,-0.3997,-0.3268,-0.2881,-0.2834,-0.2246,-0.1839,-0.1703,-0.1253,-0.0889,-0.0719,-0.0936,-0.0932,-0.0675,-0.1311,-0.1561,-0.1306,0.0,0.0,0.0,0.0,0.0,0.0,0.0,0.0,0.0,0.0,0.0,0.0,0.0,0.0,0.0,-0.5254,0.0,-0.5499,-0.6112,0.0,0.0,0.0,-0.6881,-0.8507,-0.8581,-0.8941,-0.9863,0.0,0.0,-0.8874,-0.8313,-0.804,-0.8218,-0.8016,-0.8009,-0.835,-0.7986,-0.7774,-0.7949,-0.7979,-0.8019,-0.8296,-0.8224,-0.8664,-1.0364,-1.1549,-1.1729,-1.1124,-1.0771,-1.1275,-1.1932,-1.2617,-1.1775,-0.8454,-1.1262,-1.5589,-1.9148,-1.6637,-1.3319,-1.1435,-0.7448,-0.4187,0.0167,-0.0668,-0.0938,-0.3053,-0.6238,-0.644,-0.7084,-0.7896,-0.76,-0.7281,-0.6949,-0.6793,-0.7355,-0.8443,-0.9624,-1.0039,-0.9766,-0.8896,-0.72,-0.4793,-0.1949,0.0161,0.1634,0.3499,0.4099,0.3635,0.3285,0.2829,0.2181,0.026,-0.0847,-0.1205,-0.31,-0.4232,-0.4663,-0.4165,-0.3916,-0.3945,-0.3402,-0.2956,-0.26,-0.2242,-0.1929,-0.1704,-0.1287,-0.0972,-0.0708,-0.0613,-0.0438,-0.0221,-0.1019,-0.1416,-0.1367,-0.1188,0.0,0.0,0.0,0.0,0.0,0.0,0.0,0.0,0.0,0.13,0.0295,0.0,-0.1481,0.0,-0.3816,-0.4936,-0.5268,-0.5619,0.0,0.0,-0.7026,-0.739,-0.8233,-0.8888,-0.9406,-0.9786,-0.9929,-0.9606,-0.8493,-0.7749,-0.7012,-0.6207,-0.6464,-0.6917,-0.7272,-0.759,-0.7804,-0.7936,-0.8215,-0.8616,-0.8711,-0.9356,-0.9586,-0.9373,-1.0254,-1.1169,-1.2081,-1.0902,-0.9959,-1.0239,-1.0501,-0.8961,-0.4981,-0.2572,-0.3626,-0.8837,-0.8789,-0.5189,0.1249,0.2503,0.2784,0.184,0.1116,0.1116,-0.0554,-0.3305,-0.413,-0.5279,-0.644,-0.6016,-0.5905,-0.602,-0.615,-0.6948,-0.8265,-0.8894,-0.8884,-0.8387,-0.722,-0.5432,-0.3011,-0.0495,0.1476,0.3073,0.4478,0.5177,0.512,0.4601,0.4071,0.3445,0.1509,0.0327,-0.0111,-0.1891,-0.287,-0.3141,-0.3939,-0.4554,-0.4919,-0.368,-0.2866,-0.2438,-0.2217,-0.1839,-0.1254,-0.094,-0.0627,-0.0314,-0.0359,-0.0222,0.0131,-0.0437,-0.096,-0.1395,-0.1465,-0.1425,0.0,0.0,0.0,0.0,0.0,0.0,0.0,0.0,0.0,0.0,0.0,-0.1304,-0.1839,-0.2703,-0.3576,-0.4431,-0.4992,-0.5503,-0.5723,-0.6249,-0.7114,-0.8309,-0.8713,-0.9147,-1.0034,-0.956,-0.8917,-0.8077,-0.7061,-0.6037,-0.5065,-0.5055,-0.5531,-0.6418,-0.7061,-0.7387,-0.7274,-0.7786,-0.8126,-0.7908,-0.9341,-1.0101,-0.915,-0.9855,-1.0716,-1.0552,-1.0023,-0.9431,-0.8989,-0.9448,-0.8446,-0.3624,0.167,0.3486,0.0367,-0.0059,0.2876,0.7405,0.7156,0.6779,0.3516,0.2679,0.2679,0.1784,0.0167,-0.1387,-0.3098,-0.4818,-0.4431,-0.4656,-0.5267,-0.5597,-0.6399,-0.7407,-0.752,-0.7236,-0.6572,-0.4977,-0.3178,-0.1102,0.1165,0.3057,0.4494,0.5218,0.5825,0.6372,0.5825,0.5275,0.4716,0.3112,0.1895,0.1116,-0.0391,-0.1117,-0.0948,-0.2767,-0.4391,-0.5791,-0.3788,-0.2581,-0.2329,-0.2116,-0.1577,-0.0806,-0.0537,-0.0179,0.0313,-0.0,0.0044,0.0468,0.0255,-0.0297,-0.1061,-0.1511,-0.1663,0.0,-0.1647,0.0,0.0,0.0,0.0,0.0,0.0,0.0,0.0,-0.0876,-0.1272,-0.1841,-0.1944,-0.237,-0.3407,-0.4331,-0.4792,-0.4529,-0.5077,-0.6202,-0.7928,-0.8019,-0.8483,-0.9894,-0.9027,-0.8091,-0.7531,-0.63,-0.5168,-0.4429,-0.3924,-0.3998,-0.5148,-0.6003,-0.6415,-0.6358,-0.6631,-0.6567,-0.6614,-0.8274,-0.9326,-0.8712,-0.9219,-0.9696,-0.8387,-0.869,-0.8934,-0.834,-0.9023,-0.8176,-0.3909,0.211,0.6188,0.522,0.6721,0.8485,0.8909,0.8837,0.8666,0.3855,0.3742,0.3742,0.3069,0.2008,0.167,-0.0,-0.2446,-0.2504,-0.3008,-0.3795,-0.4333,-0.4763,-0.5091,-0.5571,-0.5458,-0.4812,-0.3249,-0.1821,-0.0444,0.2215,0.4045,0.515,0.6256,0.7023,0.7521,0.7028,0.6699,0.6529,0.4824,0.3833,0.3609,0.15,0.078,0.1449,0.0,0.0,0.0,-0.2445,-0.1864,-0.2339,-0.1703,-0.1297,-0.1167,-0.0671,0.0,0.094,0.103,0.1115,0.1196,0.0796,0.0,0.0,0.0,0.0,0.0,0.0,0.0,0.0,0.0,0.0,0.0,0.0209,0.1323,0.0714,-0.0359,-0.1073,-0.1207,-0.1689,-0.2226,-0.2648,-0.3428,-0.4107,-0.4624,-0.4453,-0.4426,-0.5024,-0.6641,-0.7848,-0.7654,-0.744,-0.7065,-0.652,-0.5279,-0.429,-0.3682,-0.3209,-0.2827,-0.2615,-0.3919,-0.4856,-0.4816,-0.426,-0.426,-0.5389,-0.5335,-0.591,-0.6571,-0.6793,-0.7206,-0.7992,-0.7461,-0.7602,-0.8181,-0.8661,-0.796,-0.5208,0.0301,0.4858,0.5368,0.7709,0.9508,0.9033,0.9778,1.0652,0.4522,0.4356,0.4356,0.3909,0.0,0.3238,0.2116,0.0278,-0.0558,-0.1452,-0.2347,-0.2673,-0.2945,-0.3329,-0.3652,-0.3436,-0.2838,-0.1495,-0.0277,0.089,0.2778,0.4438,0.5762,0.6367,0.7082,0.7848,0.7354,0.7136,0.7025,0.5265,0.4388,0.4388,0.2839,0.2288,0.2737,0.3528,0.2104,-0.1526,-0.1104,-0.1076,-0.1563,-0.1166,-0.0848,-0.0554,-0.0045,0.0,0.0,0.0,0.0,0.0,0.0,0.0,0.0,0.0,0.0,-0.1885,-0.209,-0.2109,-0.1912,-0.1619,-0.1941,-0.2883,-0.1272,-0.0057,0.0294,-0.0499,-0.1034,-0.1034,-0.1374,-0.1627,-0.1775,-0.1955,-0.2177,-0.2417,-0.2761,-0.2991,-0.3156,-0.477,-0.6127,-0.6547,-0.6611,-0.6328,-0.5612,-0.4484,-0.349,-0.2804,-0.2262,-0.1678,-0.1229,-0.2225,-0.3161,-0.2878,-0.1715,-0.1385,-0.2596,-0.309,-0.3308,-0.4516,-0.5128,-0.598,-0.7261,-0.6732,-0.6363,-0.6996,-0.7399,-0.7177,-0.5297,-0.0403,0.4128,0.5557,0.7913,0.9891,0.9952,1.1157,1.2275,0.5079,0.48,0.4798,0.4524,0.4135,0.4135,0.3626,0.2676,0.0,0.0,0.0,-0.095,-0.1282,-0.1778,-0.1891,-0.1672,-0.1118,-0.0223,0.0835,0.2006,0.3176,0.4558,0.6098,0.6209,0.6807,0.7791,0.7408,0.7244,0.719,0.5651,0.4884,0.4719,0.3955,0.352,0.3523,0.3412,0.2625,0.1171,0.0434,-0.0107,-0.0425,-0.0502,-0.029,0.0096,0.0605,0.1006,0.1328,0.2017,0.2439,0.2622,0.2836,0.222,0.0608,0.0224,-0.0511,-0.1685,-0.2044,-0.2065,-0.1859,-0.2563,-0.3167,-0.3523,-0.2648,-0.1725,-0.0861,-0.0952,-0.1034,-0.1034,-0.0904,-0.0764,-0.0676,-0.0428,-0.0181,-0.0,-0.1049,-0.1686,-0.1676,-0.2657,-0.4023,-0.5293,-0.557,-0.5384,-0.4507,-0.3636,-0.2739,-0.1958,-0.1458,-0.0448,0.0502,-0.0167,-0.1052,-0.0497,0.0663,0.127,0.055,-0.0439,-0.1428,-0.1977,-0.3299,-0.4754,-0.5784,-0.578,-0.5208,-0.4718,-0.5686,-0.5888,-0.4866,-0.0552,0.3736,0.5962,0.8187,1.0175,1.1158,1.2407,1.3433,0.5244,0.5244,0.5244,0.4965,0.4579,0.4577,0.4346,0.3776,0.1839,0.1061,0.117,0.0446,0.0112,-0.0,-0.0727,-0.0896,-0.0504,-0.0168,0.0669,0.1895,0.3388,0.4718,0.5825,0.6317,0.6966,0.7673,0.7619,0.7673,0.7684,0.7079,0.6652,0.6334,0.5044,0.4331,0.4294,0.3793,0.3404,0.3178,0.2225,0.1533,0.1009,0.0474,-0.0,-0.02,0.0348,0.0793,0.1141,0.1833,0.2376,0.2759,0.2959,0.2858,0.2461,0.1135,-0.0298,-0.1603,-0.1315,-0.1235,-0.175,-0.2351,-0.3202,-0.4306,-0.3809,-0.2979,-0.2154,-0.146,-0.1098,-0.1033,-0.0257,0.044,0.0836,0.0768,0.0526,0.0114,-0.0113,-0.0338,-0.0619,-0.09,-0.1634,-0.3116,-0.3498,-0.366,-0.3151,-0.2581,-0.2014,-0.1286,-0.0839,0.0503,0.3467,0.3171,0.1937,0.2267,0.2873,0.3421,0.3363,0.2817,0.171,0.0993,-0.0553,-0.2388,-0.4304,-0.4135,-0.351,-0.2559,-0.351,-0.4024,-0.3812,-0.0719,0.3136,0.6596,0.8435,0.9796,1.1447,1.2897,1.4186,0.5782,0.5834,0.6166,0.6164,0.5996,0.5658,0.5597,0.5531,0.427,0.344,0.3105,0.2717,0.2551,0.2495,0.1835,0.1779,0.2165,0.195,0.2284,0.3167,0.411,0.505,0.5928,0.664,0.7447,0.8249,0.8464,0.8468,0.8359,0.7815,0.7515,0.7285,0.5483,0.4496,0.446,0.4296,0.4182,0.4073,0.3014,0.2164,0.1585,0.1449,0.1055,0.0623,0.1121,0.161,0.1961,0.2514,0.287,0.3072,0.3271,0.3325,0.3036,0.1694,0.0363,-0.0936,-0.1218,-0.1455,-0.1805,-0.2785,-0.3625,-0.4247,-0.4252,-0.3831,-0.3063,-0.2228,-0.1313,-0.0185,0.0552,0.1144,0.1669,0.2062,0.2221,0.1966,0.14,0.0672,-0.0056,-0.0335,-0.0782,-0.1675,-0.3078,-0.3473,-0.2348,-0.1789,-0.1286,-0.0671,0.0056,0.201,0.4882,0.457,0.3934,0.4208,0.4871,0.5311,0.5316,0.4433,0.349,0.2708,0.1053,-0.0612,-0.2066,-0.2124,-0.2179,-0.2292,-0.257,-0.2853,-0.337,-0.0665,0.2531,0.4644,0.7732,0.9613,1.1461,1.3293,1.4835,0.6102,0.6263,0.6699,0.6972,0.7025,0.6632,0.6732,0.712,0.6529,0.5971,0.5348,0.4862,0.4594,0.4535,0.4047,0.3879,0.4149,0.4348,0.4293,0.4212,0.4718,0.5435,0.6355,0.7058,0.7966,0.8974,0.9201,0.9201,0.9026,0.8435,0.7984,0.7549,0.5764,0.4829,0.4844,0.4794,0.4741,0.4682,0.3735,0.2792,0.2011,0.2126,0.1884,0.14,0.1783,0.2217,0.2575,0.2989,0.3196,0.32,0.3451,0.3458,0.3274,0.2281,0.1021,-0.0486,-0.1326,-0.1852,-0.2131,-0.3184,-0.3959,-0.4079,-0.4244,-0.407,-0.3431,-0.25,-0.1019,0.1001,0.1708,0.2033,0.2427,0.3087,0.3595,0.3539,0.28,0.1679,0.0504,0.0112,-0.0224,-0.0895,-0.2519,-0.3026,-0.1847,-0.1174,-0.0615,0.0168,0.1452,0.2959,0.4416,0.5128,0.533,0.5767,0.6379,0.6714,0.6539,0.5762,0.4818,0.4094,0.2492,0.1,0.0056,-0.0559,-0.0895,-0.1567,-0.1847,-0.2352,-0.3084,-0.1558,0.0935,0.299,0.6476,0.9777,1.2002,1.3903,1.546,0.5727,0.6157,0.6317,0.6532,0.702,0.7289,0.7608,0.7972,0.7993,0.815,0.8066,0.6173,0.5255,0.5146,0.4645,0.4138,0.3803,0.6208,0.6256,0.4411,0.4803,0.5898,0.725,0.7466,0.8305,0.9677,0.9607,0.971,0.9957,0.9079,0.814,0.7195,0.6225,0.5782,0.588,0.5228,0.5067,0.5458,0.4895,0.3956,0.2681,0.2229,0.1784,0.1341,0.1778,0.2107,0.2375,0.2714,0.2936,0.2942,0.3097,0.3269,0.3448,0.2899,0.1392,-0.1171,-0.1509,-0.1956,-0.2853,-0.3355,-0.386,-0.4311,-0.3634,-0.3076,-0.2699,-0.1691,0.0229,0.2448,0.3239,0.3247,0.3434,0.3531,0.3588,0.3588,0.3418,0.2855,0.1514,0.1178,0.0729,-0.0336,-0.1064,-0.1066,-0.0897,-0.0785,-0.0224,0.1174,0.2124,0.324,0.4691,0.5014,0.5391,0.622,0.6879,0.7144,0.741,0.7246,0.6362,0.5481,0.4318,0.2828,0.1447,0.0558,0.0168,-0.0224,-0.0783,-0.1958,-0.3141,-0.302,-0.1551,0.2013,0.5866,1.0062,1.3092,1.4902,1.5843,0.6159,0.6756,0.7069,0.77,0.8445,0.8564,0.8827,0.9232,0.9141,0.9197,0.919,0.8215,0.7679,0.7362,0.6727,0.6653,0.7036,0.7622,0.7354,0.626,0.6433,0.6924,0.7632,0.8419,0.9411,1.0547,1.0809,1.0868,1.0399,0.903,0.7511,0.6192,0.5817,0.5597,0.532,0.506,0.5175,0.567,0.5289,0.4567,0.3565,0.3121,0.2566,0.2016,0.2685,0.3187,0.3298,0.3687,0.3855,0.358,0.3685,0.3635,0.3321,0.258,0.1007,-0.1458,-0.2131,-0.2689,-0.3359,-0.3579,-0.3803,-0.3984,-0.3239,-0.2454,-0.1454,-0.0727,0.0507,0.2111,0.2696,0.2961,0.3482,0.3585,0.3585,0.3585,0.3585,0.3306,0.2746,0.2017,0.112,0.0056,-0.0393,-0.0561,-0.0505,-0.0393,0.0224,0.1455,0.2181,0.285,0.3738,0.379,0.4228,0.4997,0.5318,0.615,0.7376,0.7478,0.7036,0.6657,0.5322,0.355,0.2998,0.1785,0.1118,0.0726,0.0112,-0.1173,-0.3251,-0.3471,-0.2557,0.1196,0.7161,1.2177,1.3272,1.4969,1.6395,0.6322,0.6912,0.7554,0.8511,0.9517,0.9413,0.9669,1.0174,0.9965,0.9865,0.9921,1.0068,0.9858,0.9381,0.8919,0.9148,0.9629,0.9033,0.8606,0.8399,0.8103,0.8103,0.8537,0.9474,1.0501,1.1375,1.1877,1.1625,1.0704,0.9061,0.7329,0.6016,0.5701,0.5534,0.537,0.5275,0.55,0.6095,0.5832,0.5226,0.4448,0.4388,0.3837,0.2794,0.3518,0.4021,0.4021,0.4467,0.4413,0.3856,0.3961,0.3687,0.3034,0.2243,0.0839,-0.1122,-0.247,-0.3314,-0.3587,-0.3298,-0.3132,-0.303,-0.2401,-0.145,-0.0336,-0.0056,0.028,0.1123,0.1628,0.2247,0.3193,0.3416,0.3471,0.3585,0.3585,0.3585,0.353,0.2741,0.1846,0.0728,0.0448,-0.0056,-0.0336,-0.0112,0.0728,0.1845,0.2014,0.2293,0.2904,0.3071,0.3124,0.4065,0.4223,0.5103,0.7003,0.7212,0.7155,0.6766,0.5485,0.4875,0.4433,0.3116,0.2007,0.1612,0.1393,0.0056,-0.274,-0.3469,-0.2272,0.1083,0.6754,1.2572,1.299,1.4834,1.6312,0.5675,0.6372,0.7286,0.8352,0.9409,0.9312,0.9832,1.0694,1.0273,1.0226,1.0643,1.1174,1.1262,1.0864,1.0828,1.0581,1.0319,1.0625,1.0462,0.9925,0.9329,0.9467,1.0293,1.0775,1.1434,1.2264,1.2417,1.1692,1.0261,0.91,0.8109,0.6915,0.5937,0.5993,0.6534,0.6043,0.6258,0.6961,0.6627,0.6027,0.5439,0.5943,0.5389,0.39,0.3958,0.4182,0.4078,0.4468,0.4301,0.3467,0.3629,0.3407,0.2747,0.2128,0.1119,-0.0168,-0.2248,-0.355,-0.3371,-0.2351,-0.1623,-0.1683,-0.0953,0.0056,0.0561,0.0168,-0.0056,0.0112,0.0785,0.1514,0.2465,0.2798,0.3132,0.353,0.3585,0.3585,0.3585,0.3473,0.2967,0.2014,0.1567,0.1007,-0.0447,0.0168,0.1175,0.207,0.2238,0.241,0.3356,0.3186,0.3084,0.3694,0.4068,0.4494,0.6121,0.6719,0.6253,0.598,0.615,0.598,0.5152,0.4268,0.3323,0.266,0.2725,0.1167,-0.2119,-0.25,-0.0549,0.2649,0.6875,1.0881,1.2647,1.399,1.4732,0.5673,0.6315,0.7393,0.8296,0.904,0.9707,1.0383,1.1015,1.1158,1.1388,1.1729,1.2016,1.212,1.2169,1.2407,1.2229,1.1696,1.1727,1.1357,1.0706,1.0167,1.0072,1.0446,1.1078,1.1737,1.2417,1.2706,1.1706,0.9655,0.8282,0.6854,0.5586,0.4999,0.5269,0.5864,0.5823,0.6268,0.7244,0.6851,0.647,0.6362,0.6586,0.6421,0.5873,0.5228,0.4741,0.4467,0.4857,0.4689,0.3802,0.3855,0.3523,0.2689,0.14,0.0448,-0.0,-0.0841,-0.1965,-0.315,-0.213,-0.0895,-0.0168,-0.028,-0.0,0.0673,0.0617,0.0336,0.0168,0.0561,0.1121,0.1345,0.1846,0.2572,0.3414,0.3585,0.3585,0.3585,0.3585,0.3416,0.2965,0.2351,0.1622,0.1401,0.112,0.1177,0.1736,0.1595,0.1714,0.192,0.1649,0.149,0.1801,0.2178,0.2898,0.4354,0.5887,0.6423,0.6256,0.6147,0.6046,0.5496,0.5218,0.4434,0.4149,0.411,0.3053,-0.0,-0.1949,0.011,0.211,0.6548,1.0375,1.2554,1.2845,1.2243,0.5563,0.6263,0.7012,0.7922,0.8876,0.9547,1.0383,1.1124,1.1573,1.1914,1.2236,1.2623,1.2817,1.2914,1.3479,1.3537,1.3094,1.2627,1.2062,1.1484,1.0927,1.0736,1.1011,1.1656,1.2161,1.2421,1.2482,1.1319,0.9096,0.7471,0.5939,0.4496,0.4388,0.4824,0.5588,0.5937,0.6652,0.7357,0.73,0.7128,0.7128,0.7125,0.713,0.6977,0.6168,0.5515,0.5179,0.5297,0.491,0.4132,0.4021,0.3637,0.2636,0.1009,-0.0,-0.0,0.0168,-0.0393,-0.174,-0.1177,-0.0224,0.0448,0.0056,-0.0056,0.0449,0.0505,0.028,0.0056,0.028,0.0561,0.0673,0.1456,0.2576,0.342,0.3587,0.3585,0.3585,0.3585,0.3585,0.3471,0.2797,0.2528,0.2607,0.1802,0.1692,0.2098,0.1569,0.1104,0.1818,0.0748,-0.0,0.0113,0.1134,0.2091,0.3217,0.4553,0.5694,0.5745,0.5989,0.5996,0.6112,0.5889,0.5773,0.5597,0.5037,0.4205,0.2489,-0.0,0.0165,0.1682,0.5171,0.9441,1.0551,1.094,1.0169,0.5287,0.61,0.6209,0.7171,0.8501,0.8827,0.9758,1.096,1.1272,1.1573,1.2058,1.303,1.3175,1.3079,1.3898,1.4413,1.4118,1.3425,1.2852,1.2452,1.1648,1.1458,1.1769,1.2306,1.2508,1.2382,1.1882,1.0491,0.8388,0.6831,0.5512,0.4604,0.4331,0.4937,0.6152,0.6645,0.7249,0.7791,0.8002,0.7949,0.7568,0.7723,0.7667,0.7295,0.6761,0.6436,0.6154,0.5618,0.491,0.4133,0.4021,0.3583,0.2639,0.1122,-0.0,-0.0,0.0505,0.0785,0.0729,0.0673,0.0448,0.0336,0.0168,0.0112,-0.0056,-0.0168,-0.0224,-0.0112,-0.0,0.0112,0.0448,0.1736,0.303,0.354,0.3645,0.364,0.3641,0.3585,0.3588,0.3536,0.3143,0.3122,0.2948,0.2295,0.211,0.2688,0.1777,0.1236,0.2462,0.0755,-0.0697,-0.0514,0.0342,0.1424,0.2281,0.3198,0.419,0.506,0.5519,0.5775,0.6273,0.6324,0.6547,0.6423,0.5582,0.4751,0.3941,0.183,0.1824,0.3392,0.6493,0.8533,0.9187,0.951,0.8148,0.4575,0.5175,0.5548,0.6197,0.7117,0.8293,0.9141,0.9714,1.0753,1.1556,1.208,1.272,1.3208,1.3537,1.3887,1.4171,1.4536,1.4204,1.3831,1.3261,1.2223,1.1746,1.1923,1.2207,1.2185,1.1918,1.1329,0.9786,0.7591,0.6164,0.515,0.4506,0.4065,0.4721,0.6154,0.6426,0.6918,0.7845,0.8368,0.857,0.8629,0.8679,0.8728,0.8725,0.7978,0.7289,0.681,0.5841,0.4963,0.4181,0.4127,0.3687,0.2746,0.1904,0.1008,0.0168,0.0336,0.0673,0.0897,0.0897,0.0841,0.0673,0.0673,0.0617,0.0449,0.0056,0.0056,0.0393,0.0561,0.0785,0.1288,0.2017,0.2973,0.3769,0.3809,0.3744,0.3747,0.3638,0.3511,0.3391,0.3233,0.3098,0.2912,0.23,0.2114,0.2358,0.08,0.0123,0.059,-0.0473,-0.1618,-0.1054,-0.0116,0.0573,0.126,0.2117,0.3132,0.4064,0.47,0.537,0.5975,0.649,0.682,0.6812,0.6023,0.5364,0.45,0.4004,0.3714,0.4624,0.6997,0.8087,0.8585,0.8044,0.7039,0.3907,0.4349,0.5001,0.5544,0.6036,0.7331,0.8237,0.8873,0.9917,1.0779,1.1412,1.2213,1.2706,1.3193,1.3794,1.4261,1.452,1.4831,1.4716,1.3967,1.274,1.2081,1.1927,1.199,1.1922,1.1576,1.0939,0.9172,0.6653,0.5742,0.499,0.4345,0.3953,0.4664,0.6204,0.6372,0.6972,0.8049,0.8521,0.8939,0.9305,0.9413,0.9465,0.9402,0.8672,0.7937,0.7244,0.6389,0.5401,0.44,0.3958,0.3463,0.2915,0.2409,0.1904,0.1626,0.1401,0.1401,0.1345,0.1289,0.1121,0.0953,0.0729,0.0673,0.0729,0.0336,0.0224,0.0561,0.1009,0.14,0.1791,0.2463,0.3081,0.3704,0.3806,0.3796,0.3799,0.3579,0.3548,0.3542,0.3487,0.3338,0.3131,0.2674,0.2182,0.187,0.0378,-0.1626,-0.138,-0.203,-0.1955,-0.1642,-0.0985,-0.0402,0.0115,0.1032,0.2117,0.3005,0.3762,0.4514,0.5264,0.5698,0.6105,0.632,0.5864,0.5762,0.506,0.4629,0.4462,0.6094,0.716,0.7308,0.7544,0.7579,0.681,0.3126,0.3683,0.4398,0.4948,0.5433,0.6036,0.7168,0.8448,0.8873,0.954,1.0462,1.1416,1.1882,1.2192,1.3684,1.4335,1.4387,1.5137,1.5131,1.4258,1.3112,1.2274,1.1841,1.1728,1.1541,1.1213,1.0494,0.86,0.6103,0.569,0.4935,0.4229,0.4388,0.5042,0.631,0.6591,0.7233,0.8359,0.8629,0.9089,0.9821,0.9869,0.9718,0.9462,0.9057,0.8371,0.7571,0.7036,0.6109,0.451,0.3793,0.3466,0.3194,0.2576,0.2801,0.354,0.3313,0.269,0.2239,0.1958,0.1679,0.112,0.0616,0.0336,0.0897,0.0561,0.0224,0.0449,0.1176,0.1791,0.2014,0.2685,0.3302,0.3413,0.3635,0.3688,0.3584,0.3356,0.3429,0.3958,0.3976,0.38,0.3794,0.3253,0.2726,0.2089,0.088,-0.0978,-0.2281,-0.2375,-0.2617,-0.2198,-0.1683,-0.1381,-0.0862,-0.0,0.1138,0.2122,0.2888,0.3723,0.448,0.4929,0.5508,0.5721,0.6154,0.6052,0.5841,0.5407,0.5301,0.6048,0.6488,0.6425,0.6549,0.6736,0.7227,0.1954,0.3128,0.3123,0.3623,0.4457,0.5328,0.6244,0.7315,0.8495,0.9287,1.0012,1.0631,1.1283,1.1913,1.257,1.3418,1.4433,1.5022,1.4827,1.3962,1.315,1.2224,1.1499,1.0956,1.0482,0.988,0.9433,0.8038,0.6025,0.6086,0.5653,0.473,0.5056,0.5712,0.6537,0.6591,0.7283,0.8461,0.8991,0.9562,1.0237,1.0399,1.0237,0.9869,0.9462,0.8728,0.7824,0.7117,0.6426,0.5611,0.4842,0.4124,0.3568,0.3461,0.3584,0.3822,0.3591,0.3247,0.2965,0.2739,0.2347,0.1787,0.1174,0.1007,0.1679,0.1065,0.0729,0.0841,0.1402,0.1962,0.2295,0.2797,0.3245,0.3473,0.3469,0.3524,0.3527,0.336,0.3435,0.4199,0.3942,0.408,0.4221,0.3871,0.3171,0.2581,0.1312,-0.0244,-0.1261,-0.2711,-0.2948,-0.2641,-0.2237,-0.2089,-0.1721,-0.0852,0.0114,0.1213,0.2116,0.2972,0.3648,0.4182,0.4846,0.5411,0.6556,0.6779,0.6564,0.6294,0.6351,0.6062,0.5194,0.4913,0.6034,0.6599,0.7478,0.1063,0.2181,0.257,0.3129,0.3853,0.4838,0.576,0.6725,0.7913,0.8876,0.9506,0.9932,1.0478,1.1107,1.1805,1.2971,1.4361,1.4619,1.4471,1.4077,1.3092,1.2039,1.1061,1.0383,0.9518,0.8433,0.858,0.7691,0.6414,0.6423,0.6152,0.5555,0.534,0.5828,0.6699,0.6312,0.6953,0.8402,0.904,0.9618,1.0454,1.0718,1.0506,1.0131,0.9766,0.9134,0.8125,0.7543,0.6907,0.615,0.5332,0.4563,0.3841,0.3904,0.403,0.4044,0.3863,0.3691,0.352,0.3352,0.3182,0.279,0.212,0.2012,0.2295,0.1905,0.1457,0.0897,0.1682,0.2243,0.2354,0.2631,0.2686,0.2572,0.2572,0.2798,0.3251,0.3122,0.3484,0.4094,0.4397,0.4389,0.4894,0.4443,0.4001,0.3295,0.2267,0.1088,-0.0,-0.1814,-0.318,-0.2919,-0.2858,-0.2748,-0.2215,-0.1353,0.0056,0.1085,0.1888,0.2637,0.2905,0.3452,0.3953,0.4846,0.6393,0.745,0.7171,0.6714,0.6023,0.5332,0.4132,0.416,0.5418,0.6728,0.7621,0.0224,0.0897,0.2293,0.302,0.3355,0.4462,0.5546,0.662,0.7441,0.8359,0.9148,0.9305,0.9662,0.9917,1.0986,1.2431,1.3817,1.3936,1.4133,1.3794,1.2938,1.167,1.0681,0.9917,0.8975,0.7868,0.8103,0.7489,0.6686,0.6586,0.6482,0.6046,0.5395,0.5775,0.6647,0.6152,0.6789,0.8343,0.8834,0.9413,1.03,1.062,1.0557,1.0186,0.9969,0.9492,0.8705,0.819,0.7551,0.6342,0.5435,0.4672,0.407,0.4018,0.3912,0.3971,0.397,0.3913,0.3852,0.3796,0.3798,0.3684,0.3129,0.2797,0.2746,0.2128,0.1401,0.0673,0.1793,0.1734,0.1732,0.19,0.162,0.1228,0.1005,0.1566,0.2318,0.266,0.314,0.4257,0.4855,0.4884,0.4965,0.4986,0.4874,0.3765,0.275,0.189,0.0585,-0.1153,-0.2514,-0.3324,-0.3299,-0.3365,-0.2629,-0.1845,-0.0168,0.1238,0.2032,0.2577,0.2407,0.279,0.3064,0.4001,0.5873,0.7149,0.7708,0.7012,0.6274,0.5348,0.4698,0.4809,0.5299,0.6678,0.7725,-0.0449,-0.0,0.095,0.1732,0.2516,0.3961,0.5326,0.6499,0.7489,0.8461,0.9145,0.9089,0.9347,0.9913,0.9874,1.0605,1.255,1.3017,1.3361,1.3288,1.2302,1.1392,1.0502,0.9621,0.8856,0.8258,0.7646,0.7179,0.6853,0.691,0.6699,0.6263,0.6372,0.6704,0.6923,0.6709,0.7246,0.8464,0.8738,0.9263,1.0047,1.0411,1.0399,1.0075,0.9869,0.9817,0.9662,0.8669,0.7646,0.6766,0.5686,0.4604,0.4116,0.3569,0.3296,0.3298,0.3523,0.3803,0.3968,0.3852,0.3907,0.3965,0.3635,0.3246,0.2352,0.1287,0.0672,0.0168,-0.0224,-0.0223,-0.0278,-0.0111,-0.0222,-0.0389,-0.0111,0.0225,0.0749,0.152,0.2693,0.3746,0.4137,0.4222,0.4745,0.4753,0.4523,0.3939,0.3096,0.242,0.1027,-0.068,-0.1927,-0.3233,-0.3664,-0.363,-0.3012,-0.1952,-0.0167,0.1342,0.2184,0.2689,0.2518,0.2346,0.2673,0.388,0.5471,0.6517,0.7297,0.8287,0.777,0.6534,0.5362,0.5214,0.549,0.6758,0.7934,-0.0336,0.0224,0.084,0.1623,0.2687,0.4356,0.5609,0.6556,0.78,0.8669,0.9145,0.8988,0.9033,0.9242,0.9117,0.9877,1.1165,1.2425,1.2768,1.2546,1.2061,1.1547,1.0667,0.9781,0.9138,0.8718,0.8093,0.7667,0.761,0.7557,0.745,0.6858,0.6858,0.6699,0.6758,0.6547,0.692,0.7937,0.8434,0.891,0.9632,1.0039,1.0127,1.006,0.9965,0.9969,0.9331,0.8364,0.6605,0.5017,0.4008,0.3655,0.3503,0.2842,0.2568,0.2794,0.2682,0.2904,0.307,0.3345,0.3456,0.3627,0.352,0.2736,0.1842,0.0726,-0.0112,-0.0727,-0.1283,-0.1556,-0.255,-0.2715,-0.266,-0.2272,-0.1776,-0.1354,-0.0754,0.0474,0.18,0.2762,0.3037,0.3182,0.3535,0.3948,0.3739,0.3049,0.0857,0.017,0.0735,-0.0787,-0.1857,-0.2926,-0.3646,-0.3799,-0.3291,-0.2006,-0.0112,0.1286,0.2411,0.2801,0.291,0.2623,0.2448,0.3825,0.515,0.579,0.6625,0.7776,0.8299,0.6977,0.5803,0.5433,0.5255,0.5642,0.7071,-0.0167,0.0673,0.1065,0.185,0.3083,0.4917,0.6,0.6612,0.8119,0.8939,0.9159,0.9089,0.883,0.8517,0.8656,0.9155,1.005,1.131,1.1805,1.131,1.1643,1.1011,1.0174,0.9558,0.9141,0.8728,0.8477,0.8371,0.8365,0.8315,0.7836,0.7456,0.6853,0.6586,0.6428,0.5993,0.632,0.7563,0.8193,0.8616,0.9166,0.9566,0.9806,1.0064,0.9854,0.9515,0.8632,0.7585,0.5849,0.2445,0.1759,0.1719,0.1782,0.1616,0.1505,0.2065,0.1674,0.1785,0.2118,0.2395,0.2617,0.2785,0.2509,0.1895,0.0891,0.0056,-0.0836,-0.1616,-0.2281,-0.293,-0.4941,-0.5103,-0.4824,-0.438,-0.3776,-0.3049,-0.215,-0.066,0.0302,0.1152,0.1813,0.2272,0.2461,0.2684,0.2434,0.1796,-0.0447,-0.1731,-0.106,-0.1171,-0.2402,-0.369,-0.4686,-0.4496,-0.3931,-0.2778,-0.0779,0.039,0.1788,0.235,0.2627,0.2345,0.2174,0.3454,0.4613,0.5202,0.5569,0.6129,0.6409,0.623,0.6027,0.5334,0.4863,0.4487,0.5682,-0.1201,-0.0505,0.0503,0.1454,0.2516,0.4396,0.5706,0.6722,0.8122,0.8988,0.9253,0.9201,0.8722,0.8187,0.7596,0.7873,0.8723,0.9789,1.0097,0.9804,1.0292,1.0029,0.9013,0.9037,0.8732,0.8586,0.8599,0.8702,0.858,0.8259,0.7783,0.7244,0.6866,0.665,0.6213,0.6116,0.6109,0.7023,0.7767,0.8306,0.8699,0.9152,0.9492,0.9806,0.9388,0.877,0.8165,0.7149,0.5697,0.3622,0.1492,0.0278,-0.0279,-0.0613,-0.039,0.0056,0.0335,0.067,0.1281,0.1339,0.1394,0.1338,0.1003,0.0335,-0.0446,-0.1394,-0.2062,-0.278,-0.3879,-0.5019,-0.6663,-0.6681,-0.6414,-0.5862,-0.5216,-0.4544,-0.3754,-0.2812,-0.1825,-0.0998,0.0177,0.1008,0.0754,0.0568,0.028,-0.0389,-0.1947,-0.25,-0.1774,-0.2327,-0.344,-0.4831,-0.6175,-0.5471,-0.4667,-0.3366,-0.1883,-0.1053,0.0111,0.1172,0.1395,0.1453,0.1898,0.2449,0.3507,0.4501,0.4761,0.4747,0.486,0.4925,0.4942,0.4961,0.3868,0.2796,0.2446,-0.1436,-0.0841,-0.0112,0.1287,0.2856,0.3898,0.5095,0.6406,0.7584,0.8392,0.862,0.856,0.8125,0.7486,0.7052,0.7082,0.7482,0.7986,0.8244,0.8204,0.8854,0.9089,0.828,0.8669,0.8682,0.8636,0.8643,0.8646,0.8573,0.8318,0.7613,0.7074,0.6931,0.6438,0.5218,0.4672,0.522,0.598,0.6537,0.7144,0.7824,0.8399,0.8688,0.8266,0.86,0.8056,0.6546,0.6758,0.5686,0.3882,0.1555,-0.0335,-0.1566,-0.2125,-0.2067,-0.1567,-0.1008,-0.0503,0.0056,-0.0,0.0112,0.0335,-0.0,-0.0502,-0.1283,-0.2173,-0.3283,-0.4436,-0.5309,-0.6673,-0.7711,-0.7706,-0.7489,-0.7168,-0.6568,-0.6018,-0.5477,-0.4769,-0.409,-0.3354,-0.2481,-0.1971,-0.2073,-0.2206,-0.2172,-0.2828,-0.3776,-0.3542,-0.2865,-0.3636,-0.4858,-0.618,-0.7419,-0.6725,-0.592,-0.4787,-0.3586,-0.2701,-0.1659,-0.061,0.0167,0.0223,0.0112,0.0278,0.1612,0.3116,0.3283,0.3106,0.3333,0.356,0.3566,0.3231,0.205,0.1157,0.0491,-0.1338,-0.0673,-0.0449,0.1064,0.3083,0.3511,0.4436,0.5862,0.6881,0.7534,0.7827,0.7747,0.7317,0.6517,0.5971,0.5747,0.5964,0.6367,0.6689,0.7028,0.7938,0.832,0.8283,0.8508,0.8626,0.8262,0.8259,0.8309,0.8146,0.7937,0.7331,0.6635,0.6722,0.5952,0.4229,0.334,0.3724,0.4271,0.4429,0.5082,0.645,0.7208,0.7166,0.6072,0.7362,0.6426,0.3872,0.4308,0.4003,0.2444,0.0612,-0.1173,-0.2463,-0.3023,-0.3026,-0.2638,-0.1963,-0.1626,-0.1289,-0.1064,-0.0895,-0.0896,-0.0559,-0.1116,-0.195,-0.3058,-0.4158,-0.6027,-0.7222,-0.7975,-0.8672,-0.8715,-0.8597,-0.8333,-0.7969,-0.7393,-0.6915,-0.6436,-0.6223,-0.5595,-0.4954,-0.4504,-0.4185,-0.3999,-0.3821,-0.4142,-0.5095,-0.6027,-0.55,-0.5491,-0.6489,-0.7812,-0.8484,-0.7916,-0.7245,-0.6666,-0.5673,-0.4895,-0.3641,-0.2436,-0.161,-0.1002,-0.117,-0.1339,-0.0279,0.1004,0.1172,0.1451,0.1505,0.1672,0.19,0.1451,0.0278,-0.138,-0.2633,-0.1144,-0.0,-0.0,0.0784,0.2069,0.3118,0.4166,0.521,0.618,0.6725,0.684,0.7047,0.6392,0.4924,0.3676,0.3405,0.3952,0.4927,0.5577,0.6032,0.7227,0.7714,0.7458,0.7667,0.7937,0.7833,0.7732,0.7563,0.7503,0.723,0.6463,0.5655,0.5456,0.4688,0.2893,0.1892,0.278,0.3657,0.326,0.3802,0.5398,0.5901,0.5664,0.5215,0.4387,0.2903,0.0766,0.0881,0.0498,-0.061,-0.2173,-0.2909,-0.2857,-0.2968,-0.2854,-0.2744,-0.2575,-0.246,-0.1847,-0.1513,-0.1569,-0.1737,-0.1847,-0.2348,-0.3177,-0.3992,-0.5188,-0.6988,-0.8231,-0.9082,-0.9618,-1.0131,-1.0064,-0.9688,-0.9214,-0.8541,-0.7957,-0.7794,-0.7629,-0.743,-0.6703,-0.6085,-0.5607,-0.5485,-0.5416,-0.586,-0.6411,-0.7343,-0.794,-0.7744,-0.757,-0.8676,-0.9173,-0.8656,-0.8056,-0.7537,-0.7171,-0.6609,-0.5301,-0.4045,-0.3219,-0.2504,-0.2685,-0.252,-0.1512,-0.0616,-0.0056,0.0112,-0.0168,-0.0,0.0503,-0.0279,-0.1505,-0.3331,-0.5475,-0.1711,-0.0,-0.0,0.028,0.1008,0.2799,0.3852,0.4276,0.4707,0.5309,0.5864,0.6088,0.4814,0.283,0.2343,0.2623,0.2895,0.383,0.4771,0.5494,0.6586,0.7182,0.7402,0.7673,0.7836,0.7616,0.7563,0.7345,0.7074,0.6915,0.6372,0.5062,0.4792,0.3503,0.1391,-0.0167,0.0111,0.0886,0.1603,0.2431,0.3476,0.3864,0.3754,0.342,0.2093,0.0055,-0.1874,-0.3374,-0.365,-0.4378,-0.5109,-0.5391,-0.534,-0.5179,-0.4736,-0.3783,-0.3792,-0.3239,-0.2126,-0.1791,-0.1904,-0.2242,-0.2688,-0.3465,-0.4515,-0.5269,-0.6065,-0.7483,-0.86,-0.9447,-1.0075,-1.0442,-1.049,-1.0324,-1.0202,-0.9585,-0.9016,-0.8964,-0.8803,-0.8659,-0.8402,-0.7744,-0.7304,-0.7405,-0.7452,-0.7723,-0.8047,-0.859,-0.9138,-0.9235,-0.9124,-0.9194,-0.9409,-0.9291,-0.8643,-0.8115,-0.7946,-0.734,-0.6091,-0.4995,-0.4393,-0.4015,-0.3638,-0.3198,-0.2299,-0.1568,-0.1062,-0.1118,-0.1343,-0.1062,-0.0726,-0.1724,-0.2991,-0.6016,-0.7836,-0.2294,-0.0729,-0.0224,-0.0,-0.0,0.191,0.2688,0.295,0.3058,0.3666,0.4273,0.4168,0.2723,0.117,0.1506,0.1786,0.1726,0.3002,0.4393,0.5441,0.6147,0.6743,0.7235,0.7726,0.7836,0.7667,0.7883,0.761,0.7343,0.7079,0.6537,0.4734,0.4055,0.2552,0.0111,-0.1452,-0.1675,-0.0445,0.0278,0.0943,0.155,0.1603,0.1495,0.0997,-0.0055,-0.1767,-0.399,-0.5281,-0.5943,-0.6418,-0.6303,-0.6473,-0.6753,-0.6376,-0.5878,-0.5202,-0.5042,-0.4599,-0.3663,-0.3059,-0.2458,-0.274,-0.3462,-0.4789,-0.6112,-0.6652,-0.7111,-0.8168,-0.9465,-1.0035,-1.0379,-1.0799,-1.1049,-1.1099,-1.0939,-1.0375,-0.9913,-0.9803,-0.9592,-0.9235,-0.919,-0.9357,-0.9075,-0.934,-0.9496,-0.9647,-0.9854,-0.995,-1.0016,-1.0142,-0.9991,-0.9681,-0.9312,-0.919,-0.8678,-0.8317,-0.8312,-0.7851,-0.6596,-0.5843,-0.524,-0.4184,-0.3244,-0.2913,-0.2524,-0.1961,-0.1063,-0.1791,-0.2409,-0.2294,-0.2343,-0.2985,-0.462,-0.7759,-0.9683,-0.2685,-0.2636,-0.0784,-0.0,-0.0,-0.0112,0.0392,0.1172,0.1563,0.1843,0.2007,0.1507,0.1115,0.0279,0.0168,0.0392,0.0616,0.2118,0.4007,0.5572,0.6465,0.6537,0.6912,0.7241,0.7518,0.7568,0.7836,0.7987,0.7981,0.7732,0.6576,0.4875,0.4154,0.2213,0.0388,-0.1059,-0.1846,-0.1116,-0.078,-0.0945,-0.0721,-0.072,-0.0776,-0.1055,-0.1833,-0.2831,-0.3821,-0.5046,-0.6152,-0.6897,-0.6891,-0.694,-0.7219,-0.7165,-0.6827,-0.6604,-0.6526,-0.635,-0.596,-0.4751,-0.4179,-0.4343,-0.4876,-0.6072,-0.7857,-0.7502,-0.7954,-0.8992,-1.0198,-1.1006,-1.139,-1.1773,-1.1764,-1.1714,-1.1456,-1.1091,-1.0681,-1.0478,-1.0269,-0.9858,-0.9821,-0.9888,-1.0154,-1.0205,-1.019,-1.0285,-1.0226,-1.032,-1.0293,-1.0364,-1.0265,-0.9903,-0.9278,-0.8879,-0.839,-0.8146,-0.8037,-0.7613,-0.6635,-0.6287,-0.5986,-0.4752,-0.3129,-0.2405,-0.2016,-0.1567,-0.1456,-0.2073,-0.2747,-0.3365,-0.3964,-0.4689,-0.6173,-0.8944,-1.0406,-0.2406,-0.2071,-0.1848,-0.112,-0.0056,-0.0505,-0.0504,-0.0112,0.0503,0.0782,0.0782,0.0671,-0.0,-0.1006,-0.1794,-0.1346,-0.028,0.0723,0.2663,0.4276,0.5216,0.5767,0.6258,0.6642,0.7031,0.7179,0.7613,0.8052,0.8103,0.7709,0.7628,0.6468,0.5083,0.4042,0.2381,0.0111,-0.1002,-0.1838,-0.2109,-0.2655,-0.3894,-0.3321,-0.3208,-0.3557,-0.3288,-0.3898,-0.4615,-0.5504,-0.6603,-0.7416,-0.7498,-0.7694,-0.7944,-0.815,-0.8255,-0.819,-0.8365,-0.8537,-0.7936,-0.6381,-0.4901,-0.5085,-0.5543,-0.6895,-0.9351,-0.895,-0.9006,-0.9879,-1.0714,-1.1306,-1.149,-1.1823,-1.2076,-1.2076,-1.1918,-1.1551,-1.1296,-1.1044,-1.069,-1.0226,-1.0201,-1.0225,-1.0542,-1.0853,-1.0832,-1.0867,-1.0753,-1.0647,-1.0612,-1.0368,-1.0162,-0.9899,-0.9222,-0.889,-0.8456,-0.8103,-0.7765,-0.7222,-0.6676,-0.628,-0.5927,-0.4689,-0.3238,-0.2402,-0.1734,-0.1511,-0.1735,-0.2353,-0.2971,-0.3475,-0.4888,-0.6428,-0.8261,-1.0312,-1.1107,-0.2625,-0.2178,-0.2571,-0.1901,-0.0672,-0.1233,-0.1514,-0.1401,-0.0894,-0.0613,-0.0558,-0.0335,-0.0894,-0.224,-0.2468,-0.2469,-0.1117,-0.0056,0.1333,0.2721,0.3946,0.4721,0.5166,0.5605,0.593,0.6234,0.6673,0.7004,0.6432,0.6506,0.7157,0.73,0.6409,0.458,0.4774,0.1993,-0.0277,-0.177,-0.2926,-0.4239,-0.5723,-0.5534,-0.4805,-0.4944,-0.4563,-0.4455,-0.4946,-0.5662,-0.6709,-0.7628,-0.815,-0.8439,-0.8898,-0.9363,-0.9843,-1.0179,-1.0394,-1.0647,-0.9868,-0.7756,-0.6315,-0.7208,-0.7949,-0.9224,-1.0131,-1.0178,-1.0084,-1.0716,-1.1057,-1.1167,-1.1473,-1.1923,-1.2126,-1.2076,-1.2076,-1.1814,-1.156,-1.1309,-1.0952,-1.0545,-1.0573,-1.0652,-1.0942,-1.1247,-1.1486,-1.1423,-1.1217,-1.0998,-1.074,-1.0395,-0.9784,-0.9524,-0.9106,-0.8869,-0.8685,-0.8175,-0.7762,-0.743,-0.6786,-0.5993,-0.535,-0.4236,-0.3519,-0.2968,-0.2353,-0.179,-0.1902,-0.2463,-0.2967,-0.3526,-0.4828,-0.6046,-0.9992,-1.1795,-1.2053,-0.3507,-0.3456,-0.2559,-0.2061,-0.19,-0.2635,-0.2915,-0.2857,-0.2625,-0.2565,-0.2453,-0.2011,-0.2178,-0.2738,-0.2292,-0.2013,-0.1958,-0.0558,0.0781,0.1838,0.2285,0.3119,0.3898,0.4393,0.4268,0.3926,0.4401,0.4579,0.3708,0.3224,0.5047,0.6,0.4118,0.35,0.6804,0.4169,0.1105,-0.1537,-0.3023,-0.4882,-0.6264,-0.6709,-0.6394,-0.5742,-0.5152,-0.488,-0.4709,-0.5382,-0.6428,-0.7509,-0.814,-0.8462,-0.8754,-0.9824,-1.0901,-1.2203,-1.2084,-1.2425,-1.2806,-0.9508,-0.9105,-0.9938,-1.0444,-1.1315,-1.1293,-1.1053,-1.1032,-1.1697,-1.1606,-1.1669,-1.1873,-1.2121,-1.2175,-1.2076,-1.2076,-1.2026,-1.1769,-1.1469,-1.1112,-1.0799,-1.0887,-1.1018,-1.1293,-1.1632,-1.2026,-1.2022,-1.1723,-1.141,-1.099,-1.0364,-0.9707,-0.9524,-0.9263,-0.9194,-0.8911,-0.8178,-0.7706,-0.7427,-0.6942,-0.6095,-0.512,-0.4127,-0.3579,-0.3311,-0.2805,-0.2073,-0.2182,-0.246,-0.3395,-0.4247,-0.3918,-0.5574,-0.985,-1.2962,-1.3132,-0.3738,-0.3738,-0.3562,-0.3452,-0.3457,-0.391,-0.3968,-0.379,-0.3891,-0.3998,-0.4001,-0.3557,-0.3282,-0.3284,-0.2788,-0.2344,-0.2014,-0.1622,-0.0279,0.0224,0.0615,0.1228,0.1951,0.2338,0.2332,0.2592,0.2847,0.2271,0.1432,0.0479,0.1262,0.2203,0.1173,0.1787,0.3865,0.2717,-0.0495,-0.3011,-0.4789,-0.6334,-0.7609,-0.8184,-0.8035,-0.6945,-0.5932,-0.5066,-0.4518,-0.5416,-0.6421,-0.7456,-0.809,-0.8282,-0.8892,-0.9999,-1.1597,-1.2852,-1.312,-1.4116,-1.4691,-1.3492,-1.2711,-1.2618,-1.2164,-1.24,-1.2321,-1.1945,-1.2143,-1.2339,-1.2192,-1.226,-1.248,-1.2529,-1.248,-1.2175,-1.2076,-1.2076,-1.1873,-1.1573,-1.1217,-1.1053,-1.1019,-1.1589,-1.1954,-1.1909,-1.2194,-1.2234,-1.1932,-1.1573,-1.1154,-1.0348,-0.9625,-0.9725,-0.9636,-0.9517,-0.9246,-0.8662,-0.8128,-0.78,-0.7042,-0.6077,-0.5101,-0.4068,-0.3129,-0.2576,-0.2466,-0.2411,-0.2681,-0.3111,-0.4458,-0.5085,-0.5452,-0.6798,-1.081,-1.3288,-1.3956,-0.4458,-0.4294,-0.4625,-0.473,-0.4785,-0.4959,-0.4899,-0.4835,-0.4876,-0.5042,-0.5046,-0.4493,-0.4113,-0.3895,-0.3453,-0.2789,-0.2183,-0.1847,-0.1287,-0.0897,-0.0505,-0.0,0.0224,0.0335,0.0557,0.0774,0.0275,-0.0436,-0.1187,-0.2078,-0.2221,-0.2323,-0.2706,-0.1511,0.0164,-0.06,-0.1949,-0.4354,-0.6288,-0.7945,-0.9383,-1.0089,-0.98,-0.8744,-0.7635,-0.6572,-0.5947,-0.6147,-0.6956,-0.7818,-0.8268,-0.8459,-0.9351,-1.0647,-1.2253,-1.3537,-1.456,-1.5266,-1.5408,-1.5284,-1.4176,-1.3588,-1.2898,-1.2614,-1.2716,-1.2241,-1.2447,-1.2642,-1.273,-1.2793,-1.2871,-1.2822,-1.272,-1.2412,-1.2363,-1.2412,-1.2358,-1.2053,-1.1805,-1.1588,-1.1296,-1.1872,-1.235,-1.2313,-1.2275,-1.2158,-1.2045,-1.1628,-1.1217,-1.0419,-0.9681,-0.9718,-0.9795,-0.9732,-0.9621,-0.9357,-0.8764,-0.8168,-0.7149,-0.6023,-0.5099,-0.4067,-0.2956,-0.1901,-0.1736,-0.1958,-0.2946,-0.3864,-0.5185,-0.6807,-0.8149,-0.9949,-1.239,-1.3352,-1.4127,-0.5618,-0.5236,-0.5626,-0.5786,-0.5773,-0.5725,-0.5887,-0.6204,-0.5867,-0.5814,-0.5882,-0.5046,-0.4778,-0.4624,-0.3958,-0.3183,-0.2519,-0.2239,-0.1624,-0.1065,-0.0897,-0.0785,-0.0617,-0.0392,-0.067,-0.162,-0.2282,-0.2651,-0.3778,-0.4912,-0.5866,-0.5975,-0.463,-0.4115,-0.3624,-0.3538,-0.4251,-0.6236,-0.8081,-0.998,-1.1826,-1.2176,-1.1727,-1.0904,-1.0192,-0.9434,-0.8933,-0.8875,-0.9054,-0.9482,-0.9851,-0.9872,-1.0454,-1.1656,-1.3333,-1.4817,-1.5786,-1.5836,-1.5472,-1.5236,-1.4701,-1.3963,-1.3188,-1.2822,-1.2592,-1.2475,-1.2632,-1.2813,-1.2939,-1.304,-1.3094,-1.3094,-1.3089,-1.2992,-1.2944,-1.2939,-1.2977,-1.2774,-1.2574,-1.2223,-1.1674,-1.1828,-1.2122,-1.2168,-1.1968,-1.1796,-1.1628,-1.1372,-1.0964,-1.0522,-0.9936,-0.9777,-0.9795,-0.984,-0.9732,-0.9469,-0.8935,-0.8184,-0.7004,-0.5928,-0.4999,-0.4065,-0.2957,-0.1957,-0.1175,-0.1505,-0.2814,-0.4365,-0.5993,-0.771,-0.9724,-1.0997,-1.2735,-1.3175,-1.3703,-0.5391,-0.5336,-0.5946,-0.6218,-0.6324,-0.6758,-0.7139,-0.7408,-0.7765,-0.7877,-0.7461,-0.6519,-0.5982,-0.5934,-0.4565,-0.363,-0.2964,-0.2408,-0.1906,-0.1514,-0.1291,-0.1234,-0.1178,-0.1234,-0.1736,-0.2456,-0.3341,-0.4276,-0.5729,-0.7079,-0.772,-0.784,-0.5928,-0.5988,-0.6555,-0.668,-0.7485,-0.8541,-1.027,-1.2243,-1.3685,-1.4111,-1.3696,-1.3366,-1.2735,-1.2092,-1.1771,-1.111,-1.1132,-1.1509,-1.0853,-1.0564,-1.0933,-1.1504,-1.261,-1.561,-1.6396,-1.6614,-1.5728,-1.4298,-1.3617,-1.3654,-1.2393,-1.2234,-1.2337,-1.2553,-1.2553,-1.2774,-1.3142,-1.3291,-1.3407,-1.3412,-1.3428,-1.3395,-1.3278,-1.3142,-1.3132,-1.2967,-1.2769,-1.2388,-1.1886,-1.1543,-1.1831,-1.174,-1.1541,-1.1322,-1.1108,-1.0909,-1.0765,-1.0324,-1.0066,-0.9851,-0.9692,-0.9684,-0.958,-0.9372,-0.8735,-0.8037,-0.6851,-0.5662,-0.4679,-0.3739,-0.285,-0.2292,-0.1901,-0.2213,-0.3002,-0.4746,-0.6796,-0.8984,-1.0977,-1.1935,-1.2793,-1.318,-1.3483,-0.5828,-0.5721,-0.6379,-0.6763,-0.6923,-0.7619,-0.8049,-0.8262,-0.8586,-0.8586,-0.8265,-0.7289,-0.6748,-0.6312,-0.5062,-0.3965,-0.3077,-0.2854,-0.2353,-0.1684,-0.1684,-0.1572,-0.1572,-0.1962,-0.2406,-0.3067,-0.3782,-0.4663,-0.623,-0.736,-0.8056,-0.8311,-0.6602,-0.7648,-0.8782,-0.9861,-1.0765,-1.178,-1.3045,-1.4677,-1.5489,-1.604,-1.6076,-1.5709,-1.5071,-1.4841,-1.4456,-1.3654,-1.3561,-1.3758,-1.2867,-1.2479,-1.2868,-1.3193,-1.3917,-1.6522,-1.6844,-1.654,-1.5629,-1.4147,-1.3684,-1.2993,-1.1525,-1.0679,-1.1019,-1.1382,-1.1976,-1.255,-1.3142,-1.3594,-1.3677,-1.3809,-1.3745,-1.3728,-1.3517,-1.3258,-1.3137,-1.3021,-1.2686,-1.2363,-1.1959,-1.1497,-1.1309,-1.1217,-1.1019,-1.0808,-1.06,-1.0446,-1.0364,-1.0284,-1.0018,-0.9795,-0.9584,-0.9424,-0.9267,-0.8886,-0.8019,-0.7267,-0.6411,-0.5277,-0.4353,-0.3465,-0.2627,-0.2682,-0.2905,-0.3193,-0.3354,-0.5665,-0.7816,-1.0174,-1.194,-1.2507,-1.2982,-1.3079,-1.3339,-0.6647,-0.6109,-0.6815,-0.7246,-0.7622,-0.8203,-0.8521,-0.8626,-0.858,-0.853,-0.8468,-0.7613,-0.6961,-0.6468,-0.522,-0.4127,-0.3352,-0.2964,-0.2409,-0.1684,-0.1796,-0.1851,-0.224,-0.2631,-0.3016,-0.3405,-0.3958,-0.4835,-0.5338,-0.6418,-0.7436,-0.8084,-0.9005,-0.9732,-1.0355,-1.2325,-1.3413,-1.4529,-1.5435,-1.6604,-1.7605,-1.8256,-1.8511,-1.804,-1.7763,-1.7625,-1.719,-1.6708,-1.6266,-1.6163,-1.5775,-1.5118,-1.5051,-1.5652,-1.6565,-1.6886,-1.7083,-1.6472,-1.5457,-1.4068,-1.317,-1.2294,-1.0945,-0.9548,-0.9504,-1.0574,-1.1443,-1.203,-1.2565,-1.3296,-1.3534,-1.3561,-1.3529,-1.3501,-1.338,-1.3243,-1.3132,-1.2817,-1.2267,-1.1886,-1.1547,-1.1137,-1.085,-1.0765,-1.0777,-1.0403,-1.0245,-1.0095,-1.0102,-1.0181,-0.9966,-0.9736,-0.9284,-0.8964,-0.8659,-0.8168,-0.7034,-0.623,-0.5534,-0.4944,-0.3965,-0.3184,-0.2347,-0.268,-0.3121,-0.3329,-0.3967,-0.6574,-0.931,-1.1876,-1.3215,-1.3127,-1.3107,-1.2754,-1.3092,-0.6475,-0.6362,-0.7082,-0.7577,-0.7791,-0.8002,-0.8421,-0.9001,-0.89,-0.8896,-0.8837,-0.8028,-0.7385,-0.6899,-0.4995,-0.3904,-0.3573,-0.2796,-0.2241,-0.2074,-0.2074,-0.2351,-0.2847,-0.3183,-0.3624,-0.4233,-0.4675,-0.5062,-0.5559,-0.6157,-0.675,-0.7661,-0.884,-0.9773,-1.1477,-1.3556,-1.5061,-1.6565,-1.7344,-1.8094,-1.9053,-1.9295,-1.9368,-1.9488,-1.9592,-1.9336,-1.8906,-1.8562,-1.8156,-1.7889,-1.716,-1.6369,-1.5617,-1.6606,-1.7057,-1.717,-1.7111,-1.6367,-1.5231,-1.3799,-1.2546,-1.1296,-0.9936,-0.8629,-0.8456,-0.9858,-1.0799,-1.1366,-1.2061,-1.2798,-1.3326,-1.3344,-1.3256,-1.3228,-1.32,-1.3137,-1.3079,-1.2467,-1.1805,-1.1412,-1.1078,-1.0791,-1.0498,-1.0407,-1.0419,-1.0368,-1.0312,-1.0205,-1.0146,-1.0158,-0.9895,-0.9555,-0.8867,-0.8492,-0.8137,-0.7466,-0.644,-0.5352,-0.4597,-0.4061,-0.3577,-0.2963,-0.2405,-0.2845,-0.3272,-0.4068,-0.5584,-0.8154,-1.087,-1.2416,-1.3507,-1.3014,-1.1927,-1.131,-1.2142,-0.7017,-0.6969,-0.7357,-0.7631,-0.7848,-0.7791,-0.8209,-0.884,-0.884,-0.8844,-0.884,-0.8184,-0.7646,-0.7117,-0.505,-0.3904,-0.3684,-0.2739,-0.224,-0.2129,-0.2464,-0.274,-0.3183,-0.3792,-0.4241,-0.4796,-0.5132,-0.5464,-0.5727,-0.6159,-0.675,-0.7593,-0.8498,-1.0121,-1.2294,-1.4052,-1.596,-1.785,-1.8632,-1.9514,-2.0281,-2.0369,-2.0544,-2.0871,-2.083,-2.0569,-2.0207,-1.9783,-1.9259,-1.8584,-1.7693,-1.7075,-1.658,-1.6899,-1.7099,-1.705,-1.6779,-1.6299,-1.492,-1.3397,-1.1679,-1.03,-0.9295,-0.8168,-0.8389,-0.9573,-0.9825,-1.0403,-1.1579,-1.2363,-1.3032,-1.3183,-1.2793,-1.2618,-1.2691,-1.2701,-1.2407,-1.1909,-1.1379,-1.0956,-1.0622,-1.0395,-1.0253,-1.0411,-1.0368,-1.028,-1.0221,-1.011,-1.0102,-1.0135,-0.9869,-0.9547,-0.8916,-0.7918,-0.712,-0.6574,-0.5855,-0.4816,-0.3883,-0.3399,-0.3132,-0.2742,-0.2519,-0.2957,-0.4025,-0.5878,-0.7701,-0.9688,-0.9267,-0.9623,-1.1223,-1.2629,-1.1219,-0.9608,-0.9566,-0.7684,-0.7521,-0.7464,-0.7574,-0.7738,-0.7631,-0.7883,-0.8464,-0.857,-0.8521,-0.8464,-0.8134,-0.7545,-0.6686,-0.5437,-0.4565,-0.3684,-0.2684,-0.2184,-0.2408,-0.2745,-0.3241,-0.3852,-0.4411,-0.4855,-0.5189,-0.5523,-0.546,-0.5393,-0.6209,-0.7117,-0.7835,-0.9268,-1.0956,-1.2872,-1.485,-1.6818,-1.8532,-1.9706,-2.0791,-2.125,-2.1413,-2.1497,-2.1625,-2.1663,-2.1362,-2.0967,-2.0364,-1.9724,-1.8643,-1.7585,-1.6996,-1.6631,-1.6602,-1.6702,-1.6615,-1.6151,-1.5478,-1.4479,-1.2928,-1.1105,-0.9573,-0.8787,-0.8464,-0.8629,-0.8945,-0.9194,-0.9699,-1.0825,-1.1819,-1.2433,-1.2802,-1.2358,-1.212,-1.2246,-1.2116,-1.1678,-1.128,-1.0846,-1.0407,-1.0171,-0.9943,-0.9943,-1.015,-1.0269,-1.0177,-1.0074,-0.9914,-0.9847,-0.9917,-0.9847,-0.964,-0.9252,-0.8035,-0.6953,-0.6131,-0.5751,-0.4986,-0.4163,-0.3345,-0.2741,-0.2632,-0.2685,-0.2955,-0.4338,-0.6053,-0.8446,-1.0528,-0.9553,-0.7476,-0.7859,-0.9131,-0.8686,-0.7208,-0.6332,-0.7735,-0.7464,-0.7303,-0.7195,-0.73,-0.7408,-0.7774,-0.8187,-0.8514,-0.8359,-0.7987,-0.7711,-0.7334,-0.6802,-0.4941,-0.4012,-0.385,-0.2795,-0.285,-0.3239,-0.324,-0.3795,-0.4457,-0.5009,-0.5348,-0.5624,-0.5845,-0.5891,-0.5932,-0.6853,-0.7658,-0.8215,-1.0156,-1.1905,-1.3531,-1.5654,-1.7925,-1.9573,-2.079,-2.1852,-2.2324,-2.2303,-2.1895,-2.1828,-2.1702,-2.1507,-2.1095,-2.0272,-1.9476,-1.8338,-1.6841,-1.6231,-1.5923,-1.5683,-1.559,-1.5751,-1.5284,-1.4617,-1.3547,-1.2388,-1.0709,-0.9764,-0.9006,-0.8227,-0.8504,-0.884,-0.8879,-0.8705,-0.9729,-1.0864,-1.156,-1.2008,-1.1859,-1.1886,-1.1963,-1.1418,-1.0926,-1.0514,-1.0091,-0.9769,-0.9562,-0.9312,-0.9155,-0.9528,-1.007,-1.0022,-1.0118,-1.001,-1.0169,-1.0024,-0.9832,-0.9629,-0.9374,-0.9235,-0.8537,-0.6747,-0.5971,-0.5204,-0.4388,-0.3569,-0.302,-0.2799,-0.2852,-0.3178,-0.4094,-0.5623,-0.8081,-1.0499,-0.8222,-0.6154,-0.4982,-0.4952,-0.5052,-0.4968,-0.428]},{"header":{"parameterUnit":"m.s-1","parameterCategory":1,"la1":31.0,"la2":29.5877,"lo1":-88.7671,"lo2":-86.6584,"dy":0.0162,"dx":0.0185,"nx":115,"ny":88,"refTime":"2024-07-17T18:00:00:Z","depth":0,"parameterNumber":3,"parameterNumberName":"V-component_of_WINDS"},"data":[0.0,0.0,0.0,0.0,0.0,0.0,0.0,0.0,0.0,0.0,0.0,0.0,0.0,0.0,0.0,0.0,0.0,0.0,0.0,0.0,0.0,0.0,0.0,0.0,0.0,0.0,0.0,0.0,0.0,0.0,0.0,0.0,0.0,0.0,0.0,0.0,0.0,0.0,0.0,0.0,0.0,0.0,0.0,0.0,0.0,0.0,0.0,0.0,0.0,0.0,0.0,0.0,0.0,0.0,0.0,0.0,0.0,0.0,0.0,0.0,0.0,0.0,0.0,0.0,0.0,0.0,0.0,0.0,0.0,0.0,0.0,0.0,0.0,0.0,0.0,0.0,0.0,0.0,0.0,0.0,0.0,0.0,0.0,0.0,0.0,0.0,0.0,0.0,0.0,0.0,0.0,0.0,0.0,0.0,0.0,0.0,0.0,0.0,0.0,0.0,0.0,0.0,0.0,0.0,0.0,0.0,0.0,0.0,0.0,0.0,0.0,0.0,0.0,0.0,0.0,0.0,0.0,0.0,0.0,0.0,0.0,0.0,0.0,0.0,0.0,0.0,0.0,0.0,0.0,0.0,0.0,0.0,0.0,0.0,0.0,0.0,0.0,0.0,0.0,0.0,0.0,0.0,0.0,0.0,0.0,0.0,0.0,0.0,0.0,0.0,0.0,0.0,0.0,0.0,0.0,0.0,0.0,0.0,0.0,0.0,0.0,0.0,0.0,0.0,0.0,0.0,0.0,0.0,0.0,0.0,0.0,0.0,0.0,0.0,0.0,0.0,0.0,0.0,0.0,0.0,0.0,0.0,0.0,0.0,0.0,0.0,0.0,0.0,0.0,0.0,0.0,0.0,0.0,0.0,0.0,0.0,0.0,0.0,0.0,0.0,0.0,0.0,0.0,0.0,0.0,0.0,0.0,0.0,0.0,0.0,0.0,0.0,0.0,0.0,0.0,0.0,0.0,0.0,0.0,0.0,0.0,0.0,0.0,0.0,0.0,0.0,0.0,0.0,0.0,0.0,0.0,0.0,0.0,0.0,0.0,0.0,0.0,0.0,0.0,0.0,0.0,0.0,0.0,0.0,0.0,0.0,0.0,0.0,0.0,0.0,0.0,0.0,0.0,0.0,0.0,0.0,0.0,0.0,0.0,0.0,0.0,0.0,0.0,0.0,0.0,0.0,0.0,0.0,0.0,0.0,0.0,0.0,0.0,0.0,0.0,0.0,0.0,0.0,0.0,0.0,0.0,0.0,0.0,0.0,0.0,0.0,0.0,0.0,0.0,0.0,0.0,0.0,0.0,0.0,0.0,0.0,0.0,0.0,0.0,0.0,0.0,0.0,0.0,0.0,0.0,0.0,0.0,0.0,0.0,0.0,0.0,0.0,0.0,0.0,0.0,0.0,0.0,0.0,0.0,0.0,0.0,0.0,0.0,0.0,0.0,0.0,0.0,0.0,0.0,0.0,0.0,0.0,0.0,0.0,0.0,0.0,0.0,0.0,0.0,0.0,0.0,0.0,0.0,0.0,0.0,0.0,0.0,0.0,0.0,0.0,0.0,0.0,0.0,0.0,0.0,0.0,0.0,0.0,0.0,0.0,0.0,0.0,0.0,0.0,0.0,0.0,0.0,0.0,0.0,0.0,0.0,0.0,0.0,0.0,0.0,0.0,0.0,0.0,0.0,0.0,0.0,0.0,0.0,0.0,0.0,0.0,0.0,0.0,0.0,0.0,0.0,0.0,0.0,0.0,0.0,0.0,0.0,0.0,0.0,0.0,0.0,0.0,0.0,0.0,0.0,0.0,0.0,0.0,0.0,0.0,0.0,0.0,0.0,0.0,0.0,0.0,0.0,0.0,0.0,0.0,0.0,0.0,0.0,0.0,0.0,0.0,0.0,0.0,0.0,0.0,0.0,0.0,0.0,0.0,0.0,0.0,0.0,0.0,0.0,0.0,0.0,0.0,0.0,0.0,0.0,0.0,0.0,0.0,0.0,0.0,0.0,0.0,0.0,0.0,0.0,0.0,0.0,0.0,0.0,0.0,0.0,0.0,0.0,0.0,0.0,0.0,0.0,0.0,0.0,0.0,0.0,0.0,0.0,0.0,0.0,0.0,0.0,0.0,0.0,0.0,0.0,0.0,0.0,0.0,0.0,0.0,0.0,0.0,0.0,0.0,0.0,0.0,0.0,0.0,0.0,0.0,0.0,0.0,0.0,0.0,0.0,0.0,0.0,0.0,0.0,0.0,0.0,0.0,0.0,0.0,0.0,0.0,0.0,0.0,0.0,0.0,0.0,0.0,0.0,0.0,0.0,0.0,0.0,0.0,0.0,0.0,0.0,0.0,0.0,0.0,0.0,0.0,0.0,0.0,0.0,0.0,0.0,0.0,0.0,0.0,0.0,0.0,0.0,0.0,0.0,0.0,0.0,0.0,0.0,0.0,0.0,0.0,0.0,0.0,0.0,0.0,0.0,0.0,0.0,0.0,0.0,0.0,0.0,0.0,0.0,0.0,0.0,0.0,0.0,0.0,0.0,0.0,0.0,0.0,0.0,0.0,0.0,0.0,0.0,0.0,0.0,0.0,0.0,0.0,0.0,0.0,0.0,0.0,0.0,0.0,0.0,0.0,0.0,0.0,0.0,0.0,0.0,0.0,0.0,0.0,0.0,0.0,0.0,0.0,0.0,0.0,0.0,0.0,0.0,0.0,0.0,0.0,0.0,0.0,0.0,0.0,0.0,0.0,0.0,0.0,0.0,0.0,0.0,0.0,0.0,0.0,0.0,0.0,0.0,0.0,0.0,0.0,0.0,0.0,0.0,0.0,0.0,0.0,0.0,0.0,0.0,0.0,0.0,0.0,0.0,0.0,0.0,0.0,0.0,0.0,0.0,0.0,0.0,0.0,0.0,0.0,0.0,0.0,0.0,0.0,0.0,0.0,0.0,0.0,0.0,0.0,0.0,0.0,0.0,0.0,0.0,0.0,0.0,0.0,0.0,0.0,0.0,0.0,0.0,0.0,0.0,0.0,0.0,0.0,0.0,0.0,0.0,0.0,0.0,0.0,0.0,0.0,0.0,0.0,0.0,0.0,0.0,0.0,0.0,0.0,0.0,0.0,0.0,0.0,0.0,0.0,0.0,0.0,0.0,0.0,0.0,0.0,0.0,0.0,0.0,0.0,0.0,0.0,0.0,0.0,0.0,0.0,0.0,0.0,0.0,0.0,0.0,0.0,0.0,0.0,0.0,0.0,0.0,0.0,0.0,0.0,0.0,0.0,0.0,0.0,0.0,0.0,0.0,0.0,0.0,0.0,0.0,0.0,0.0,0.0,0.0,0.0,0.0,0.0,0.0,0.0,0.0,0.0,0.0,0.0,0.0,0.0,0.0,0.0,0.0,0.0,0.0,0.0,0.0,0.0,0.0,0.0,0.0,0.0,0.0,0.0,0.0,0.0,0.0,0.0,0.0,0.0,0.0,0.0,0.0,0.0,0.0,0.0,0.0,0.0,0.0,0.0,0.0,0.0,0.0,0.0,0.0,0.0,0.0,0.0,0.0,0.0,0.0,0.0,0.0,0.0,0.0,0.0,0.0,0.0,0.0,0.0,0.0,0.0,0.0,0.0,0.0,0.0,0.0,0.0,0.0,0.0,0.0,0.0,0.0,0.0,0.0,0.0,0.0,0.0,0.0,0.0,0.0,0.0,0.0,0.0,0.0,0.0,0.0,0.0,0.0,0.0,0.0,0.0,0.0,0.0,0.0,0.0,0.0,0.0,0.0,0.0,0.0,0.0,0.0,0.0,0.0,0.0,0.0,0.0,0.0,0.0,0.0,0.0,0.0,0.0,0.0,0.0,0.0,0.0,0.0,0.0,0.0,0.0,0.0,0.0,0.0,0.0,0.0,0.0,0.0,0.0,0.0,0.0,0.0,0.0,0.0,0.0,0.0,0.0,0.0,0.0,0.0,0.0,0.0,0.0,0.0,0.0,0.0,0.0,0.0,0.0,0.0,0.0,0.0,0.0,0.0,0.0,0.0,0.0,0.0,0.0,0.0,0.0,0.0,0.0,0.0,0.0,0.0,0.0,0.0,0.0,0.0,0.0,0.0,0.0,0.0,0.0,0.0,0.0,0.0,0.0,0.0,0.0,0.0,0.0,0.0,0.0,0.0,0.0,0.0,0.0,0.0,0.0,0.0,0.0,0.0,0.0,0.0,0.0,0.0,0.0,0.0,0.0,0.0,0.0,0.0,0.0,0.0,0.0,0.0,0.0,0.0,0.0,0.0,0.0,-1.9155,0.0,0.0,0.0,0.0,0.0,0.0,0.0,0.0,0.0,0.0,0.0,0.0,0.0,0.0,0.0,0.0,0.0,0.0,0.0,0.0,0.0,0.0,0.0,0.0,0.0,0.0,0.0,0.0,0.0,0.0,0.0,0.0,0.0,0.0,0.0,0.0,0.0,0.0,0.0,0.0,0.0,0.0,0.0,0.0,0.0,0.0,0.0,0.0,0.0,0.0,0.0,0.0,0.0,0.0,0.0,0.0,0.0,0.0,0.0,0.0,0.0,0.0,0.0,0.0,0.0,0.0,0.0,0.0,0.0,0.0,0.0,0.0,0.0,0.0,0.0,0.0,0.0,0.0,0.0,0.0,0.0,0.0,0.0,0.0,0.0,0.0,0.0,0.0,0.0,0.0,0.0,0.0,0.0,0.0,0.0,0.0,0.0,0.0,0.0,0.0,0.0,0.0,0.0,0.0,0.0,0.0,0.0,0.0,0.0,0.0,-2.0445,-2.0459,-2.048,-1.99,-1.8641,0.0,0.0,0.0,0.0,0.0,0.0,0.0,0.0,0.0,0.0,0.0,0.0,0.0,0.0,0.0,0.0,0.0,0.0,0.0,0.0,0.0,0.0,0.0,0.0,0.0,0.0,0.0,0.0,0.0,0.0,0.0,0.0,0.0,0.0,0.0,0.0,0.0,0.0,0.0,0.0,0.0,0.0,0.0,0.0,0.0,0.0,0.0,0.0,0.0,0.0,0.0,0.0,0.0,0.0,0.0,0.0,0.0,0.0,0.0,0.0,0.0,0.0,0.0,0.0,0.0,0.0,0.0,0.0,0.0,0.0,0.0,0.0,0.0,0.0,0.0,0.0,0.0,0.0,0.0,0.0,0.0,0.0,0.0,0.0,0.0,0.0,0.0,0.0,0.0,0.0,0.0,0.0,0.0,0.0,0.0,0.0,0.0,0.0,0.0,0.0,0.0,0.0,0.0,0.0,0.0,0.0,0.0,0.0,0.0,0.0,0.0,0.0,-2.0805,-2.0006,-1.8379,0.0,0.0,0.0,0.0,0.0,0.0,0.0,0.0,0.0,0.0,0.0,0.0,0.0,0.0,0.0,0.0,0.0,0.0,0.0,0.0,0.0,0.0,0.0,0.0,0.0,0.0,0.0,0.0,0.0,0.0,0.0,0.0,0.0,0.0,0.0,0.0,0.0,0.0,0.0,0.0,0.0,0.0,0.0,0.0,0.0,0.0,0.0,0.0,0.0,0.0,0.0,0.0,0.0,0.0,0.0,0.0,0.0,0.0,0.0,0.0,0.0,0.0,0.0,0.0,0.0,0.0,0.0,0.0,0.0,0.0,0.0,0.0,0.0,0.0,0.0,0.0,0.0,0.0,0.0,0.0,0.0,0.0,0.0,0.0,0.0,0.0,0.0,0.0,0.0,0.0,0.0,0.0,0.0,0.0,0.0,0.0,0.0,0.0,0.0,0.0,0.0,0.0,0.0,0.0,0.0,0.0,0.0,0.0,0.0,0.0,-2.0878,-2.1664,-2.1672,0.0,-1.9327,0.0,0.0,0.0,0.0,0.0,0.0,0.0,0.0,0.0,0.0,0.0,0.0,0.0,0.0,0.0,0.0,0.0,0.0,0.0,0.0,0.0,0.0,0.0,0.0,0.0,0.0,0.0,0.0,0.0,0.0,0.0,0.0,0.0,0.0,0.0,0.0,0.0,0.0,0.0,0.0,0.0,0.0,0.0,0.0,0.0,0.0,0.0,0.0,0.0,0.0,0.0,0.0,0.0,0.0,0.0,0.0,0.0,0.0,0.0,0.0,0.0,0.0,0.0,0.0,0.0,0.0,0.0,0.0,0.0,0.0,0.0,0.0,0.0,0.0,0.0,0.0,0.0,0.0,0.0,0.0,0.0,0.0,0.0,0.0,0.0,0.0,0.0,0.0,0.0,0.0,0.0,0.0,0.0,0.0,0.0,0.0,0.0,0.0,0.0,0.0,0.0,0.0,0.0,0.0,0.0,0.0,0.0,0.0,0.0,0.0,-2.1439,-2.1786,-2.0836,-1.9994,0.0,0.0,0.0,0.0,0.0,0.0,0.0,0.0,0.0,0.0,0.0,0.0,0.0,0.0,0.0,0.0,0.0,0.0,0.0,0.0,0.0,0.0,0.0,0.0,0.0,0.0,0.0,0.0,0.0,0.0,0.0,0.0,0.0,0.0,0.0,0.0,0.0,0.0,0.0,0.0,0.0,0.0,0.0,0.0,0.0,0.0,0.0,0.0,0.0,0.0,0.0,0.0,0.0,0.0,0.0,0.0,0.0,0.0,0.0,0.0,0.0,0.0,0.0,0.0,0.0,0.0,0.0,0.0,0.0,0.0,0.0,0.0,0.0,0.0,0.0,0.0,0.0,0.0,0.0,0.0,0.0,0.0,0.0,0.0,0.0,0.0,0.0,0.0,0.0,0.0,0.0,0.0,0.0,0.0,0.0,0.0,0.0,0.0,0.0,0.0,0.0,0.0,0.0,0.0,0.0,0.0,0.0,0.0,0.0,0.0,-2.1611,-2.19,-2.2051,-2.0976,-2.0015,-1.9313,0.0,0.0,0.0,0.0,0.0,0.0,0.0,0.0,0.0,0.0,0.0,0.0,0.0,0.0,0.0,0.0,0.0,0.0,0.0,0.0,0.0,0.0,0.0,0.0,0.0,0.0,0.0,0.0,0.0,0.0,0.0,0.0,0.0,0.0,0.0,0.0,0.0,0.0,0.0,0.0,0.0,0.0,0.0,0.0,0.0,0.0,0.0,0.0,0.0,0.0,0.0,0.0,0.0,0.0,0.0,0.0,0.0,0.0,0.0,0.0,0.0,0.0,0.0,0.0,0.0,0.0,0.0,0.0,0.0,0.0,0.0,0.0,0.0,0.0,0.0,0.0,0.0,0.0,0.0,0.0,0.0,0.0,0.0,0.0,0.0,0.0,0.0,0.0,0.0,0.0,0.0,0.0,0.0,0.0,0.0,0.0,0.0,0.0,0.0,0.0,0.0,0.0,0.0,0.0,0.0,0.0,0.0,0.0,-2.2839,-2.2192,-2.2176,-2.2933,-2.292,-2.1788,0.0,0.0,0.0,0.0,0.0,0.0,0.0,0.0,0.0,0.0,0.0,0.0,0.0,0.0,0.0,0.0,0.0,0.0,0.0,0.0,0.0,0.0,0.0,0.0,0.0,0.0,0.0,0.0,0.0,0.0,0.0,0.0,0.0,0.0,0.0,0.0,0.0,0.0,0.0,0.0,0.0,0.0,0.0,0.0,0.0,0.0,0.0,0.0,0.0,0.0,0.0,0.0,0.0,0.0,0.0,0.0,0.0,0.0,0.0,0.0,0.0,0.0,0.0,0.0,0.0,0.0,0.0,0.0,0.0,0.0,0.0,0.0,0.0,0.0,0.0,0.0,0.0,0.0,0.0,0.0,0.0,0.0,0.0,0.0,0.0,0.0,0.0,0.0,0.0,0.0,0.0,0.0,0.0,0.0,0.0,0.0,0.0,0.0,0.0,0.0,0.0,0.0,0.0,0.0,0.0,0.0,0.0,0.0,0.0,-2.1399,-2.163,-2.2429,-2.3754,-2.1779,-2.043,0.0,0.0,0.0,0.0,0.0,0.0,0.0,0.0,0.0,0.0,0.0,0.0,0.0,0.0,0.0,0.0,0.0,0.0,0.0,0.0,0.0,0.0,0.0,0.0,0.0,0.0,0.0,0.0,0.0,0.0,0.0,0.0,0.0,0.0,0.0,0.0,0.0,0.0,0.0,0.0,0.0,0.0,0.0,0.0,0.0,0.0,0.0,0.0,0.0,0.0,0.0,0.0,0.0,0.0,0.0,0.0,0.0,0.0,0.0,0.0,0.0,0.0,0.0,0.0,0.0,0.0,0.0,0.0,0.0,0.0,0.0,0.0,0.0,0.0,0.0,0.0,0.0,0.0,0.0,0.0,0.0,0.0,0.0,0.0,0.0,0.0,0.0,0.0,0.0,0.0,0.0,0.0,0.0,0.0,0.0,0.0,0.0,0.0,0.0,0.0,0.0,0.0,0.0,0.0,0.0,0.0,0.0,0.0,0.0,-2.125,0.0,-2.2965,-2.3742,-2.1628,-2.0159,0.0,0.0,0.0,0.0,0.0,0.0,0.0,0.0,0.0,0.0,0.0,0.0,0.0,0.0,0.0,0.0,0.0,0.0,0.0,0.0,0.0,0.0,0.0,0.0,0.0,0.0,0.0,0.0,0.0,0.0,0.0,0.0,0.0,0.0,0.0,0.0,0.0,0.0,0.0,0.0,0.0,0.0,0.0,0.0,0.0,0.0,0.0,0.0,0.0,0.0,0.0,0.0,0.0,0.0,0.0,0.0,0.0,0.0,0.0,0.0,0.0,0.0,0.0,0.0,0.0,0.0,0.0,0.0,0.0,0.0,0.0,0.0,0.0,0.0,0.0,0.0,0.0,0.0,0.0,0.0,0.0,0.0,0.0,0.0,0.0,0.0,0.0,0.0,0.0,0.0,0.0,0.0,0.0,0.0,0.0,0.0,0.0,0.0,0.0,0.0,0.0,0.0,0.0,0.0,0.0,0.0,0.0,0.0,-2.1181,-2.2703,-2.3608,-2.3664,-2.286,-2.2733,-2.1263,0.0,0.0,0.0,0.0,0.0,0.0,0.0,0.0,0.0,0.0,0.0,0.0,0.0,0.0,0.0,0.0,0.0,0.0,0.0,0.0,0.0,0.0,0.0,0.0,0.0,0.0,0.0,0.0,0.0,0.0,0.0,0.0,0.0,0.0,0.0,0.0,0.0,0.0,0.0,0.0,0.0,0.0,0.0,0.0,0.0,0.0,0.0,0.0,0.0,0.0,0.0,0.0,0.0,0.0,0.0,0.0,0.0,0.0,0.0,0.0,0.0,0.0,0.0,0.0,0.0,0.0,0.0,0.0,0.0,0.0,0.0,0.0,0.0,0.0,0.0,0.0,0.0,0.0,0.0,0.0,0.0,0.0,0.0,0.0,0.0,0.0,0.0,0.0,0.0,0.0,0.0,0.0,0.0,0.0,0.0,0.0,0.0,0.0,0.0,0.0,0.0,0.0,0.0,0.0,0.0,0.0,0.0,0.0,0.0,-2.2052,-2.2811,-2.3138,-2.2917,-2.174,-2.0629,0.0,0.0,0.0,0.0,0.0,0.0,0.0,0.0,0.0,0.0,0.0,0.0,0.0,0.0,0.0,0.0,0.0,0.0,0.0,0.0,0.0,0.0,0.0,0.0,0.0,0.0,0.0,0.0,0.0,0.0,0.0,0.0,0.0,0.0,0.0,0.0,0.0,0.0,0.0,0.0,0.0,0.0,0.0,0.0,0.0,0.0,0.0,0.0,0.0,0.0,0.0,0.0,0.0,0.0,0.0,0.0,0.0,0.0,0.0,0.0,0.0,0.0,0.0,0.0,0.0,0.0,0.0,0.0,0.0,0.0,0.0,0.0,0.0,0.0,0.0,0.0,0.0,0.0,0.0,0.0,0.0,0.0,0.0,0.0,0.0,0.0,0.0,0.0,0.0,0.0,0.0,0.0,0.0,0.0,0.0,0.0,0.0,0.0,0.0,0.0,0.0,0.0,0.0,0.0,0.0,0.0,0.0,0.0,0.0,-2.218,-2.29,-2.3171,-2.2927,-2.1539,-2.0651,-2.0383,0.0,0.0,0.0,0.0,0.0,0.0,0.0,0.0,0.0,0.0,0.0,0.0,0.0,0.0,0.0,0.0,0.0,0.0,0.0,0.0,0.0,0.0,0.0,0.0,0.0,0.0,0.0,0.0,0.0,0.0,0.0,0.0,0.0,0.0,0.0,0.0,0.0,0.0,0.0,0.0,0.0,0.0,0.0,0.0,0.0,0.0,0.0,0.0,0.0,0.0,0.0,0.0,0.0,0.0,0.0,0.0,0.0,0.0,0.0,0.0,0.0,0.0,0.0,0.0,0.0,0.0,0.0,0.0,0.0,0.0,0.0,0.0,0.0,0.0,0.0,0.0,0.0,0.0,0.0,0.0,0.0,0.0,0.0,0.0,0.0,0.0,0.0,0.0,0.0,0.0,0.0,0.0,0.0,0.0,0.0,0.0,0.0,0.0,0.0,0.0,0.0,0.0,0.0,0.0,0.0,0.0,0.0,0.0,-2.2811,-2.357,-2.3544,-2.2753,-2.1981,-2.1217,0.0,0.0,0.0,0.0,0.0,0.0,0.0,0.0,0.0,0.0,0.0,0.0,0.0,0.0,0.0,0.0,0.0,0.0,0.0,0.0,0.0,0.0,0.0,0.0,0.0,0.0,0.0,0.0,0.0,0.0,0.0,0.0,0.0,0.0,0.0,0.0,0.0,0.0,0.0,0.0,0.0,0.0,0.0,0.0,0.0,0.0,0.0,0.0,0.0,0.0,0.0,0.0,0.0,0.0,0.0,0.0,0.0,0.0,0.0,0.0,0.0,0.0,0.0,0.0,0.0,0.0,0.0,0.0,0.0,0.0,0.0,0.0,0.0,0.0,0.0,0.0,0.0,0.0,0.0,0.0,0.0,0.0,0.0,0.0,0.0,0.0,0.0,0.0,0.0,0.0,0.0,0.0,0.0,0.0,0.0,0.0,0.0,0.0,0.0,0.0,0.0,0.0,0.0,0.0,0.0,0.0,0.0,0.0,0.0,-2.1966,-2.2191,-2.2222,-2.1988,-2.1736,-2.1248,0.0,0.0,0.0,0.0,0.0,0.0,0.0,0.0,0.0,0.0,0.0,0.0,0.0,0.0,0.0,0.0,0.0,0.0,0.0,0.0,0.0,0.0,0.0,0.0,0.0,0.0,0.0,0.0,0.0,0.0,0.0,0.0,0.0,0.0,0.0,0.0,0.0,0.0,0.0,0.0,0.0,0.0,0.0,0.0,0.0,0.0,0.0,0.0,0.0,0.0,0.0,0.0,0.0,0.0,0.0,0.0,0.0,0.0,0.0,0.0,0.0,0.0,0.0,0.0,0.0,0.0,0.0,0.0,0.0,0.0,0.0,0.0,0.0,0.0,0.0,0.0,0.0,0.0,0.0,0.0,0.0,0.0,0.0,0.0,0.0,0.0,0.0,0.0,0.0,0.0,0.0,0.0,0.0,0.0,0.0,0.0,0.0,0.0,0.0,0.0,0.0,0.0,0.0,0.0,0.0,0.0,0.0,0.0,-2.2052,-2.161,-2.1305,-2.1158,-2.1192,-2.1158,-2.1122,0.0,0.0,0.0,0.0,0.0,0.0,0.0,0.0,0.0,0.0,0.0,0.0,0.0,0.0,0.0,0.0,0.0,0.0,0.0,0.0,0.0,0.0,0.0,0.0,0.0,0.0,0.0,0.0,0.0,0.0,0.0,0.0,0.0,0.0,0.0,0.0,0.0,0.0,0.0,0.0,0.0,0.0,0.0,0.0,0.0,0.0,0.0,0.0,0.0,0.0,0.0,0.0,0.0,0.0,0.0,0.0,0.0,0.0,0.0,0.0,0.0,0.0,0.0,0.0,0.0,0.0,0.0,0.0,0.0,0.0,0.0,0.0,0.0,0.0,0.0,0.0,0.0,0.0,0.0,0.0,0.0,0.0,0.0,0.0,0.0,0.0,0.0,0.0,0.0,0.0,0.0,0.0,0.0,0.0,0.0,0.0,0.0,0.0,0.0,0.0,0.0,0.0,0.0,0.0,0.0,0.0,0.0,0.0,-2.1621,-2.1606,-2.0812,-2.0443,-2.0502,-2.051,-2.0866,0.0,0.0,0.0,0.0,0.0,0.0,0.0,0.0,0.0,0.0,0.0,0.0,0.0,0.0,0.0,0.0,0.0,0.0,0.0,0.0,0.0,0.0,0.0,0.0,0.0,0.0,0.0,0.0,0.0,0.0,0.0,0.0,0.0,0.0,0.0,0.0,0.0,0.0,0.0,0.0,0.0,0.0,0.0,0.0,0.0,0.0,0.0,0.0,0.0,0.0,0.0,0.0,0.0,0.0,0.0,0.0,0.0,0.0,0.0,0.0,0.0,0.0,0.0,0.0,0.0,0.0,0.0,0.0,0.0,0.0,0.0,0.0,0.0,0.0,0.0,0.0,0.0,0.0,0.0,0.0,0.0,0.0,0.0,0.0,0.0,0.0,0.0,0.0,0.0,0.0,0.0,0.0,0.0,0.0,0.0,0.0,0.0,0.0,0.0,0.0,0.0,0.0,0.0,0.0,0.0,0.0,0.0,0.0,-2.2171,-2.1602,-2.0808,-2.0445,-2.05,-2.0507,-2.0609,0.0,0.0,0.0,0.0,0.0,0.0,0.0,0.0,0.0,0.0,0.0,0.0,0.0,0.0,0.0,0.0,0.0,0.0,0.0,0.0,0.0,0.0,0.0,0.0,0.0,0.0,0.0,0.0,0.0,0.0,0.0,0.0,0.0,0.0,0.0,0.0,0.0,0.0,0.0,0.0,0.0,0.0,0.0,0.0,0.0,0.0,0.0,0.0,-2.1905,0.0,0.0,0.0,0.0,0.0,0.0,0.0,0.0,0.0,0.0,0.0,0.0,0.0,0.0,0.0,0.0,0.0,0.0,0.0,0.0,0.0,0.0,0.0,0.0,0.0,0.0,0.0,0.0,0.0,0.0,0.0,0.0,0.0,0.0,0.0,0.0,0.0,0.0,0.0,0.0,0.0,0.0,0.0,0.0,0.0,0.0,0.0,0.0,0.0,0.0,0.0,0.0,0.0,0.0,0.0,0.0,0.0,0.0,0.0,-2.2161,-2.1058,-2.0614,-2.0428,-2.0503,-2.0506,-2.0539,0.0,0.0,0.0,0.0,0.0,0.0,0.0,0.0,0.0,0.0,0.0,0.0,0.0,0.0,0.0,0.0,0.0,0.0,0.0,0.0,0.0,0.0,0.0,0.0,0.0,0.0,0.0,0.0,0.0,0.0,0.0,0.0,0.0,0.0,0.0,0.0,0.0,0.0,0.0,0.0,0.0,0.0,0.0,0.0,0.0,0.0,0.0,0.0,0.0,0.0,0.0,0.0,0.0,0.0,0.0,0.0,0.0,0.0,0.0,0.0,0.0,0.0,0.0,0.0,0.0,0.0,0.0,0.0,0.0,0.0,0.0,0.0,0.0,0.0,0.0,0.0,0.0,0.0,0.0,0.0,0.0,0.0,0.0,0.0,0.0,0.0,0.0,0.0,0.0,0.0,0.0,0.0,0.0,0.0,0.0,0.0,0.0,0.0,0.0,0.0,0.0,0.0,0.0,0.0,0.0,0.0,0.0,-2.1878,-2.1839,-2.0472,-2.038,-2.0419,-2.0477,-2.049,-2.0505,-2.0573,0.0,0.0,0.0,0.0,0.0,0.0,0.0,0.0,0.0,0.0,0.0,0.0,0.0,0.0,0.0,0.0,0.0,0.0,0.0,0.0,0.0,0.0,0.0,0.0,0.0,0.0,0.0,0.0,0.0,0.0,0.0,0.0,0.0,0.0,0.0,0.0,0.0,0.0,-2.0542,-2.1905,0.0,0.0,0.0,0.0,0.0,0.0,0.0,0.0,-2.4969,0.0,0.0,0.0,0.0,0.0,0.0,0.0,0.0,0.0,0.0,0.0,0.0,0.0,0.0,0.0,0.0,0.0,0.0,0.0,0.0,0.0,0.0,0.0,0.0,0.0,0.0,0.0,0.0,0.0,0.0,0.0,0.0,0.0,0.0,0.0,0.0,0.0,0.0,0.0,0.0,0.0,0.0,0.0,0.0,0.0,0.0,0.0,0.0,0.0,0.0,0.0,0.0,0.0,0.0,0.0,0.0,-2.1413,-2.1656,-2.1324,-2.0414,-2.038,-2.0413,-2.0415,-2.0477,-2.0475,-2.0453,0.0,0.0,0.0,0.0,0.0,0.0,0.0,0.0,0.0,0.0,0.0,0.0,0.0,0.0,0.0,0.0,0.0,0.0,0.0,0.0,0.0,0.0,0.0,0.0,0.0,0.0,0.0,0.0,0.0,0.0,0.0,0.0,0.0,0.0,0.0,0.0,0.0,0.0,0.0,-2.3035,-2.4003,0.0,0.0,0.0,0.0,0.0,0.0,0.0,0.0,-2.5486,0.0,0.0,0.0,0.0,0.0,0.0,0.0,0.0,0.0,0.0,0.0,0.0,0.0,0.0,0.0,0.0,0.0,0.0,0.0,0.0,0.0,0.0,0.0,0.0,0.0,0.0,0.0,0.0,0.0,0.0,0.0,0.0,0.0,0.0,0.0,0.0,0.0,0.0,0.0,0.0,0.0,0.0,0.0,0.0,0.0,0.0,0.0,0.0,0.0,0.0,0.0,0.0,0.0,0.0,0.0,-2.1754,-2.2042,-2.1845,-2.1083,-2.0556,-2.0327,-2.0393,-2.0429,-2.0439,0.0,0.0,0.0,0.0,0.0,0.0,0.0,0.0,0.0,0.0,0.0,0.0,0.0,0.0,0.0,0.0,0.0,0.0,0.0,0.0,0.0,0.0,0.0,0.0,0.0,0.0,0.0,0.0,0.0,0.0,0.0,0.0,0.0,0.0,0.0,0.0,0.0,0.0,0.0,0.0,-2.2983,-2.3764,-2.5122,0.0,0.0,0.0,0.0,0.0,0.0,-2.5166,-2.5473,0.0,0.0,0.0,0.0,0.0,0.0,0.0,0.0,0.0,0.0,0.0,0.0,0.0,0.0,0.0,0.0,0.0,0.0,0.0,0.0,0.0,0.0,0.0,0.0,0.0,0.0,0.0,0.0,0.0,0.0,0.0,0.0,0.0,0.0,0.0,0.0,0.0,0.0,0.0,0.0,0.0,0.0,0.0,0.0,0.0,0.0,0.0,0.0,0.0,0.0,0.0,0.0,0.0,0.0,0.0,-2.1593,-2.2216,-2.2201,-2.1449,-2.063,-2.0262,-2.0342,-2.0383,-2.0385,0.0,0.0,0.0,0.0,0.0,0.0,0.0,0.0,0.0,0.0,0.0,0.0,0.0,0.0,0.0,0.0,0.0,0.0,0.0,0.0,0.0,0.0,0.0,0.0,0.0,0.0,0.0,0.0,0.0,0.0,0.0,0.0,0.0,0.0,0.0,0.0,0.0,0.0,0.0,0.0,0.0,-2.3999,-2.5249,-2.5421,0.0,0.0,0.0,0.0,-2.5398,-2.5393,0.0,0.0,0.0,0.0,0.0,0.0,0.0,0.0,0.0,0.0,0.0,0.0,0.0,0.0,0.0,0.0,0.0,0.0,0.0,0.0,0.0,0.0,0.0,0.0,0.0,0.0,0.0,0.0,0.0,0.0,0.0,0.0,0.0,0.0,0.0,0.0,0.0,0.0,0.0,0.0,0.0,0.0,0.0,0.0,0.0,0.0,0.0,0.0,0.0,0.0,0.0,0.0,0.0,0.0,0.0,0.0,-2.0716,-2.1419,-2.1434,-2.0599,-2.0382,-2.0265,-2.0219,-2.028,-2.0324,0.0,0.0,0.0,0.0,0.0,0.0,0.0,0.0,0.0,0.0,0.0,0.0,0.0,0.0,0.0,0.0,0.0,0.0,0.0,0.0,0.0,0.0,0.0,0.0,0.0,0.0,0.0,0.0,0.0,0.0,0.0,0.0,0.0,0.0,0.0,0.0,0.0,0.0,0.0,0.0,0.0,-2.5865,-2.5537,-2.5483,-2.5454,0.0,0.0,-2.5393,-2.5398,-2.5393,0.0,0.0,0.0,0.0,0.0,0.0,0.0,0.0,0.0,0.0,0.0,0.0,0.0,0.0,0.0,0.0,0.0,0.0,0.0,0.0,0.0,0.0,0.0,0.0,0.0,0.0,0.0,0.0,0.0,0.0,0.0,0.0,0.0,0.0,0.0,0.0,0.0,0.0,0.0,0.0,0.0,0.0,0.0,0.0,0.0,0.0,0.0,0.0,0.0,0.0,0.0,0.0,0.0,0.0,0.0,-2.186,-2.1982,-2.2289,-2.2265,-2.1857,-2.0839,-2.0291,-2.026,-1.9812,-1.9803,0.0,0.0,0.0,0.0,0.0,0.0,0.0,0.0,0.0,0.0,0.0,0.0,0.0,0.0,0.0,0.0,0.0,0.0,0.0,0.0,0.0,0.0,0.0,0.0,0.0,0.0,0.0,0.0,0.0,0.0,0.0,0.0,0.0,0.0,0.0,0.0,0.0,0.0,0.0,0.0,0.0,0.0,-2.6249,-2.6302,0.0,0.0,0.0,-2.5601,-2.6015,0.0,0.0,0.0,0.0,0.0,0.0,0.0,0.0,0.0,0.0,0.0,0.0,0.0,0.0,0.0,0.0,0.0,0.0,0.0,0.0,0.0,0.0,0.0,0.0,0.0,0.0,0.0,0.0,0.0,0.0,0.0,0.0,0.0,0.0,0.0,0.0,0.0,0.0,0.0,0.0,0.0,0.0,0.0,0.0,0.0,0.0,0.0,0.0,0.0,0.0,0.0,0.0,0.0,0.0,0.0,0.0,0.0,-2.2427,-2.2621,-2.2594,-2.2347,-2.1043,-2.0215,-1.9993,-1.9369,0.0,0.0,0.0,0.0,0.0,0.0,0.0,0.0,0.0,0.0,0.0,0.0,0.0,0.0,0.0,0.0,0.0,0.0,0.0,0.0,0.0,0.0,0.0,0.0,0.0,0.0,0.0,-1.6068,0.0,0.0,0.0,0.0,0.0,0.0,0.0,0.0,0.0,0.0,0.0,0.0,0.0,0.0,-2.5919,-2.6941,-2.6786,-2.6612,0.0,0.0,-2.5716,-2.6243,-2.5882,-2.5548,0.0,0.0,0.0,0.0,0.0,0.0,0.0,0.0,0.0,0.0,0.0,0.0,0.0,0.0,0.0,0.0,0.0,0.0,0.0,0.0,0.0,0.0,0.0,0.0,0.0,0.0,0.0,0.0,0.0,0.0,0.0,0.0,0.0,0.0,0.0,0.0,0.0,0.0,0.0,0.0,0.0,0.0,0.0,0.0,0.0,0.0,0.0,0.0,0.0,0.0,0.0,0.0,0.0,0.0,-2.0628,-2.0712,-2.1474,-2.152,-2.0711,-2.0502,-2.001,-1.921,-1.9133,-1.9124,0.0,0.0,0.0,0.0,0.0,0.0,0.0,0.0,0.0,0.0,0.0,0.0,0.0,0.0,0.0,0.0,0.0,0.0,0.0,0.0,0.0,0.0,0.0,0.0,0.0,0.0,0.0,0.0,0.0,0.0,0.0,0.0,0.0,0.0,0.0,0.0,0.0,0.0,0.0,0.0,0.0,-2.6562,-2.7436,-2.649,-2.5955,0.0,-2.6108,-2.5593,-2.559,-2.5608,-2.5602,-2.5605,0.0,0.0,0.0,0.0,0.0,0.0,0.0,0.0,0.0,0.0,0.0,0.0,0.0,0.0,0.0,0.0,0.0,0.0,0.0,0.0,0.0,0.0,0.0,0.0,0.0,0.0,0.0,0.0,0.0,0.0,0.0,0.0,0.0,0.0,0.0,0.0,0.0,0.0,0.0,0.0,0.0,0.0,0.0,0.0,0.0,0.0,0.0,0.0,0.0,0.0,0.0,0.0,0.0,-2.0271,-2.1297,-2.167,-2.1647,-2.1251,-2.0727,-2.0021,-1.9126,-1.8615,-1.8601,0.0,0.0,0.0,0.0,0.0,0.0,0.0,0.0,0.0,0.0,0.0,0.0,0.0,0.0,0.0,0.0,0.0,0.0,0.0,0.0,0.0,0.0,0.0,0.0,0.0,0.0,0.0,0.0,-1.8513,-1.8872,-1.9732,0.0,0.0,0.0,0.0,0.0,0.0,0.0,0.0,0.0,0.0,-2.7782,-2.8317,-2.768,0.0,0.0,-2.7274,-2.6569,-2.7031,-2.6702,-2.622,-2.5686,-2.6056,0.0,0.0,0.0,0.0,0.0,0.0,0.0,0.0,0.0,0.0,0.0,0.0,0.0,0.0,0.0,0.0,0.0,0.0,0.0,0.0,0.0,0.0,0.0,0.0,0.0,0.0,0.0,0.0,0.0,0.0,0.0,0.0,0.0,0.0,0.0,0.0,0.0,0.0,0.0,0.0,0.0,0.0,0.0,0.0,0.0,0.0,0.0,0.0,0.0,0.0,0.0,0.0,-2.0238,-2.1392,-2.1709,-2.172,-2.1375,-2.0808,-1.9943,-1.8814,-1.8192,-1.8039,0.0,0.0,0.0,0.0,0.0,0.0,0.0,0.0,0.0,0.0,0.0,0.0,0.0,0.0,0.0,0.0,0.0,0.0,0.0,0.0,0.0,0.0,0.0,0.0,0.0,0.0,0.0,0.0,-1.9255,-1.9564,-2.0229,0.0,0.0,0.0,0.0,0.0,0.0,0.0,0.0,0.0,0.0,-2.8258,-2.8998,-2.8519,-2.8398,-2.9297,-2.8225,-2.7486,-2.8053,-2.7657,-2.7098,-2.649,0.0,0.0,0.0,0.0,0.0,0.0,0.0,0.0,0.0,0.0,0.0,0.0,0.0,0.0,0.0,0.0,0.0,0.0,0.0,0.0,0.0,0.0,0.0,0.0,0.0,0.0,0.0,-1.9031,0.0,0.0,-1.7725,0.0,0.0,0.0,0.0,0.0,0.0,0.0,0.0,0.0,0.0,0.0,0.0,0.0,0.0,0.0,0.0,0.0,0.0,0.0,0.0,0.0,0.0,-2.0481,-2.0536,-2.1365,-2.1416,-2.066,-2.0545,-1.9734,-1.8128,-1.7886,-1.7442,-1.6699,0.0,0.0,0.0,0.0,0.0,0.0,0.0,0.0,0.0,0.0,0.0,0.0,0.0,0.0,0.0,0.0,0.0,0.0,0.0,0.0,0.0,0.0,0.0,0.0,0.0,0.0,-1.9869,-2.0096,-2.0217,0.0,0.0,0.0,0.0,0.0,0.0,0.0,0.0,0.0,-2.7202,-2.716,-2.7671,-2.9339,-2.8682,-2.84,-2.9363,-2.8758,-2.8182,-2.8231,-2.8205,-2.8193,0.0,0.0,0.0,0.0,0.0,0.0,0.0,0.0,0.0,0.0,0.0,0.0,0.0,0.0,0.0,0.0,0.0,0.0,0.0,0.0,0.0,0.0,0.0,0.0,0.0,0.0,0.0,-2.0303,-1.9531,0.0,0.0,0.0,0.0,0.0,0.0,0.0,0.0,0.0,0.0,0.0,-2.0994,-2.203,0.0,0.0,0.0,0.0,0.0,0.0,0.0,0.0,0.0,0.0,0.0,0.0,-1.9961,-2.0486,-2.084,-2.0825,-2.0471,-2.0484,-1.9945,-1.8766,-1.8163,-1.7198,-1.5803,0.0,0.0,0.0,0.0,0.0,0.0,0.0,0.0,0.0,0.0,0.0,0.0,0.0,0.0,0.0,0.0,0.0,0.0,0.0,0.0,0.0,0.0,0.0,0.0,0.0,-1.953,0.0,0.0,0.0,0.0,0.0,0.0,0.0,0.0,0.0,0.0,0.0,-2.6886,-2.7524,-2.8113,-2.8781,-2.9678,-2.9192,-2.9094,0.0,0.0,0.0,0.0,0.0,0.0,0.0,0.0,0.0,0.0,0.0,0.0,0.0,0.0,-2.4788,-2.3254,-2.1913,-2.0655,-1.95,0.0,0.0,0.0,0.0,0.0,0.0,0.0,0.0,0.0,0.0,0.0,0.0,0.0,0.0,-2.0467,-2.0009,-1.9186,0.0,0.0,0.0,0.0,0.0,0.0,0.0,0.0,-2.1642,-2.2024,-2.1876,-2.2356,-2.246,0.0,-2.3235,-2.2725,0.0,0.0,0.0,0.0,0.0,0.0,0.0,0.0,-2.0714,-2.0917,-2.0975,-2.0833,-2.05,-2.0477,-2.0044,-1.9152,-1.8063,-1.7086,-1.6271,-1.7018,-1.7338,0.0,0.0,0.0,0.0,0.0,0.0,0.0,0.0,0.0,0.0,0.0,0.0,0.0,0.0,0.0,0.0,0.0,0.0,0.0,0.0,0.0,0.0,0.0,-1.9776,0.0,0.0,0.0,0.0,0.0,0.0,0.0,0.0,0.0,-2.5778,-2.664,-2.7471,-2.8006,-2.8719,-2.9379,-2.9844,0.0,0.0,0.0,0.0,0.0,0.0,0.0,-2.9567,-2.8962,-2.9242,-2.9461,-2.9249,-2.924,-2.8961,-2.8061,0.0,0.0,-2.2649,-2.0962,-1.9479,-1.8297,-1.8222,-1.8521,-1.9054,-2.0387,-2.1947,0.0,0.0,0.0,0.0,0.0,0.0,0.0,0.0,-2.033,-2.04,0.0,-1.9265,0.0,0.0,0.0,0.0,0.0,-2.1467,0.0,0.0,-2.2825,-2.3268,-2.4147,-2.3349,-2.3025,-2.3062,-2.3043,-2.2672,-2.1952,-2.2529,0.0,0.0,0.0,0.0,0.0,0.0,-2.2564,-2.1649,-2.1676,-2.1374,-2.0629,-2.0472,-2.0012,-1.9192,-1.766,-1.7197,-1.7906,-1.7173,-1.7124,-1.8004,-1.7969,0.0,0.0,0.0,0.0,0.0,0.0,0.0,0.0,0.0,0.0,0.0,0.0,0.0,0.0,0.0,0.0,0.0,0.0,0.0,0.0,-1.9806,0.0,0.0,0.0,0.0,0.0,0.0,0.0,0.0,0.0,0.0,-2.7381,-2.7327,-2.7643,-2.8677,0.0,0.0,0.0,0.0,-3.0253,-3.0447,-3.0479,-3.0472,-3.0527,-3.0388,-3.0197,-3.0047,0.0,0.0,-2.9457,-2.9161,-2.869,-2.7745,-2.6452,-2.488,-2.2753,-2.0916,-1.9323,-1.8251,-1.7819,-1.7889,-1.8994,-2.0483,-2.1759,-2.4023,0.0,0.0,0.0,0.0,-2.2318,-2.2247,-2.2578,-2.2186,-2.1726,-2.1236,-2.1176,0.0,0.0,0.0,0.0,0.0,0.0,-2.2021,-2.2585,-2.2594,-2.2607,-2.251,-2.1611,-2.1513,-2.2166,-2.2351,-2.2875,-2.3635,-2.3744,-2.3062,-2.1657,0.0,0.0,0.0,0.0,-2.0961,-2.0716,-2.0766,-2.0691,-2.0457,-2.0419,-2.0022,-1.9211,-1.8781,-1.8386,-1.8025,-1.8284,-1.8575,-1.8836,-1.8826,0.0,0.0,0.0,0.0,0.0,0.0,0.0,0.0,0.0,0.0,0.0,0.0,0.0,0.0,0.0,0.0,0.0,0.0,0.0,-2.0429,-2.0606,-2.111,0.0,0.0,0.0,0.0,0.0,0.0,0.0,0.0,0.0,-2.8539,-2.8539,-2.8712,0.0,0.0,-2.9689,-2.9997,-3.0064,-3.0069,-3.0153,-3.0103,0.0,-2.9844,-2.9728,-2.9621,-2.9474,-2.9386,-2.9307,-2.921,-2.9,-2.8595,-2.775,-2.6721,-2.5496,-2.3897,-2.2006,-2.0367,-1.9341,-1.9322,-1.9868,-2.0768,-2.2093,-2.356,-2.5046,-2.423,-2.3793,-2.3636,-2.3631,-2.2995,-2.2854,-2.3083,-2.2795,-2.2387,-2.1972,-2.2027,-2.1931,-2.1773,-2.1992,0.0,0.0,0.0,-2.2665,-2.3069,-2.3094,-2.3005,-2.2741,-2.1844,-2.1677,-2.2213,-2.2399,-2.2959,-2.3842,-2.3738,-2.3337,-2.2643,0.0,0.0,-2.2856,-2.1852,-2.133,-2.1274,-2.07,-2.0417,-2.0443,-2.0444,-2.0215,-1.9733,-1.9439,-1.9051,-1.8546,-1.8644,-1.888,-1.9224,-1.9223,-1.9231,0.0,0.0,0.0,0.0,0.0,0.0,0.0,0.0,0.0,0.0,0.0,-1.8134,-1.764,0.0,0.0,0.0,-2.0397,-2.1069,-2.1872,-2.229,0.0,0.0,0.0,0.0,0.0,0.0,0.0,-2.8387,-2.845,-2.8637,-2.917,-2.9221,-2.9302,-2.9608,-2.9662,-2.977,-2.9957,0.0,-2.9773,-2.9426,-2.9322,-2.9222,-2.8984,-2.8941,-2.8978,-2.9115,-2.8929,-2.8809,-2.8857,-2.8818,-2.8569,-2.7964,-2.7397,-2.6702,-2.5647,-2.4554,-2.3246,-2.1496,-2.1692,-2.242,-2.3216,-2.4554,-2.5859,-2.549,-2.5238,-2.4323,-2.3707,-2.3297,-2.2912,-2.2729,-2.2663,-2.2614,-2.2668,-2.2712,-2.227,-2.2459,-2.314,-2.2571,0.0,-2.2094,-2.3247,-2.3931,-2.4246,-2.4063,-2.4093,-2.4249,-2.3369,-2.294,-2.2857,-2.2876,-2.2958,-2.3083,-2.3025,-2.3436,-2.4301,-2.4971,-2.5223,-2.5037,-2.3621,-2.2829,-2.2668,-2.1234,-2.0502,-2.0488,-2.0512,-2.0504,-2.0496,-1.9775,-1.9394,-1.9371,-1.8639,-1.8561,-1.9344,-1.935,-1.9302,-1.9282,0.0,0.0,0.0,0.0,0.0,0.0,0.0,0.0,0.0,0.0,0.0,0.0,0.0,0.0,0.0,-2.2099,0.0,-2.3817,-2.4513,0.0,0.0,0.0,-2.6605,-2.6982,-2.7849,-2.8575,-2.9055,0.0,0.0,-2.9485,-2.9475,-2.949,-2.9633,-2.9658,-2.963,-2.9607,-2.9545,-2.9268,-2.8421,-2.8291,-2.8198,-2.8006,-2.7987,-2.8119,-2.8475,-2.8406,-2.8142,-2.824,-2.8428,-2.8442,-2.8109,-2.8173,-2.808,-2.7652,-2.77,-2.7275,-2.4399,-2.4434,-2.5181,-2.5834,-2.6857,-2.7604,-2.5576,-2.5509,-2.5276,-2.4862,-2.434,-2.4247,-2.4108,-2.3946,-2.4104,-2.3814,-2.3272,-2.3887,-2.4057,-2.3842,-2.338,-2.3226,-2.3289,-2.3635,-2.4114,-2.4656,-2.4767,-2.457,-2.4124,-2.3767,-2.3245,-2.263,-2.2654,-2.304,-2.3738,-2.3797,-2.4262,-2.5078,-2.525,-2.4956,-2.4273,-2.3322,-2.2494,-2.1814,-2.148,-2.1033,-2.0441,-2.0473,-2.0505,-2.0505,-2.0321,-2.024,-2.0281,-2.0078,-2.0083,-2.0272,-2.0287,-2.0243,-2.0188,-1.9417,0.0,0.0,0.0,0.0,0.0,0.0,0.0,0.0,0.0,-2.1249,-1.9343,0.0,-2.3381,0.0,-2.3758,-2.4816,-2.5606,-2.5881,0.0,0.0,-2.7919,-2.8319,-2.895,-2.9072,-2.9165,-2.9246,-2.9249,-2.9347,-2.9617,-2.9174,-2.8928,-2.9201,-2.9155,-2.881,-2.8118,-2.7841,-2.7671,-2.745,-2.7296,-2.7121,-2.7009,-2.6792,-2.67,-2.6652,-2.6713,-2.6799,-2.6819,-2.6982,-2.7178,-2.7387,-2.7716,-2.7995,-2.8246,-2.8674,-2.8501,-2.7399,-2.685,-2.6698,-2.7247,-2.7239,-2.7054,-2.552,-2.5552,-2.5552,-2.5385,-2.5106,-2.5013,-2.4836,-2.4681,-2.4818,-2.4594,-2.4144,-2.4665,-2.4635,-2.4173,-2.3948,-2.3921,-2.4017,-2.4179,-2.4503,-2.4975,-2.519,-2.5035,-2.4584,-2.4457,-2.4099,-2.3581,-2.3668,-2.4003,-2.4515,-2.4671,-2.4988,-2.5478,-2.5447,-2.5189,-2.4694,-2.3857,-2.316,-2.2656,-2.1989,-2.1411,-2.0992,-2.0663,-2.0504,-2.0509,-2.0506,-2.0508,-2.0564,-2.0563,-2.0389,-2.0058,-2.0024,-1.9996,-1.9951,-1.9143,-1.8627,0.0,0.0,0.0,0.0,0.0,0.0,0.0,0.0,0.0,0.0,0.0,-2.4888,-2.4746,-2.5718,-2.6715,-2.7586,-2.7956,-2.8308,-2.8772,-2.8782,-2.8802,-2.8979,-2.8952,-2.9012,-2.9141,-2.8992,-2.8941,-2.9125,-2.8584,-2.8099,-2.8012,-2.7955,-2.7805,-2.7523,-2.7305,-2.7097,-2.6682,-2.6497,-2.6374,-2.6277,-2.6197,-2.6144,-2.6202,-2.6185,-2.6193,-2.6281,-2.6456,-2.6631,-2.6866,-2.7246,-2.7624,-2.7999,-2.832,-2.839,-2.8025,-2.7158,-2.6799,-2.7396,-2.7179,-2.6692,-2.5422,-2.5485,-2.5485,-2.5514,-2.5576,-2.5402,-2.523,-2.5078,-2.513,-2.5119,-2.5048,-2.4986,-2.4743,-2.4419,-2.4405,-2.4429,-2.4525,-2.4739,-2.4984,-2.524,-2.5403,-2.5353,-2.5168,-2.5088,-2.4984,-2.4861,-2.4984,-2.5086,-2.5138,-2.5347,-2.5506,-2.5552,-2.5573,-2.5591,-2.5549,-2.4768,-2.4284,-2.4119,-2.2634,-2.1811,-2.1702,-2.1017,-2.0614,-2.0511,-2.051,-2.0507,-2.0505,-2.0508,-2.0166,-1.9506,-1.9451,-1.9461,-1.9434,-1.8679,-1.8539,0.0,-1.9305,0.0,0.0,0.0,0.0,0.0,0.0,0.0,0.0,-2.5082,-2.6483,-2.7174,-2.7803,-2.8525,-2.9334,-2.9873,-2.9832,-2.9004,-2.8794,-2.8563,-2.8112,-2.8198,-2.8409,-2.8735,-2.8415,-2.8218,-2.8353,-2.7841,-2.7219,-2.6824,-2.6656,-2.6754,-2.7113,-2.7077,-2.6721,-2.5981,-2.5873,-2.5859,-2.5806,-2.5847,-2.5974,-2.6228,-2.6033,-2.5932,-2.6005,-2.6163,-2.6318,-2.6451,-2.6772,-2.7165,-2.7379,-2.7585,-2.7626,-2.7497,-2.6464,-2.5922,-2.6625,-2.6412,-2.6089,-2.5412,-2.5419,-2.5419,-2.545,-2.5517,-2.5482,-2.5439,-2.54,-2.5424,-2.5418,-2.5392,-2.5216,-2.5089,-2.5024,-2.4872,-2.4877,-2.505,-2.5103,-2.5247,-2.5445,-2.5313,-2.5185,-2.5032,-2.486,-2.4695,-2.4599,-2.4713,-2.4784,-2.4799,-2.5107,-2.5268,-2.5281,-2.5434,-2.5515,-2.5515,0.0,0.0,0.0,-2.326,-2.2432,-2.1799,-2.1642,-2.121,-2.0543,-2.0507,0.0,-2.0506,-2.0511,-2.0429,-2.0287,-2.0268,0.0,0.0,0.0,0.0,0.0,0.0,0.0,0.0,0.0,0.0,0.0,-2.3944,-2.4241,-2.5175,-2.7439,-2.8925,-2.9096,-2.9747,-2.9956,-2.953,-2.9518,-2.9224,-2.8395,-2.8116,-2.7943,-2.7782,-2.7661,-2.7597,-2.7601,-2.7528,-2.7566,-2.769,-2.7158,-2.6708,-2.6621,-2.6132,-2.5812,-2.5972,-2.5837,-2.5578,-2.5367,-2.5457,-2.5457,-2.5352,-2.5373,-2.5345,-2.5182,-2.5133,-2.513,-2.5157,-2.5188,-2.5461,-2.5948,-2.6265,-2.6659,-2.743,-2.7557,-2.7206,-2.6682,-2.5817,-2.5262,-2.5508,-2.4508,-2.351,-2.5322,-2.5351,-2.5351,-2.5394,0.0,-2.5449,-2.5469,-2.5516,-2.556,-2.5574,-2.5547,-2.5436,-2.5357,-2.529,-2.5186,-2.5246,-2.5399,-2.5356,-2.5399,-2.5482,-2.5366,-2.5168,-2.4959,-2.4842,-2.4698,-2.4517,-2.4629,-2.4682,-2.4704,-2.5038,-2.5207,-2.5207,-2.5408,-2.5513,-2.5508,-2.5509,-2.5323,-2.4944,-2.4086,-2.3471,-2.3082,-2.2245,-2.1585,-2.1145,-2.0732,0.0,0.0,0.0,0.0,0.0,0.0,0.0,0.0,0.0,0.0,-2.0509,-2.1706,-2.2411,-2.2419,-2.3147,-2.3994,-2.4823,-2.532,-2.5976,-2.6922,-2.8589,-2.9601,-2.9611,-2.9959,-2.9809,-2.9018,-2.886,-2.8452,-2.7629,-2.742,-2.7307,-2.7171,-2.7053,-2.7079,-2.7272,-2.7015,-2.6872,-2.6981,-2.6439,-2.6066,-2.6129,-2.5858,-2.5599,-2.5586,-2.543,-2.5291,-2.5256,-2.5323,-2.5363,-2.5228,-2.5163,-2.5125,-2.4976,-2.4927,-2.4907,-2.4911,-2.4907,-2.5054,-2.5442,-2.5592,-2.5879,-2.6328,-2.6364,-2.6062,-2.5595,-2.4906,-2.4178,-2.3878,-2.3003,-2.226,-2.5246,-2.5281,-2.5271,-2.5332,-2.5388,-2.5388,-2.5397,-2.5465,0.0,0.0,0.0,-2.5607,-2.5534,-2.5426,-2.5447,-2.5512,-2.5601,-2.5546,-2.5514,-2.5488,-2.5408,-2.5206,-2.4919,-2.4902,-2.4755,-2.4524,-2.4613,-2.4651,-2.4667,-2.4974,-2.5125,-2.5157,-2.5328,-2.5451,-2.547,-2.5485,-2.551,-2.554,-2.4879,-2.4472,-2.4352,-2.3002,-2.2186,-2.2041,-2.1329,-2.0952,-2.0964,-2.0948,-2.0608,-1.9916,-1.9867,-1.9867,-1.9893,-2.0555,-2.1283,-2.2025,-2.3368,-2.4209,-2.4294,-2.4907,-2.534,-2.547,-2.6293,-2.7231,-2.819,-2.9086,-2.9601,-2.9601,-2.9595,-2.916,-2.8156,-2.7995,-2.7626,-2.6797,-2.6688,-2.6617,-2.6451,-2.639,-2.6523,-2.6916,-2.6491,-2.6171,-2.6227,-2.5869,-2.5527,-2.5599,-2.5671,-2.565,-2.5581,-2.5449,-2.5359,-2.5308,-2.5314,-2.529,-2.5199,-2.5172,-2.5145,-2.5118,-2.5057,-2.5041,-2.5054,-2.5035,-2.504,-2.5147,-2.5126,-2.525,-2.5328,-2.5306,-2.4996,-2.4831,-2.4117,-2.3263,-2.2503,-2.2041,-2.1707,-2.5212,-2.5212,-2.5212,-2.5249,-2.5322,-2.5312,-2.5293,-2.5266,-2.55,-2.5574,-2.551,-2.5572,-2.5595,-2.5566,-2.5634,-2.5668,-2.5669,-2.5605,-2.5558,-2.5496,-2.5311,-2.5147,-2.4984,-2.4874,-2.47,-2.4521,-2.4538,-2.4521,-2.4558,-2.4689,-2.4827,-2.4941,-2.5074,-2.5207,-2.5322,-2.5382,-2.5427,-2.5427,-2.543,-2.5061,-2.4325,-2.4126,-2.3682,-2.2958,-2.278,-2.272,-2.2725,-2.266,-2.261,-2.2468,-2.2472,-2.2465,-2.2473,-2.2608,-2.2781,-2.2922,-2.3156,-2.3571,-2.4263,-2.4418,-2.4735,-2.5389,-2.6268,-2.7201,-2.815,-2.9075,-2.9599,-2.9591,-2.9452,-2.8834,-2.735,-2.7089,-2.6772,-2.6035,-2.5879,-2.5838,-2.5793,-2.5775,-2.5798,-2.5848,-2.5701,-2.5638,-2.5667,-2.5632,-2.5585,-2.5602,-2.5641,-2.563,-2.5478,-2.5369,-2.5317,-2.5279,-2.5218,-2.5139,-2.5118,-2.5214,-2.5245,-2.5264,-2.5336,-2.5386,-2.538,-2.5388,-2.5374,-2.5418,-2.5374,-2.5406,-2.5508,-2.5341,-2.5088,-2.4832,-2.4155,-2.3361,-2.2467,-2.1894,-2.1433,-2.5044,-2.5022,-2.4963,-2.4953,-2.4974,-2.5003,-2.4986,-2.4951,-2.5178,-2.5275,-2.5289,-2.5323,-2.5331,-2.5336,-2.5442,-2.5446,-2.5386,-2.5492,-2.5464,-2.534,-2.5234,-2.5102,-2.493,-2.478,-2.455,-2.4302,-2.4238,-2.4248,-2.4275,-2.4414,-2.458,-2.4792,-2.4991,-2.5178,-2.5293,-2.5332,-2.5331,-2.5359,-2.5467,-2.5367,-2.5018,-2.4567,-2.4166,-2.381,-2.3332,-2.302,-2.2993,-2.2958,-2.2956,-2.295,-2.2912,-2.2934,-2.3063,-2.3494,-2.3767,-2.3819,-2.4256,-2.4664,-2.5033,-2.4923,-2.5002,-2.5379,-2.5755,-2.6423,-2.7417,-2.8311,-2.8632,-2.8193,-2.81,-2.7584,-2.6344,-2.6198,-2.6038,-2.5696,-2.5645,-2.5655,-2.5644,-2.5613,-2.5603,-2.556,-2.5528,-2.5517,-2.5556,-2.5582,-2.5612,-2.5636,-2.5635,-2.5536,-2.5414,-2.5274,-2.5193,-2.5148,-2.5058,-2.4989,-2.5008,-2.5139,-2.5229,-2.5236,-2.5398,-2.551,-2.5541,-2.5556,-2.5552,-2.5552,-2.5525,-2.5534,-2.5599,-2.5411,-2.5136,-2.4754,-2.4154,-2.3353,-2.2493,-2.1587,-2.0894,-2.4938,-2.4888,-2.4784,-2.4719,-2.4704,-2.4752,-2.4694,-2.4626,-2.4799,-2.4869,-2.4891,-2.501,-2.5091,-2.5081,-2.5195,-2.5201,-2.5129,-2.5303,-2.5312,-2.5168,-2.5147,-2.5032,-2.4794,-2.4613,-2.4335,-2.4002,-2.3969,-2.3969,-2.3983,-2.4155,-2.4391,-2.4692,-2.4968,-2.5136,-2.5213,-2.5252,-2.5272,-2.5263,-2.5371,-2.5492,-2.5556,-2.4929,-2.4625,-2.4648,-2.3987,-2.3558,-2.3512,-2.3492,-2.3485,-2.3514,-2.3439,-2.3487,-2.3671,-2.4239,-2.4627,-2.4741,-2.5297,-2.5675,-2.5644,-2.5476,-2.5357,-2.5397,-2.536,-2.5695,-2.6507,-2.721,-2.7452,-2.6974,-2.6967,-2.6573,-2.5794,-2.5606,-2.5579,-2.5586,-2.557,-2.5609,-2.5679,-2.5644,-2.5614,-2.5619,-2.5579,-2.5564,-2.5607,-2.5618,-2.5627,-2.5634,-2.5574,-2.5473,-2.537,-2.5206,-2.5075,-2.4978,-2.4889,-2.4841,-2.4837,-2.4959,-2.5078,-2.5138,-2.5297,-2.5459,-2.5537,-2.5599,-2.5619,-2.5616,-2.5607,-2.5595,-2.5576,-2.548,-2.5207,-2.4801,-2.4167,-2.3316,-2.222,-2.1105,-2.0239,-2.5057,-2.4925,-2.4874,-2.4809,-2.4685,-2.4607,-2.45,-2.4353,-2.4418,-2.4356,-2.4281,-2.476,-2.4991,-2.5013,-2.5061,-2.5061,-2.5074,-2.5133,-2.5091,-2.5014,-2.5002,-2.4806,-2.4476,-2.4421,-2.4118,-2.3654,-2.3777,-2.3735,-2.3601,-2.3963,-2.4329,-2.4686,-2.4968,-2.5044,-2.4971,-2.5136,-2.5189,-2.5137,-2.5183,-2.5337,-2.5504,-2.5479,-2.5514,-2.558,-2.5426,-2.5362,-2.524,-2.5294,-2.5279,-2.5328,-2.5221,-2.5258,-2.5333,-2.5441,-2.5499,-2.554,-2.559,-2.557,-2.5534,-2.5483,-2.5451,-2.5418,-2.5455,-2.5509,-2.5679,-2.5804,-2.619,-2.6645,-2.6866,-2.6442,-2.565,-2.5528,-2.553,-2.553,-2.5534,-2.5554,-2.5668,-2.5696,-2.5693,-2.5691,-2.5661,-2.5691,-2.5678,-2.5681,-2.5663,-2.5618,-2.5566,-2.5469,-2.5311,-2.5209,-2.5091,-2.4949,-2.4806,-2.4711,-2.4622,-2.466,-2.4823,-2.4982,-2.513,-2.5311,-2.5486,-2.558,-2.5615,-2.5634,-2.5642,-2.5599,-2.5579,-2.5515,-2.5353,-2.4889,-2.4201,-2.328,-2.1789,-2.0606,-1.9829,-2.4934,-2.4779,-2.4651,-2.442,-2.4183,-2.4183,-2.4088,-2.3894,-2.397,-2.3959,-2.3941,-2.42,-2.4355,-2.4463,-2.4463,-2.4402,-2.4335,-2.4547,-2.4629,-2.4647,-2.4653,-2.455,-2.439,-2.4109,-2.374,-2.3279,-2.318,-2.3174,-2.3356,-2.3835,-2.4377,-2.4835,-2.4946,-2.4986,-2.5027,-2.515,-2.5157,-2.506,-2.5153,-2.5254,-2.5366,-2.5415,-2.5486,-2.5614,-2.5543,-2.5495,-2.5481,-2.5427,-2.5412,-2.5472,-2.5418,-2.5464,-2.5655,-2.5622,-2.5625,-2.5681,-2.5644,-2.5582,-2.5512,-2.5463,-2.545,-2.5511,-2.5459,-2.5488,-2.5603,-2.5644,-2.5815,-2.6096,-2.6199,-2.5984,-2.5584,-2.5511,-2.5511,-2.5511,-2.5511,-2.5539,-2.5585,-2.5634,-2.5659,-2.5683,-2.57,-2.5697,-2.5698,-2.57,-2.5663,-2.5623,-2.5571,-2.5505,-2.539,-2.5363,-2.5264,-2.5123,-2.5017,-2.4896,-2.4703,-2.4652,-2.4742,-2.4846,-2.5036,-2.526,-2.5331,-2.5533,-2.5601,-2.5595,-2.5595,-2.5579,-2.5556,-2.5507,-2.5389,-2.4903,-2.3983,-2.2901,-2.1657,-2.0509,-1.9452,-2.4893,-2.4716,-2.4517,-2.4201,-2.3855,-2.3896,-2.3783,-2.354,-2.3619,-2.3671,-2.3658,-2.3575,-2.3653,-2.3815,-2.3856,-2.3832,-2.3831,-2.4001,-2.4136,-2.422,-2.4217,-2.4217,-2.4109,-2.3746,-2.331,-2.294,-2.2695,-2.2815,-2.3218,-2.376,-2.4351,-2.4818,-2.4943,-2.496,-2.4996,-2.5086,-2.5068,-2.491,-2.5013,-2.5126,-2.5226,-2.5207,-2.5297,-2.5511,-2.5432,-2.5387,-2.5387,-2.5332,-2.5351,-2.5422,-2.5366,-2.5427,-2.5632,-2.5634,-2.5631,-2.5688,-2.5653,-2.5607,-2.5521,-2.5481,-2.5511,-2.5602,-2.5522,-2.5535,-2.5662,-2.5693,-2.5702,-2.5718,-2.57,-2.5683,-2.5543,-2.5515,-2.5507,-2.5511,-2.5511,-2.5511,-2.5519,-2.5547,-2.5598,-2.5663,-2.565,-2.5674,-2.5672,-2.5693,-2.5663,-2.5588,-2.5585,-2.5561,-2.5489,-2.547,-2.5444,-2.531,-2.5235,-2.5082,-2.4832,-2.4742,-2.4748,-2.4817,-2.5001,-2.5077,-2.5139,-2.5376,-2.5507,-2.5447,-2.5519,-2.5566,-2.5537,-2.5488,-2.5338,-2.481,-2.3949,-2.2798,-2.1725,-2.0606,-1.8518,-2.5079,-2.4861,-2.4598,-2.4257,-2.3887,-2.3946,-2.3738,-2.333,-2.3486,-2.3518,-2.3353,-2.3038,-2.2963,-2.3165,-2.3354,-2.3627,-2.3732,-2.3586,-2.3638,-2.3815,-2.3835,-2.3728,-2.3531,-2.3239,-2.2933,-2.2588,-2.2516,-2.2824,-2.3459,-2.3861,-2.4236,-2.4725,-2.4968,-2.4964,-2.4818,-2.4932,-2.4869,-2.4682,-2.4733,-2.4866,-2.5051,-2.4996,-2.5082,-2.5336,-2.5347,-2.5331,-2.5387,-2.5341,-2.5361,-2.5478,-2.5416,-2.5447,-2.5595,-2.5605,-2.563,-2.5693,-2.5693,-2.5664,-2.5609,-2.5586,-2.5613,-2.5677,-2.5676,-2.5683,-2.5697,-2.5693,-2.5693,-2.5693,-2.5701,-2.5668,-2.5604,-2.555,-2.5511,-2.5519,-2.5511,-2.5511,-2.5511,-2.5517,-2.5541,-2.5595,-2.5616,-2.5625,-2.5611,-2.5654,-2.5627,-2.559,-2.5586,-2.5609,-2.5493,-2.5485,-2.5576,-2.5476,-2.533,-2.5168,-2.5014,-2.486,-2.485,-2.4907,-2.4896,-2.4907,-2.5042,-2.5168,-2.5241,-2.531,-2.5391,-2.5461,-2.5498,-2.5385,-2.517,-2.4682,-2.3975,-2.2941,-2.2017,-2.1036,-1.9198,-2.5069,-2.4865,-2.4566,-2.4265,-2.4019,-2.3726,-2.3459,-2.3223,-2.3133,-2.2966,-2.2772,-2.26,-2.2556,-2.2529,-2.2499,-2.2641,-2.2954,-2.3015,-2.3156,-2.3357,-2.3522,-2.3584,-2.3463,-2.3096,-2.279,-2.2516,-2.2343,-2.2729,-2.3599,-2.4053,-2.4509,-2.4939,-2.5133,-2.5057,-2.4905,-2.4975,-2.4907,-2.4651,-2.4702,-2.4795,-2.4823,-2.4795,-2.4828,-2.4943,-2.5136,-2.5272,-2.5332,-2.528,-2.5301,-2.544,-2.5412,-2.547,-2.5582,-2.5645,-2.568,-2.5693,-2.5699,-2.5687,-2.5657,-2.5634,-2.5619,-2.5693,-2.5702,-2.5693,-2.5694,-2.5696,-2.5701,-2.5693,-2.5697,-2.5679,-2.5668,-2.5598,-2.5545,-2.5505,-2.5511,-2.5511,-2.5511,-2.5511,-2.5515,-2.5531,-2.5586,-2.5603,-2.5655,-2.5659,-2.5666,-2.5635,-2.6084,-2.6145,-2.5837,-2.6032,-2.6237,-2.5757,-2.5532,-2.5431,-2.5341,-2.5,-2.4837,-2.486,-2.4887,-2.4942,-2.5049,-2.5088,-2.5149,-2.5129,-2.5234,-2.5324,-2.5352,-2.5472,-2.5205,-2.4744,-2.4016,-2.3302,-2.2417,-2.1698,-2.0077,-2.5094,-2.4888,-2.4657,-2.438,-2.4059,-2.378,-2.3459,-2.3193,-2.2961,-2.2764,-2.2537,-2.2311,-2.22,-2.2144,-2.1782,-2.1769,-2.2118,-2.2432,-2.2686,-2.2908,-2.3168,-2.3289,-2.3214,-2.2875,-2.2633,-2.2525,-2.2402,-2.2826,-2.3695,-2.4246,-2.4737,-2.5178,-2.5207,-2.5107,-2.4948,-2.4968,-2.4827,-2.4638,-2.4645,-2.4654,-2.4654,-2.4645,-2.4664,-2.4738,-2.4972,-2.5134,-2.5176,-2.5191,-2.526,-2.5369,-2.5387,-2.5474,-2.5617,-2.5673,-2.5693,-2.5693,-2.5693,-2.57,-2.5693,-2.5666,-2.5653,-2.5689,-2.5693,-2.5693,-2.5699,-2.5698,-2.5702,-2.5693,-2.5702,-2.5697,-2.5684,-2.5632,-2.5583,-2.5544,-2.5521,-2.5511,-2.5511,-2.5511,-2.5511,-2.5507,-2.5541,-2.5667,-2.5894,-2.5777,-2.5814,-2.5931,-2.6604,-2.6618,-2.6001,-2.6376,-2.6689,-2.5918,-2.5962,-2.5843,-2.5737,-2.5495,-2.5165,-2.5133,-2.4945,-2.4974,-2.4976,-2.5009,-2.5006,-2.4986,-2.5035,-2.5129,-2.5268,-2.543,-2.5224,-2.4836,-2.4329,-2.3665,-2.3019,-2.2555,-2.1441,-2.5143,-2.4929,-2.4902,-2.4601,-2.4174,-2.4088,-2.3705,-2.3238,-2.3111,-2.2961,-2.2677,-2.2121,-2.2036,-2.2093,-2.1401,-2.1069,-2.1432,-2.1907,-2.226,-2.2463,-2.2737,-2.2855,-2.285,-2.2666,-2.2566,-2.2569,-2.2704,-2.3154,-2.3851,-2.4424,-2.4865,-2.5148,-2.5207,-2.5105,-2.4906,-2.4799,-2.467,-2.4524,-2.4446,-2.4464,-2.4564,-2.4495,-2.4502,-2.4626,-2.4798,-2.4884,-2.4915,-2.5082,-2.526,-2.5378,-2.5387,-2.5492,-2.5646,-2.5688,-2.5693,-2.5693,-2.5698,-2.5701,-2.5693,-2.5694,-2.5689,-2.5701,-2.5693,-2.5693,-2.5693,-2.5693,-2.5692,-2.5693,-2.5693,-2.5693,-2.568,-2.5635,-2.5602,-2.5596,-2.5532,-2.5493,-2.5503,-2.5511,-2.553,-2.5567,-2.5599,-2.5896,-2.6388,-2.6228,-2.6087,-2.6691,-2.711,-2.6954,-2.6164,-2.663,-2.6622,-2.6167,-2.6091,-2.6084,-2.6072,-2.6045,-2.5725,-2.5439,-2.5154,-2.5016,-2.4926,-2.4903,-2.4865,-2.4837,-2.492,-2.5022,-2.5241,-2.5373,-2.5296,-2.4926,-2.4445,-2.4266,-2.4089,-2.3837,-2.3831,-2.5302,-2.5157,-2.5027,-2.4854,-2.4617,-2.4256,-2.397,-2.3744,-2.3324,-2.2926,-2.2599,-2.2256,-2.1982,-2.1769,-2.1384,-2.1209,-2.115,-2.1562,-2.1815,-2.1961,-2.2511,-2.2807,-2.2782,-2.2719,-2.2797,-2.2894,-2.2974,-2.3482,-2.426,-2.4722,-2.5032,-2.5235,-2.531,-2.5166,-2.4915,-2.4847,-2.4734,-2.4507,-2.4303,-2.4201,-2.4201,-2.4173,-2.4145,-2.4135,-2.4372,-2.4607,-2.4764,-2.5051,-2.5239,-2.5321,-2.534,-2.5427,-2.5585,-2.5623,-2.5664,-2.5693,-2.5701,-2.5694,-2.5697,-2.5697,-2.5699,-2.5694,-2.5694,-2.5696,-2.5699,-2.5693,-2.5693,-2.57,-2.5697,-2.5681,-2.5641,-2.5624,-2.5599,-2.5603,-2.5488,-2.5429,-2.5448,-2.5484,-2.5797,-2.6197,-2.5863,-2.6175,-2.7139,-2.6972,-2.686,-2.7644,-2.8211,-2.8086,-2.7035,-2.7086,-2.7433,-2.6815,-2.6621,-2.6263,-2.6229,-2.6164,-2.5974,-2.5657,-2.5359,-2.5266,-2.5129,-2.487,-2.4802,-2.4774,-2.4847,-2.4967,-2.5197,-2.5281,-2.5226,-2.5254,-2.5017,-2.5076,-2.5291,-2.5131,-2.4751,-2.5385,-2.5313,-2.5142,-2.5008,-2.4904,-2.4554,-2.4265,-2.405,-2.3649,-2.3248,-2.2889,-2.2494,-2.2231,-2.1956,-2.1549,-2.1243,-2.1126,-2.1279,-2.1311,-2.1507,-2.229,-2.272,-2.279,-2.279,-2.2903,-2.3091,-2.3194,-2.3739,-2.4615,-2.4873,-2.5085,-2.5284,-2.5318,-2.5167,-2.4883,-2.4861,-2.4719,-2.441,-2.4229,-2.4067,-2.3928,-2.3896,-2.3876,-2.3869,-2.4154,-2.4426,-2.4651,-2.4927,-2.5139,-2.5274,-2.5347,-2.5449,-2.5586,-2.56,-2.5623,-2.5661,-2.5655,-2.5655,-2.5658,-2.5671,-2.5679,-2.5695,-2.5693,-2.5694,-2.5693,-2.5701,-2.5692,-2.5697,-2.5673,-2.5636,-2.5611,-2.5575,-2.5557,-2.5543,-2.5469,-2.5401,-2.5421,-2.5463,-2.5654,-2.603,-2.6047,-2.6706,-2.7478,-2.7772,-2.7727,-2.8532,-2.8874,-2.8635,-2.7475,-2.7317,-2.7107,-2.6854,-2.6544,-2.6335,-2.6328,-2.6259,-2.6164,-2.5871,-2.5555,-2.5601,-2.5587,-2.5184,-2.4947,-2.4884,-2.4905,-2.4959,-2.515,-2.5283,-2.5303,-2.5382,-2.5387,-2.5487,-2.5469,-2.5183,-2.4977,-2.5463,-2.5398,-2.5265,-2.5163,-2.5022,-2.4904,-2.4592,-2.4192,-2.405,-2.3762,-2.336,-2.2898,-2.2704,-2.2572,-2.1688,-2.1252,-2.1229,-2.1026,-2.1018,-2.1339,-2.2039,-2.2605,-2.2868,-2.2893,-2.3021,-2.3247,-2.3431,-2.3952,-2.4707,-2.4895,-2.5096,-2.5274,-2.5207,-2.5064,-2.4846,-2.4813,-2.4614,-2.4275,-2.4201,-2.399,-2.371,-2.368,-2.3753,-2.3867,-2.4065,-2.4312,-2.4573,-2.4742,-2.4966,-2.5255,-2.5382,-2.5468,-2.5553,-2.5583,-2.5579,-2.5596,-2.5597,-2.5591,-2.5596,-2.5599,-2.5609,-2.5649,-2.5676,-2.5691,-2.5678,-2.5697,-2.5692,-2.5699,-2.5647,-2.5611,-2.5595,-2.5543,-2.551,-2.5495,-2.5464,-2.5437,-2.5501,-2.5493,-2.5611,-2.5713,-2.6214,-2.7039,-2.7878,-2.8005,-2.8307,-2.8968,-2.8815,-2.801,-2.7454,-2.7142,-2.6571,-2.6452,-2.6558,-2.635,-2.6333,-2.6113,-2.6069,-2.6233,-2.5845,-2.5679,-2.5736,-2.5355,-2.5106,-2.5028,-2.4915,-2.497,-2.5051,-2.5168,-2.521,-2.5192,-2.5315,-2.5532,-2.5551,-2.5361,-2.5205,-2.5541,-2.5473,-2.5434,-2.5377,-2.5274,-2.5065,-2.4812,-2.4498,-2.4155,-2.3883,-2.3588,-2.3327,-2.3007,-2.2643,-2.2105,-2.1578,-2.1197,-2.106,-2.1175,-2.1499,-2.1994,-2.2632,-2.3064,-2.323,-2.3405,-2.3707,-2.3794,-2.4198,-2.4856,-2.4872,-2.4984,-2.5214,-2.5131,-2.499,-2.4828,-2.4813,-2.4588,-2.4229,-2.4048,-2.3816,-2.3544,-2.3495,-2.3544,-2.368,-2.3867,-2.4145,-2.4442,-2.4617,-2.4847,-2.5053,-2.5203,-2.5321,-2.5385,-2.543,-2.5501,-2.5575,-2.555,-2.5527,-2.5531,-2.5527,-2.5537,-2.5553,-2.5598,-2.5634,-2.5619,-2.5671,-2.5693,-2.5699,-2.5684,-2.5648,-2.5591,-2.5541,-2.5507,-2.5517,-2.5488,-2.548,-2.5499,-2.5522,-2.566,-2.614,-2.5992,-2.6899,-2.7826,-2.7985,-2.7828,-2.8781,-2.8622,-2.8007,-2.75,-2.6924,-2.6388,-2.6814,-2.6919,-2.6549,-2.6262,-2.6021,-2.6054,-2.6457,-2.6155,-2.559,-2.5551,-2.5331,-2.5222,-2.5187,-2.4903,-2.4864,-2.4932,-2.5011,-2.5007,-2.5008,-2.5532,-2.5876,-2.5878,-2.575,-2.5448,-2.5622,-2.5571,-2.5525,-2.5482,-2.5403,-2.5184,-2.4949,-2.4666,-2.4352,-2.4059,-2.3828,-2.3685,-2.3396,-2.3028,-2.2557,-2.202,-2.1493,-2.1271,-2.1254,-2.1471,-2.2005,-2.2643,-2.319,-2.3459,-2.3707,-2.398,-2.4063,-2.4392,-2.4799,-2.4837,-2.4906,-2.5056,-2.5122,-2.4994,-2.4784,-2.4855,-2.4653,-2.4229,-2.4019,-2.3804,-2.3481,-2.3383,-2.3458,-2.358,-2.3723,-2.3952,-2.4282,-2.448,-2.4697,-2.4896,-2.5084,-2.5235,-2.5325,-2.5365,-2.5444,-2.5531,-2.547,-2.5456,-2.5451,-2.5464,-2.5456,-2.5473,-2.5517,-2.5565,-2.5591,-2.5632,-2.5662,-2.5697,-2.5668,-2.5634,-2.5615,-2.5568,-2.5553,-2.5545,-2.5545,-2.555,-2.5556,-2.5896,-2.6028,-2.6215,-2.6632,-2.695,-2.8112,-2.7663,-2.8026,-2.8374,-2.8024,-2.7684,-2.7393,-2.6784,-2.6371,-2.6657,-2.6634,-2.6145,-2.597,-2.5814,-2.5762,-2.6169,-2.6182,-2.5626,-2.5499,-2.5362,-2.5318,-2.5222,-2.4946,-2.4753,-2.4804,-2.4841,-2.4847,-2.5084,-2.5725,-2.5898,-2.5765,-2.5555,-2.5323,-2.5692,-2.5697,-2.5571,-2.5515,-2.5483,-2.5303,-2.5018,-2.4705,-2.4531,-2.4275,-2.3989,-2.3928,-2.3765,-2.3649,-2.3032,-2.2542,-2.2112,-2.1562,-2.1352,-2.1549,-2.2074,-2.278,-2.3303,-2.3649,-2.3845,-2.4038,-2.4217,-2.4496,-2.4737,-2.4795,-2.4842,-2.4942,-2.5111,-2.5016,-2.4808,-2.4906,-2.4689,-2.4229,-2.4106,-2.3896,-2.3549,-2.3439,-2.3435,-2.3567,-2.3628,-2.3792,-2.408,-2.4301,-2.4508,-2.4747,-2.5032,-2.5205,-2.5339,-2.5367,-2.5414,-2.5434,-2.5424,-2.5423,-2.5393,-2.5401,-2.5411,-2.5408,-2.5482,-2.5541,-2.5585,-2.5615,-2.5665,-2.5694,-2.564,-2.5596,-2.5566,-2.5574,-2.5564,-2.5556,-2.5576,-2.5597,-2.5843,-2.6419,-2.6533,-2.5784,-2.7534,-2.7698,-2.7455,-2.757,-2.8364,-2.7665,-2.7313,-2.7034,-2.6829,-2.6401,-2.611,-2.6127,-2.5934,-2.5561,-2.5549,-2.5578,-2.5615,-2.5771,-2.5819,-2.5593,-2.558,-2.5473,-2.5412,-2.5261,-2.4943,-2.4729,-2.4633,-2.4657,-2.4704,-2.4891,-2.5349,-2.5329,-2.5201,-2.4922,-2.4689,-2.5699,-2.5693,-2.5607,-2.5576,-2.555,-2.5366,-2.5055,-2.4686,-2.4496,-2.4229,-2.3979,-2.399,-2.3881,-2.364,-2.3403,-2.3005,-2.2409,-2.188,-2.1591,-2.1899,-2.2423,-2.2975,-2.3449,-2.3813,-2.4004,-2.4155,-2.4437,-2.4629,-2.4712,-2.4706,-2.4784,-2.4888,-2.4861,-2.4803,-2.4753,-2.4822,-2.466,-2.4238,-2.4172,-2.3976,-2.3669,-2.3522,-2.3495,-2.3593,-2.368,-2.3701,-2.3765,-2.4145,-2.4437,-2.4604,-2.4876,-2.5148,-2.5272,-2.5395,-2.5461,-2.5481,-2.547,-2.545,-2.5415,-2.5393,-2.5385,-2.5395,-2.5464,-2.5517,-2.5595,-2.5632,-2.5675,-2.5683,-2.5634,-2.5536,-2.5457,-2.5429,-2.5448,-2.5466,-2.5508,-2.579,-2.6405,-2.6763,-2.674,-2.6652,-2.6881,-2.7036,-2.6572,-2.6283,-2.667,-2.6753,-2.6657,-2.6334,-2.6142,-2.5977,-2.5925,-2.5863,-2.5667,-2.5426,-2.5447,-2.5511,-2.5585,-2.5609,-2.561,-2.5582,-2.557,-2.5527,-2.5436,-2.5211,-2.4934,-2.4752,-2.4635,-2.4588,-2.4644,-2.4818,-2.4958,-2.5069,-2.502,-2.4576,-2.4417,-2.5701,-2.5692,-2.567,-2.5622,-2.5562,-2.5351,-2.5043,-2.4681,-2.4368,-2.4145,-2.3979,-2.4039,-2.4001,-2.3921,-2.375,-2.3412,-2.2891,-2.2187,-2.2003,-2.2288,-2.2565,-2.2909,-2.3407,-2.3759,-2.3961,-2.4117,-2.4365,-2.4502,-2.451,-2.4526,-2.4559,-2.4731,-2.4731,-2.4784,-2.4789,-2.4865,-2.4744,-2.4426,-2.4321,-2.4151,-2.3841,-2.3651,-2.3571,-2.3557,-2.3619,-2.3628,-2.3687,-2.4118,-2.4436,-2.4661,-2.4954,-2.5205,-2.5325,-2.5437,-2.5506,-2.5511,-2.5514,-2.5489,-2.546,-2.5406,-2.5391,-2.5406,-2.5451,-2.5498,-2.5539,-2.5585,-2.5615,-2.5615,-2.5554,-2.5441,-2.5321,-2.5304,-2.531,-2.5338,-2.5397,-2.5834,-2.6591,-2.7174,-2.7461,-2.743,-2.7734,-2.7394,-2.6848,-2.603,-2.5785,-2.6249,-2.6187,-2.5908,-2.5898,-2.5759,-2.5753,-2.5683,-2.5542,-2.5421,-2.5423,-2.5488,-2.5586,-2.5612,-2.5629,-2.5579,-2.5538,-2.549,-2.5419,-2.5219,-2.5032,-2.4832,-2.4723,-2.4662,-2.4625,-2.4738,-2.4889,-2.5022,-2.4991,-2.4686,-2.466,-2.5576,-2.5694,-2.5681,-2.5656,-2.5567,-2.5298,-2.4993,-2.4676,-2.4264,-2.4067,-2.4016,-2.399,-2.4097,-2.422,-2.4108,-2.385,-2.3391,-2.2809,-2.2557,-2.2809,-2.2728,-2.3085,-2.354,-2.3807,-2.397,-2.4145,-2.4275,-2.4312,-2.4293,-2.4321,-2.4479,-2.4578,-2.4712,-2.4795,-2.4856,-2.4964,-2.4884,-2.4545,-2.4486,-2.433,-2.4034,-2.3825,-2.3674,-2.3566,-2.3644,-2.3698,-2.3878,-2.4241,-2.4597,-2.4821,-2.5153,-2.5371,-2.5485,-2.5515,-2.5522,-2.5522,-2.5541,-2.5524,-2.5488,-2.5454,-2.5432,-2.5434,-2.5472,-2.5496,-2.5512,-2.5517,-2.5533,-2.5505,-2.5435,-2.5231,-2.5124,-2.5082,-2.5107,-2.5159,-2.5266,-2.5758,-2.6583,-2.7482,-2.7674,-2.7779,-2.7655,-2.7347,-2.6782,-2.6083,-2.5872,-2.5679,-2.5602,-2.5557,-2.5564,-2.554,-2.5532,-2.5447,-2.5282,-2.5178,-2.5173,-2.5366,-2.5486,-2.5534,-2.5563,-2.5576,-2.5529,-2.5517,-2.5484,-2.5381,-2.5196,-2.5011,-2.4862,-2.4811,-2.478,-2.4755,-2.4866,-2.5094,-2.502,-2.4812,-2.4857,-2.5,-2.5698,-2.564,-2.5603,-2.554,-2.5255,-2.4962,-2.4657,-2.4273,-2.4039,-2.3948,-2.3969,-2.4126,-2.4292,-2.4463,-2.4231,-2.3804,-2.3343,-2.3222,-2.3379,-2.3254,-2.3485,-2.3946,-2.401,-2.4154,-2.4247,-2.4284,-2.4237,-2.4229,-2.433,-2.4497,-2.4651,-2.4759,-2.4818,-2.4921,-2.4995,-2.4966,-2.4695,-2.4635,-2.4468,-2.4228,-2.3998,-2.3792,-2.3674,-2.3833,-2.3932,-2.4052,-2.4526,-2.4924,-2.4983,-2.5298,-2.5496,-2.5584,-2.5549,-2.5534,-2.5566,-2.5593,-2.5577,-2.5515,-2.5541,-2.5538,-2.5522,-2.5537,-2.5574,-2.5572,-2.5528,-2.5483,-2.5385,-2.5201,-2.4949,-2.4652,-2.4718,-2.4799,-2.4895,-2.5078,-2.5447,-2.6296,-2.6757,-2.695,-2.6905,-2.7031,-2.7169,-2.6562,-2.6019,-2.5682,-2.5495,-2.5443,-2.5385,-2.5368,-2.5323,-2.5275,-2.5146,-2.5,-2.4934,-2.4878,-2.5147,-2.534,-2.5379,-2.5429,-2.5559,-2.5548,-2.5584,-2.5545,-2.5439,-2.5354,-2.5207,-2.5079,-2.5003,-2.5001,-2.5048,-2.5134,-2.523,-2.5134,-2.503,-2.4831,-2.5281,-2.5689,-2.5664,-2.5632,-2.5564,-2.5327,-2.5044,-2.4771,-2.4426,-2.4201,-2.4173,-2.4174,-2.4282,-2.4487,-2.4595,-2.4495,-2.4284,-2.404,-2.3943,-2.3998,-2.3839,-2.3833,-2.4219,-2.4145,-2.4182,-2.4219,-2.4238,-2.4247,-2.421,-2.433,-2.4519,-2.467,-2.4781,-2.4894,-2.5088,-2.5205,-2.5098,-2.4907,-2.4828,-2.4711,-2.4442,-2.422,-2.4034,-2.4007,-2.4118,-2.4254,-2.4431,-2.4789,-2.5126,-2.5221,-2.5421,-2.5564,-2.5606,-2.5576,-2.5551,-2.5616,-2.5644,-2.564,-2.5586,-2.5605,-2.5586,-2.5623,-2.5615,-2.5581,-2.5544,-2.5474,-2.5365,-2.5159,-2.4979,-2.469,-2.4458,-2.4439,-2.4496,-2.4592,-2.4728,-2.5069,-2.5492,-2.5734,-2.5821,-2.5917,-2.6368,-2.6528,-2.6344,-2.5863,-2.5464,-2.5311,-2.5266,-2.5201,-2.515,-2.5079,-2.4991,-2.4788,-2.465,-2.4666,-2.4661,-2.4915,-2.5116,-2.5168,-2.5307,-2.5432,-2.5537,-2.5556,-2.5556,-2.5516,-2.5437,-2.5376,-2.5365,-2.5298,-2.5319,-2.5327,-2.5376,-2.5401,-2.5347,-2.5237,-2.5005,-2.5531,-2.5694,-2.5699,-2.5652,-2.5567,-2.5383,-2.5159,-2.4895,-2.4603,-2.4452,-2.4452,-2.4385,-2.4507,-2.4752,-2.4869,-2.4892,-2.4841,-2.462,-2.4534,-2.451,-2.4251,-2.4164,-2.4229,-2.4192,-2.4192,-2.4339,-2.433,-2.4302,-2.4347,-2.4426,-2.4554,-2.4761,-2.4869,-2.5034,-2.5274,-2.5367,-2.5294,-2.5187,-2.512,-2.4977,-2.4719,-2.4529,-2.4389,-2.4352,-2.4463,-2.4625,-2.4797,-2.5072,-2.5271,-2.5381,-2.5491,-2.5579,-2.5575,-2.5544,-2.5564,-2.5636,-2.5657,-2.5671,-2.5661,-2.5652,-2.5639,-2.5658,-2.5609,-2.5562,-2.5482,-2.5363,-2.5186,-2.4866,-2.4576,-2.4363,-2.4154,-2.4108,-2.4109,-2.4201,-2.4344,-2.4566,-2.4725,-2.4884,-2.4959,-2.5237,-2.5788,-2.5871,-2.5697,-2.5608,-2.519,-2.509,-2.5044,-2.4866,-2.4808,-2.477,-2.4648,-2.4405,-2.4294,-2.4361,-2.4457,-2.4662,-2.4819,-2.4894,-2.5108,-2.5303,-2.5408,-2.5498,-2.552,-2.5551,-2.5594,-2.5556,-2.5569,-2.5554,-2.5512,-2.5512,-2.5574,-2.5554,-2.5448,-2.5275,-2.5048,-2.4954,-2.5693,-2.5693,-2.5652,-2.5571,-2.5395,-2.5235,-2.505,-2.4788,-2.4666,-2.4665,-2.4576,-2.4714,-2.5038,-2.535,-2.5437,-2.5308,-2.5057,-2.4901,-2.4885,-2.4595,-2.4467,-2.4587,-2.4502,-2.4426,-2.447,-2.4523,-2.4545,-2.4543,-2.4604,-2.4766,-2.4993,-2.5127,-2.5292,-2.5392,-2.5457,-2.5385,-2.5224,-2.519,-2.5065,-2.486,-2.4816,-2.4781,-2.4799,-2.488,-2.4998,-2.5086,-2.5238,-2.5347,-2.5413,-2.5474,-2.5528,-2.5573,-2.5551,-2.5544,-2.5566,-2.5574,-2.5546,-2.5617,-2.5649,-2.5655,-2.5644,-2.5607,-2.5556,-2.5417,-2.5203,-2.4945,-2.4572,-2.4247,-2.3972,-2.3804,-2.358,-2.3566,-2.3681,-2.3848,-2.4118,-2.4307,-2.4349,-2.4381,-2.4494,-2.5016,-2.5103,-2.5034,-2.5001,-2.4946,-2.4886,-2.479,-2.4591,-2.4436,-2.4376,-2.4379,-2.4164,-2.4052,-2.4108,-2.4254,-2.4461,-2.4601,-2.4667,-2.4941,-2.5185,-2.5304,-2.5424,-2.5543,-2.5589,-2.5639,-2.5647,-2.5605,-2.5595,-2.5624,-2.5615,-2.56,-2.5565,-2.5512,-2.5299,-2.4953,-2.5255,-2.5693,-2.5693,-2.5692,-2.5654,-2.556,-2.5393,-2.5216,-2.509,-2.4979,-2.4905,-2.4881,-2.5059,-2.5331,-2.5498,-2.549,-2.5412,-2.5248,-2.5127,-2.5039,-2.4795,-2.4639,-2.4594,-2.4521,-2.4479,-2.4528,-2.4545,-2.4601,-2.467,-2.4725,-2.4861,-2.516,-2.5242,-2.5325,-2.547,-2.5537,-2.5459,-2.5365,-2.5311,-2.5245,-2.5132,-2.5105,-2.5121,-2.513,-2.5187,-2.5205,-2.5214,-2.5205,-2.5176,-2.5149,-2.5111,-2.5091,-2.5122,-2.5176,-2.5243,-2.5314,-2.5372,-2.5459,-2.5586,-2.5611,-2.5623,-2.5625,-2.5572,-2.5459,-2.5284,-2.5057,-2.4786,-2.4477,-2.4118,-2.383,-2.3593,-2.3454,-2.3422,-2.3464,-2.3464,-2.3723,-2.3955,-2.3975,-2.4024,-2.4118,-2.4229,-2.4376,-2.446,-2.4409,-2.4375,-2.431,-2.4226,-2.409,-2.3961,-2.3903,-2.3925,-2.395,-2.3887,-2.3892,-2.4072,-2.4254,-2.4454,-2.4582,-2.4891,-2.5113,-2.5236,-2.5348,-2.5484,-2.5582,-2.5629,-2.5636,-2.5613,-2.561,-2.5619,-2.5603,-2.5576,-2.5449,-2.5273,-2.4818,-2.4479,-2.5581,-2.5683,-2.5692,-2.5693,-2.5693,-2.5701,-2.5572,-2.5396,-2.5363,-2.5282,-2.5197,-2.5244,-2.5372,-2.551,-2.5542,-2.5543,-2.5479,-2.536,-2.5236,-2.5061,-2.4887,-2.4732,-2.4623,-2.4504,-2.4479,-2.4502,-2.4444,-2.451,-2.4591,-2.4689,-2.4828,-2.5234,-2.5243,-2.5341,-2.5478,-2.5564,-2.5551,-2.5504,-2.5457,-2.5412,-2.5343,-2.5301,-2.5347,-2.5371,-2.5361,-2.527,-2.5194,-2.5115,-2.4996,-2.4818,-2.4818,-2.4804,-2.477,-2.4879,-2.4962,-2.5011,-2.5064,-2.512,-2.5263,-2.5373,-2.5526,-2.5537,-2.5439,-2.5223,-2.4976,-2.4827,-2.4598,-2.4237,-2.3876,-2.3642,-2.345,-2.3292,-2.3164,-2.314,-2.3194,-2.3441,-2.364,-2.3665,-2.3741,-2.3903,-2.3941,-2.3908,-2.3954,-2.3862,-2.3801,-2.3729,-2.3644,-2.3583,-2.3597,-2.3607,-2.3682,-2.381,-2.3946,-2.3941,-2.4007,-2.4155,-2.4312,-2.4526,-2.4832,-2.506,-2.5193,-2.534,-2.5498,-2.5567,-2.5628,-2.5628,-2.5622,-2.5611,-2.56,-2.5581,-2.5498,-2.5224,-2.4927,-2.4422,-2.3967,-2.5543,-2.5617,-2.5672,-2.5693,-2.5693,-2.5693,-2.5661,-2.5559,-2.5558,-2.5549,-2.5507,-2.5561,-2.5542,-2.5594,-2.5634,-2.5661,-2.5657,-2.5488,-2.53,-2.5132,-2.4998,-2.4828,-2.4716,-2.4642,-2.4589,-2.4564,-2.4479,-2.44,-2.4381,-2.4523,-2.4757,-2.5077,-2.5157,-2.5294,-2.5417,-2.5525,-2.5598,-2.5562,-2.5525,-2.548,-2.5429,-2.539,-2.5388,-2.5437,-2.5412,-2.534,-2.519,-2.5083,-2.4906,-2.4659,-2.464,-2.4606,-2.4567,-2.4582,-2.4618,-2.4648,-2.4568,-2.4553,-2.4591,-2.5022,-2.5312,-2.5274,-2.5087,-2.4815,-2.4545,-2.4349,-2.4123,-2.3891,-2.3594,-2.3336,-2.3096,-2.2859,-2.2842,-2.2867,-2.2976,-2.3122,-2.3303,-2.3396,-2.3477,-2.3653,-2.371,-2.3725,-2.3634,-2.3611,-2.3576,-2.3513,-2.3518,-2.3455,-2.3531,-2.3553,-2.3607,-2.3761,-2.4012,-2.4069,-2.4026,-2.4172,-2.4373,-2.4519,-2.4761,-2.4983,-2.5177,-2.533,-2.5482,-2.5561,-2.5614,-2.5626,-2.5632,-2.5619,-2.5595,-2.5561,-2.5386,-2.4994,-2.4306,-2.3607,-2.3235,-2.5571,-2.56,-2.5627,-2.5659,-2.5693,-2.5698,-2.5679,-2.5664,-2.562,-2.5603,-2.5603,-2.5606,-2.5605,-2.5615,-2.566,-2.5678,-2.5623,-2.5478,-2.5339,-2.5216,-2.5078,-2.4978,-2.4869,-2.479,-2.4723,-2.4629,-2.4519,-2.4419,-2.4393,-2.4448,-2.4566,-2.4785,-2.4986,-2.5166,-2.5308,-2.5429,-2.5508,-2.5481,-2.5381,-2.5261,-2.5298,-2.5222,-2.5217,-2.5308,-2.5403,-2.5327,-2.5206,-2.5087,-2.4861,-2.4641,-2.4524,-2.4402,-2.427,-2.4181,-2.4145,-2.4126,-2.3953,-2.3778,-2.3892,-2.4454,-2.4923,-2.4717,-2.4498,-2.4244,-2.4046,-2.3938,-2.3771,-2.3559,-2.3374,-2.3181,-2.3046,-2.2833,-2.2712,-2.2712,-2.2773,-2.2917,-2.3033,-2.3155,-2.3321,-2.3518,-2.3603,-2.3656,-2.3538,-2.3407,-2.3363,-2.3304,-2.3324,-2.3362,-2.3421,-2.3562,-2.3652,-2.3752,-2.4023,-2.4096,-2.4045,-2.4217,-2.4441,-2.4576,-2.47,-2.4954,-2.5171,-2.5301,-2.5449,-2.5532,-2.5605,-2.5619,-2.5615,-2.5605,-2.558,-2.5536,-2.5145,-2.4634,-2.3823,-2.2892,-2.2647,-2.551,-2.5542,-2.5535,-2.5584,-2.5665,-2.5664,-2.5668,-2.5665,-2.56,-2.5559,-2.558,-2.5584,-2.559,-2.5605,-2.5633,-2.5643,-2.5591,-2.5517,-2.5444,-2.5352,-2.527,-2.5166,-2.5109,-2.5024,-2.4939,-2.4774,-2.469,-2.4629,-2.4431,-2.4492,-2.4554,-2.4645,-2.478,-2.5014,-2.5146,-2.5322,-2.5399,-2.5309,-2.5192,-2.4995,-2.5038,-2.496,-2.5011,-2.5143,-2.5235,-2.5264,-2.5153,-2.5022,-2.4822,-2.4566,-2.4356,-2.4165,-2.3958,-2.3769,-2.3617,-2.341,-2.3209,-2.2964,-2.3108,-2.3694,-2.4199,-2.3949,-2.3929,-2.3719,-2.358,-2.3549,-2.3472,-2.3245,-2.3182,-2.3151,-2.3011,-2.2782,-2.2685,-2.2712,-2.2712,-2.2816,-2.2935,-2.306,-2.3221,-2.3408,-2.3471,-2.351,-2.3333,-2.3188,-2.3038,-2.3036,-2.3126,-2.3188,-2.3298,-2.3486,-2.3768,-2.3873,-2.4036,-2.4041,-2.4025,-2.4255,-2.4431,-2.4494,-2.468,-2.4964,-2.517,-2.5312,-2.5441,-2.5551,-2.5605,-2.5601,-2.5593,-2.5575,-2.5541,-2.549,-2.4838,-2.4026,-2.3257,-2.2418,-2.2314,-2.5354,-2.5391,-2.5409,-2.5473,-2.5574,-2.5607,-2.5586,-2.5573,-2.551,-2.5477,-2.5478,-2.5546,-2.5532,-2.5517,-2.5552,-2.5575,-2.5599,-2.559,-2.5554,-2.549,-2.5474,-2.5405,-2.5327,-2.5236,-2.5168,-2.5144,-2.4957,-2.4706,-2.4447,-2.4486,-2.4535,-2.4521,-2.4609,-2.4902,-2.4958,-2.5254,-2.5298,-2.5129,-2.5072,-2.4827,-2.4666,-2.461,-2.4724,-2.4873,-2.5042,-2.5106,-2.5099,-2.5053,-2.4856,-2.4561,-2.4329,-2.4063,-2.373,-2.3572,-2.3245,-2.271,-2.2608,-2.23,-2.1959,-2.2815,-2.3115,-2.3131,-2.3186,-2.3198,-2.3154,-2.3173,-2.3129,-2.2833,-2.2901,-2.2902,-2.2808,-2.2677,-2.2659,-2.2712,-2.2712,-2.2738,-2.285,-2.3003,-2.3166,-2.3292,-2.3348,-2.3362,-2.3154,-2.2953,-2.2738,-2.2729,-2.2885,-2.301,-2.317,-2.3414,-2.3726,-2.3873,-2.3976,-2.395,-2.3994,-2.4264,-2.4439,-2.4484,-2.4616,-2.491,-2.5168,-2.534,-2.5463,-2.5578,-2.5609,-2.5619,-2.5581,-2.5546,-2.536,-2.5043,-2.4058,-2.3217,-2.252,-2.2116,-2.2073,-2.539,-2.539,-2.5347,-2.5362,-2.5401,-2.5404,-2.5415,-2.5363,-2.5278,-2.5242,-2.5261,-2.5308,-2.5355,-2.5374,-2.5453,-2.5508,-2.5595,-2.5603,-2.5584,-2.5624,-2.5627,-2.5576,-2.5502,-2.544,-2.5381,-2.5189,-2.4985,-2.472,-2.4284,-2.437,-2.4088,-2.3971,-2.4425,-2.4779,-2.5114,-2.5323,-2.5229,-2.4975,-2.4636,-2.4275,-2.4132,-2.4108,-2.4189,-2.4422,-2.4708,-2.49,-2.4985,-2.4946,-2.4828,-2.4578,-2.4355,-2.4053,-2.3626,-2.3413,-2.2883,-2.226,-2.1943,-2.1328,-2.1079,-2.1486,-2.2127,-2.2303,-2.252,-2.2603,-2.2458,-2.2704,-2.2599,-2.2492,-2.2572,-2.258,-2.2515,-2.2487,-2.2515,-2.2659,-2.2712,-2.2712,-2.2808,-2.2961,-2.3126,-2.3173,-2.3232,-2.3117,-2.2963,-2.2877,-2.2693,-2.2649,-2.2799,-2.2961,-2.3124,-2.3379,-2.3675,-2.3771,-2.385,-2.3855,-2.393,-2.4127,-2.4291,-2.4368,-2.4557,-2.4834,-2.5072,-2.533,-2.5482,-2.5583,-2.5614,-2.5629,-2.5504,-2.5337,-2.4966,-2.4447,-2.3617,-2.295,-2.2412,-2.2116,-2.2013,-2.5284,-2.5322,-2.5264,-2.5214,-2.5204,-2.522,-2.5202,-2.5165,-2.5087,-2.5064,-2.5083,-2.5159,-2.5253,-2.5307,-2.5372,-2.5463,-2.5591,-2.5607,-2.5632,-2.5687,-2.5698,-2.5654,-2.5634,-2.5613,-2.5511,-2.532,-2.5184,-2.4967,-2.4718,-2.4365,-2.4166,-2.4127,-2.4224,-2.47,-2.5009,-2.5012,-2.4767,-2.438,-2.3883,-2.3405,-2.3225,-2.3204,-2.337,-2.3702,-2.4031,-2.4313,-2.4534,-2.4655,-2.4663,-2.4424,-2.4182,-2.3888,-2.3438,-2.2964,-2.245,-2.1769,-2.1086,-2.063,-2.0634,-2.075,-2.1417,-2.1852,-2.2006,-2.2182,-2.2248,-2.2545,-2.2455,-2.2345,-2.2273,-2.2271,-2.2293,-2.2321,-2.2369,-2.2508,-2.2535,-2.2508,-2.2526,-2.2669,-2.2799,-2.2866,-2.3033,-2.2929,-2.2864,-2.2795,-2.2727,-2.2746,-2.2773,-2.2944,-2.3126,-2.3401,-2.3663,-2.3753,-2.3795,-2.3789,-2.3813,-2.3908,-2.408,-2.4237,-2.4526,-2.4847,-2.5063,-2.532,-2.5454,-2.5584,-2.5625,-2.5589,-2.5367,-2.5105,-2.4656,-2.4137,-2.35,-2.2882,-2.2352,-2.2112,-2.1962,-2.5082,-2.5174,-2.512,-2.5063,-2.5006,-2.5047,-2.5,-2.4883,-2.4914,-2.4937,-2.4981,-2.5083,-2.5166,-2.5254,-2.5347,-2.5466,-2.5579,-2.5596,-2.5642,-2.5671,-2.5697,-2.5701,-2.5696,-2.5681,-2.5587,-2.5574,-2.5445,-2.5222,-2.5276,-2.4692,-2.4433,-2.4416,-2.4389,-2.459,-2.4617,-2.4403,-2.411,-2.3685,-2.3141,-2.2548,-2.2125,-2.208,-2.2289,-2.2605,-2.2892,-2.3204,-2.3423,-2.358,-2.3586,-2.3469,-2.3349,-2.3117,-2.2806,-2.2392,-2.1757,-2.1062,-2.0296,-2.027,-2.0439,-2.0591,-2.1191,-2.1812,-2.2278,-2.2434,-2.2485,-2.2506,-2.2441,-2.2304,-2.2186,-2.2138,-2.2118,-2.2118,-2.211,-2.2166,-2.2195,-2.2186,-2.2141,-2.2237,-2.2339,-2.2511,-2.2789,-2.2842,-2.2919,-2.2884,-2.2868,-2.2903,-2.2944,-2.3061,-2.3247,-2.3494,-2.3694,-2.375,-2.3795,-2.3756,-2.3789,-2.3885,-2.4058,-2.4283,-2.4629,-2.493,-2.5133,-2.531,-2.5464,-2.5579,-2.5637,-2.5522,-2.5185,-2.4755,-2.4261,-2.373,-2.319,-2.2799,-2.2281,-2.2036,-2.193,-2.5091,-2.5103,-2.5006,-2.494,-2.4903,-2.4789,-2.4692,-2.4613,-2.4441,-2.4425,-2.4596,-2.4762,-2.4917,-2.4958,-2.5245,-2.5426,-2.5522,-2.559,-2.5642,-2.5678,-2.57,-2.5693,-2.5696,-2.5683,-2.5625,-2.5507,-2.5377,-2.5216,-2.4816,-2.4485,-2.4301,-2.4129,-2.4227,-2.4242,-2.4044,-2.3685,-2.3382,-2.2996,-2.2407,-2.164,-2.1073,-2.092,-2.109,-2.1184,-2.1513,-2.1814,-2.2022,-2.2406,-2.245,-2.2347,-2.25,-2.2399,-2.2048,-2.1523,-2.0883,-1.9802,-1.954,-1.9625,-2.0131,-2.0804,-2.1477,-2.2064,-2.2707,-2.2649,-2.2604,-2.253,-2.253,-2.2349,-2.2089,-2.2011,-2.1986,-2.1995,-2.202,-2.2074,-2.2099,-2.2089,-2.2073,-2.2124,-2.2228,-2.2465,-2.2712,-2.29,-2.2972,-2.3041,-2.3021,-2.3086,-2.3157,-2.3262,-2.3351,-2.3603,-2.3714,-2.3783,-2.3838,-2.3819,-2.3861,-2.3944,-2.4163,-2.4373,-2.4702,-2.5022,-2.5244,-2.54,-2.5505,-2.5552,-2.5584,-2.5294,-2.4898,-2.4416,-2.3896,-2.3403,-2.2884,-2.2565,-2.2271,-2.2044,-2.1894,-2.4994,-2.5028,-2.4889,-2.4807,-2.4753,-2.4538,-2.441,-2.4339,-2.4247,-2.4247,-2.4348,-2.4607,-2.4751,-2.4855,-2.516,-2.5395,-2.5518,-2.5544,-2.5605,-2.5687,-2.5697,-2.5694,-2.5694,-2.5648,-2.5571,-2.5441,-2.5305,-2.5157,-2.4755,-2.4454,-2.4254,-2.4137,-2.4011,-2.3894,-2.3646,-2.309,-2.2444,-2.2039,-2.1498,-2.0671,-2.0094,-1.9632,-1.9502,-1.9573,-1.991,-2.0057,-2.0361,-2.0825,-2.1083,-2.1084,-2.1309,-2.1505,-2.1206,-2.0809,-2.0249,-1.9344,-1.9207,-1.9712,-2.0368,-2.1073,-2.1792,-2.2505,-2.3116,-2.3165,-2.2972,-2.2828,-2.2643,-2.2409,-2.2089,-2.186,-2.1889,-2.1886,-2.1996,-2.2076,-2.2057,-2.2065,-2.2081,-2.2104,-2.2309,-2.2535,-2.273,-2.2934,-2.306,-2.3126,-2.3232,-2.331,-2.3394,-2.3463,-2.3553,-2.3652,-2.3745,-2.3795,-2.3871,-2.3924,-2.3985,-2.4087,-2.4317,-2.4532,-2.479,-2.5096,-2.5332,-2.5459,-2.5529,-2.5514,-2.5499,-2.51,-2.4646,-2.4059,-2.3531,-2.2986,-2.2574,-2.2332,-2.215,-2.2093,-2.1982,-2.4808,-2.4966,-2.4783,-2.466,-2.4547,-2.4338,-2.4229,-2.4192,-2.4229,-2.4257,-2.4248,-2.4519,-2.4682,-2.4785,-2.5098,-2.534,-2.5464,-2.5522,-2.56,-2.5687,-2.5679,-2.5666,-2.5605,-2.5568,-2.5486,-2.5437,-2.5347,-2.5165,-2.5113,-2.4818,-2.4512,-2.4337,-2.4084,-2.3789,-2.3258,-2.2466,-2.157,-2.0369,-2.0025,-1.9441,-1.8471,-1.794,-1.772,-1.7728,-1.7841,-1.7936,-1.8353,-1.8885,-1.9471,-1.9607,-1.9921,-2.0338,-2.034,-2.0215,-1.9654,-1.9339,-1.914,-1.9718,-2.0512,-2.1254,-2.2027,-2.2761,-2.3472,-2.3632,-2.3524,-2.3202,-2.295,-2.2625,-2.2322,-2.202,-2.1978,-2.1915,-2.1969,-2.2032,-2.2049,-2.204,-2.2073,-2.22,-2.2476,-2.2712,-2.2909,-2.3089,-2.3268,-2.3351,-2.3378,-2.3504,-2.3562,-2.3638,-2.3656,-2.3697,-2.3766,-2.3798,-2.3874,-2.3975,-2.4118,-2.4237,-2.4529,-2.4755,-2.496,-2.5143,-2.5395,-2.5476,-2.5537,-2.5494,-2.5415,-2.4866,-2.4357,-2.3705,-2.3044,-2.2453,-2.2103,-2.2064,-2.2031,-2.209,-2.2005,-2.4814,-2.4823,-2.4698,-2.4592,-2.4524,-2.4446,-2.4284,-2.4075,-2.4124,-2.4114,-2.4115,-2.4345,-2.4538,-2.4669,-2.5113,-2.5365,-2.5424,-2.5531,-2.5615,-2.5639,-2.5639,-2.5586,-2.5486,-2.5466,-2.5387,-2.5293,-2.5225,-2.516,-2.5075,-2.4925,-2.476,-2.4484,-2.4125,-2.3593,-2.2769,-2.1906,-2.0635,-1.8972,-1.8437,-1.7937,-1.6931,-1.6773,-1.6689,-1.6352,-1.615,-1.6441,-1.6875,-1.731,-1.7764,-1.8046,-1.8727,-1.9166,-1.9459,-1.9529,-1.928,-1.8903,-1.9088,-1.9767,-2.0583,-2.1453,-2.2288,-2.3033,-2.3694,-2.4035,-2.4045,-2.3653,-2.3292,-2.2923,-2.2565,-2.2279,-2.207,-2.1991,-2.1953,-2.2015,-2.2077,-2.2081,-2.2093,-2.2376,-2.2678,-2.2889,-2.3096,-2.3274,-2.344,-2.3513,-2.3539,-2.3562,-2.3576,-2.3611,-2.3616,-2.3643,-2.3743,-2.3798,-2.3875,-2.398,-2.4144,-2.4421,-2.4681,-2.491,-2.511,-2.5281,-2.5453,-2.5512,-2.5561,-2.5466,-2.5277,-2.4637,-2.3947,-2.3188,-2.2535,-2.1946,-2.1615,-2.1551,-2.2082,-2.2317,-2.2132,-2.4676,-2.471,-2.4638,-2.4575,-2.4517,-2.4524,-2.4357,-2.4125,-2.4125,-2.4134,-2.4125,-2.4283,-2.4437,-2.4617,-2.5102,-2.5365,-2.5408,-2.5527,-2.5605,-2.5625,-2.5585,-2.5537,-2.5466,-2.5372,-2.5341,-2.5262,-2.5225,-2.5166,-2.5057,-2.4934,-2.476,-2.4454,-2.3999,-2.3276,-2.2294,-2.123,-1.9709,-1.785,-1.7148,-1.6229,-1.5422,-1.5419,-1.5202,-1.475,-1.479,-1.5151,-1.5646,-1.6164,-1.6815,-1.7558,-1.8482,-1.8963,-1.9242,-1.9354,-1.9242,-1.9103,-1.9303,-1.9773,-2.0725,-2.1649,-2.2556,-2.3271,-2.3901,-2.4237,-2.4192,-2.3843,-2.3719,-2.3365,-2.2849,-2.2535,-2.2347,-2.2269,-2.2271,-2.2303,-2.2318,-2.2335,-2.2499,-2.2756,-2.2949,-2.31,-2.3309,-2.3486,-2.358,-2.3522,-2.3562,-2.3643,-2.3647,-2.3674,-2.3656,-2.3589,-2.368,-2.378,-2.3847,-2.4011,-2.4229,-2.4535,-2.4867,-2.5069,-2.523,-2.5389,-2.5511,-2.5556,-2.5579,-2.5464,-2.506,-2.4249,-2.3527,-2.2824,-2.21,-2.1488,-2.1219,-2.1019,-2.1783,-2.2635,-2.2674,-2.4558,-2.4599,-2.4606,-2.4582,-2.4541,-2.4575,-2.4444,-2.4238,-2.4201,-2.4229,-2.4238,-2.431,-2.4489,-2.4737,-2.5041,-2.5245,-2.5408,-2.5533,-2.561,-2.559,-2.5576,-2.5478,-2.5393,-2.5341,-2.527,-2.5224,-2.5173,-2.5146,-2.5101,-2.4902,-2.4617,-2.4295,-2.368,-2.297,-2.1852,-2.0439,-1.876,-1.7056,-1.5887,-1.4693,-1.4198,-1.4039,-1.3894,-1.3711,-1.3669,-1.4206,-1.4749,-1.5555,-1.6404,-1.7538,-1.8693,-1.9295,-1.9559,-1.9698,-1.9729,-1.9713,-1.9856,-2.0447,-2.1166,-2.2057,-2.2768,-2.3401,-2.3978,-2.4238,-2.4201,-2.4086,-2.395,-2.3708,-2.3215,-2.2825,-2.2663,-2.2513,-2.2526,-2.2556,-2.2554,-2.2668,-2.2919,-2.3128,-2.3259,-2.3374,-2.3531,-2.3712,-2.3712,-2.3625,-2.3616,-2.3688,-2.3732,-2.3788,-2.3774,-2.3649,-2.3626,-2.3711,-2.3792,-2.4014,-2.4247,-2.4589,-2.4911,-2.5066,-2.5215,-2.5406,-2.5547,-2.5578,-2.5543,-2.5444,-2.4918,-2.4276,-2.3364,-2.2578,-2.184,-2.1408,-2.1593,-2.1776,-2.2482,-2.3213,-2.3427,-2.4532,-2.4606,-2.4654,-2.4686,-2.4645,-2.4613,-2.4469,-2.4292,-2.4211,-2.4275,-2.44,-2.4458,-2.4563,-2.4736,-2.5124,-2.5329,-2.5383,-2.5521,-2.5505,-2.5459,-2.5469,-2.5392,-2.5274,-2.518,-2.516,-2.511,-2.507,-2.5019,-2.4949,-2.4712,-2.4474,-2.42,-2.3218,-2.2272,-2.1138,-1.9505,-1.7538,-1.585,-1.4422,-1.3195,-1.2502,-1.2618,-1.3351,-1.3442,-1.3627,-1.3967,-1.4566,-1.5626,-1.6487,-1.7632,-1.9119,-1.9955,-2.0289,-2.0438,-2.0595,-2.062,-2.075,-2.1071,-2.1786,-2.2465,-2.3097,-2.3428,-2.3928,-2.4237,-2.4183,-2.4125,-2.4069,-2.408,-2.3632,-2.3165,-2.2935,-2.2703,-2.266,-2.2712,-2.2738,-2.3028,-2.3298,-2.3476,-2.3629,-2.3732,-2.3816,-2.3946,-2.4007,-2.3882,-2.3723,-2.3754,-2.3692,-2.3727,-2.367,-2.3615,-2.359,-2.3684,-2.3796,-2.3903,-2.4109,-2.4538,-2.4869,-2.5021,-2.5207,-2.5395,-2.5515,-2.556,-2.5525,-2.5427,-2.5138,-2.46,-2.3637,-2.2387,-2.2437,-2.219,-2.2472,-2.2808,-2.3266,-2.3624,-2.3669]}]]